     2              OBSERVATION DATA    GPS                 RINEX VERSION / TYPE
teqc 1999Jul19 20000201 02:02:08UTC                         PGM / RUN BY / DATE
                                                            COMMENT
L2: 1 -> 1; 5 -> 5; 60 -> 9                                 COMMENT
L2: 1 -> 1; 5 -> 5; 60 -> 9                                 COMMENT
L2: 1 -> 1; 5 -> 5; 60 -> 9                                 COMMENT
L2: 1 -> 1; 5 -> 5; 60 -> 9                                 COMMENT
L2: 1 -> 1; 5 -> 5; 60 -> 9                                 COMMENT
Original Marker Name: 0008                                  COMMENT
Campaign Name: Imperial Valley Leveling                     COMMENT
4-Character Station Name: 0008                              COMMENT
6-Character Antenna Code: TRMSST                            COMMENT
Vertical Measurement Point: BPA                             COMMENT
Vertical Offset to Rinex Ref. Point: 0.0000                 COMMENT
Radial Measurement Point: RRP                               COMMENT
Radial Offset to Rinex Ref. Point: 0.0000                   COMMENT
Antenna Height from Field Measurement: 2.2160 m             COMMENT
Additional Antenna Identification Info.:                    COMMENT
Model 14532.00                                              COMMENT
Original XYZ: -2266016.6991 -4870687.5480 3426857.4698      COMMENT
New XYZ position is based on association with SCEC monument COMMENT
E1C9N4D5+0011. Position of that monument is believed to be  COMMENT
valid to within 1 m horizontally; vertical accuracy         COMMENT
should be no worse than 3-times this value.                 COMMENT
                                                            COMMENT
Revised Rinex header created by UCSD GPS archive for        COMMENT
GSAC on 17-Jul-2000 (2000:199) 21:16:19 GMT                 COMMENT
For assistance contact dagnew@ucsd.edu                      COMMENT
or anderson@python.ucsd.edu                                 COMMENT
                                                            COMMENT
IMP CO GPS 0003                                             MARKER NAME
0008                                                        MARKER NUMBER
-Unknown- CALIF DEPT TRANSPORTATION                         OBSERVER / AGENCY
7373 TRIMBLE 4000 SSE NP 6.04; SP 2.07                      REC # / TYPE / VERS
S/N UNKNOWN TR 4000SST L1/L2 GEO                            ANT # / TYPE
 -2266014.1137 -4870680.5219  3426849.3252                  APPROX POSITION XYZ
        2.2160        0.0000        0.0000                  ANTENNA: DELTA H/E/N
     1     1     0                                          WAVELENGTH FACT L1/2
     7    C1    L1    L2    P1    P2    S1    S2            # / TYPES OF OBSERV
     0                                                      INTERVAL
  1995     4    28    14    41   45.000000                  TIME OF FIRST OBS
  1995     4    28    17    45    0.000000                  TIME OF LAST OBS
                                                            END OF HEADER
 95  4 28 14 41 45.0000000  0  8G14G18G19G22G27G28G29G31
                    167128.59715    130229.27915  23415868.867    23415871.570
         8.250           8.250
                    -42475.10917    -33097.55916  20464266.383    20464267.016
        21.000          20.500
                    -51966.78116    -40493.91016  21583064.320    21583065.441
        15.750          16.500
                    154307.71415    120239.59015  23441479.156    23441480.152
        11.000          10.750
                    -71273.55313    -55538.30115  24269385.047    24269386.684
         5.750           6.000
                    -44071.12415    -34341.02115  23419938.422    23419939.664
        11.250          10.250
                     27861.18817     21710.03716  20566897.297    20566897.957
        20.000          21.000
                   -115898.96715    -90311.19415  23500927.766    23500929.316
         9.250           8.500
 95  4 28 14 42  0.0000000  0  8G14G18G19G22G27G28G29G31
                    223784.086 5    174376.400 5  23426650.289    23426652.129
         8.000           7.500
                    -57155.550 7    -44536.844 6  20461472.680    20461473.289
        21.000          20.250
                    -69987.296 6    -54535.850 6  21579635.234    21579636.234
        16.000          16.500
                    206608.668 5    160993.579 5  23451431.781    23451432.520
        11.250          10.750
                   -104951.799 3    -81781.052 5  24262976.016    24262978.070
         5.500           6.000
                    -59267.045 5    -46181.968 5  23417046.594    23417047.762
        11.500          10.250
                     37161.461 7     28957.019 6  20568667.227    20568668.039
        20.000          21.250
                   -155711.952 5   -121334.272 5  23493351.594    23493353.281
         9.250           8.500
 95  4 28 14 42 15.0000000  0  8G14G18G19G22G27G28G29G31
                    280328.714 5    218437.159 5  23437409.961    23437412.488
         8.000           7.750
                    -71889.231 7    -56017.620 6  20458668.969    20458669.594
        21.000          20.250
                    -88112.316 6    -68659.224 6  21576185.867    21576186.980
        16.000          16.500
                    258804.151 5    201665.383 5  23461364.398    23461365.238
        11.000          10.750
                   -138763.254 3   -108127.618 5  24256542.195    24256543.629
         5.750           5.750
                    -74500.739 5    -58052.367 5  23414147.820    23414148.934
        11.500          10.250
                     46412.083 7     36165.302 6  20570427.547    20570428.344
        20.000          21.500
                   -195631.621 5   -152440.480 5  23485754.977    23485756.922
         9.250           8.500
 95  4 28 14 42 30.0000000  0  8G14G18G19G22G27G28G29G31
                    336780.574 5    262425.595 5  23448152.836    23448155.348
         8.250           8.500
                    -86657.662 7    -67525.472 6  20455858.648    20455859.238
        21.000          20.250
                   -106322.170 6    -82848.705 6  21572720.695    21572721.910
        16.250          17.000
                    310910.853 5    242268.006 5  23471279.789    23471280.938
        11.000          10.750
                   -172691.629 3   -134565.304 5  24250085.828    24250087.508
         5.500           5.750
                    -89755.114 5    -69938.880 5  23411245.125    23411246.051
        11.500          10.000
                     55629.817 7     43347.962 6  20572181.656    20572182.453
        20.000          21.500
                   -235641.710 5   -183617.144 5  23478141.219    23478143.543
         9.250           8.750
 95  4 28 14 42 45.0000000  0  8G14G18G19G22G27G28G29G31
                    393155.668 5    306354.230 5  23458880.508    23458882.387
         8.250           7.500
                   -101443.980 7    -79047.271 6  20453044.844    20453045.523
        21.000          20.250
                   -124595.906 6    -97087.965 6  21569243.438    21569244.602
        16.250          16.750
                    362946.743 5    282815.448 5  23481181.922    23481182.766
        10.750          10.500
                   -206716.690 3   -161078.313 5  24243610.938    24243613.035
         5.500           6.000
                   -105010.346 5    -81826.061 5  23408341.555    23408342.805
        10.750           9.750
                     64837.030 7     50522.416 6  20573933.789    20573934.488
        20.250          21.500
                   -275722.764 5   -214849.110 5  23470514.039    23470516.461
         9.250           8.750
 95  4 28 14 43  0.0000000  0  8G14G18G19G22G27G28G29G31
                    449464.527 5    350231.257 5  23469595.828    23469598.344
         8.000           8.250
                   -116232.821 7    -90571.027 6  20450230.703    20450231.395
        21.000          20.500
                   -142921.472 6   -111367.615 6  21565756.180    21565757.473
        16.500          17.000
                    414922.511 5    323316.049 5  23491072.438    23491073.297
        10.750          10.250
                   -240826.379 3   -187657.270 5  24237120.273    24237122.199
         5.750           6.000
                   -120251.706 5    -93702.434 5  23405441.539    23405442.348
        11.000           9.750
                     74048.540 7     57700.226 6  20575686.703    20575687.371
        20.250          21.500
                   -315859.947 5   -246124.814 5  23462875.977    23462878.594
         9.250           8.750
 95  4 28 14 43 15.0000000  0  8G14G18G19G22G27G28G29G31
                    505722.841 5    394068.878 5  23480301.484    23480304.324
         7.750           8.250
                   -131004.398 7   -102081.332 6  20447419.992    20447420.473
        21.000          20.500
                   -161279.231 6   -125672.343 6  21562262.664    21562263.996
        16.250          17.000
                    466855.315 5    363783.162 5  23500955.109    23500956.098
        10.750          10.250
                   -275004.231 3   -214289.342 5  24230617.094    24230618.309
         6.000           5.750
                   -135460.636 5   -105553.523 5  23402547.039    23402548.215
        10.750           9.750
                     83284.192 6     64896.845 6  20577443.945    20577444.699
        19.750          21.500
                   -356034.840 5   -277429.903 5  23455231.195    23455233.469
         9.250           8.500
 95  4 28 14 43 30.0000000  0  8G14G18G19G22G27G28G29G31
                    561956.232 5    437887.095 5  23491002.195    23491004.414
         7.750           7.750
                   -145733.521 7   -113558.558 6  20444616.977    20444617.656
        21.000          20.500
                   -179640.875 6   -139980.105 6  21558768.672    21558769.957
        16.500          17.250
                    518773.835 5    404239.150 5  23510834.383    23510835.809
        10.500          10.250
                   -309224.854 3   -240954.741 5  24224104.531    24224105.980
         5.750           5.750
                   -150611.294 5   -117359.215 5  23399664.211    23399665.195
        11.000           9.750
                     92571.351 7     72133.599 6  20579211.398    20579212.125
        20.000          21.500
                   -396221.952 5   -308744.518 5  23447583.781    23447586.316
         9.250           8.500
 95  4 28 14 43 45.0000000  0  8G14G18G19G22G27G28G29G31
                    618180.771 5    481698.410 5  23501701.461    23501703.785
         7.750           8.250
                   -160404.012 7   -124990.100 6  20441825.492    20441826.004
        21.250          20.750
                   -197986.915 6   -154275.710 6  21555277.406    21555278.855
        16.500          17.250
                    570700.886 5    444701.784 5  23520716.203    23520716.867
        11.000          10.000
                   -343467.878 3   -267637.588 5  24217588.539    24217590.000
         6.000           5.750
                   -165685.257 5   -129105.146 5  23396795.914    23396796.863
        11.000           9.750
                    101929.227 6     79425.457 6  20580992.102    20580992.750
        19.750          21.500
                   -436404.327 5   -340055.443 5  23439937.578    23439939.430
         9.250           8.250
 95  4 28 14 44  0.0000000  0  8G14G18G19G22G27G28G29G31
                    674398.695 5    525504.567 5  23512399.305    23512401.844
         8.000           8.500
                   -175008.810 7   -136370.452 6  20439046.250    20439046.879
        21.250          21.000
                   -216312.675 6   -168555.509 6  21551790.047    21551791.730
        16.500          17.250
                    622643.954 5    485176.897 5  23530600.320    23530601.621
        10.750          10.250
                   -377725.135 3   -294331.544 5  24211068.977    24211070.625
         5.750           5.750
                   -180677.187 5   -140787.154 5  23393942.633    23393943.859
        10.750           9.750
                    111365.503 7     86778.407 6  20582787.906    20582788.563
        20.000          21.750
                   -476578.938 5   -371360.322 5  23432292.383    23432294.570
         9.250           8.250
 95  4 28 14 44 15.0000000  0  8G14G18G19G22G27G28G29G31
                    730612.923 5    569307.846 5  23523096.727    23523098.906
         7.750           8.500
                   -189540.380 7   -147693.743 6  20436280.844    20436281.578
        21.250          20.750
                   -234613.745 6   -182816.068 6  21548307.547    21548309.047
        16.500          17.250
                    674607.953 5    525668.320 5  23540489.273    23540490.641
        11.000          10.250
                   -411992.333 3   -321033.235 5  24204548.414    24204550.742
         5.750           6.000
                   -195582.467 5   -152401.643 5  23391106.484    23391107.473
        10.750           9.750
                    120883.126 7     94194.736 6  20584599.063    20584599.797
        20.000          21.750
                   -516740.072 5   -402654.692 5  23424649.969    23424652.020
         9.000           8.250
 95  4 28 14 44 30.0000000  0  8G14G18G19G22G27G28G29G31
                    786828.267 5    613111.989 5  23533794.078    23533796.816
         7.750           8.750
                   -203991.570 7   -158954.401 6  20433530.805    20433531.672
        21.000          20.750
                   -252883.966 6   -197052.590 6  21544830.781    21544832.375
        16.250          17.250
                    726599.913 5    566181.527 5  23550383.164    23550383.484
        11.250           9.750
                   -446263.683 3   -347738.155 5  24198027.195    24198028.945
         5.750           6.000
                   -210394.827 5   -163943.720 5  23388287.461    23388288.648
        10.500           9.500
                    130488.623 6    101679.544 6  20586426.758    20586427.621
        19.750          21.500
                   -556881.515 5   -433933.721 5  23417011.516    23417013.195
         9.000           8.250
 95  4 28 14 44 45.0000000  0  8G14G18G19G22G27G28G29G31
                    843047.826 5    656919.405 5  23544492.117    23544495.023
         7.750           8.500
                   -218360.831 7   -170151.218 6  20430796.477    20430797.371
        21.000          21.000
                   -271123.015 6   -211264.822 6  21541360.133    21541361.574
        16.500          17.250
                    778623.888 5    606719.693 5  23560282.648    23560283.418
        10.750           9.750
                   -480535.427 3   -374443.394 5  24191504.953    24191506.813
         5.750           5.750
                   -225110.664 5   -175410.605 5  23385487.367    23385488.559
        10.750           9.500
                    140189.129 6    109238.382 6  20588272.836    20588273.492
        19.750          21.500
                   -596997.658 5   -465193.031 5  23409377.758    23409379.691
         9.000           8.500
 95  4 28 14 45  0.0000000  0  8G14G18G19G22G27G28G29G31
                    899273.171 5    700731.344 5  23555191.680    23555193.754
         8.250           8.250
                   -232646.892 7   -181283.201 6  20428077.836    20428078.770
        21.250          21.250
                   -289332.928 6   -225454.351 6  21537894.859    21537896.426
        16.500          17.250
                    830681.405 5    647283.989 5  23570189.063    23570189.734
        11.000           9.750
                   -514804.175 3   -401146.305 5  24184984.086    24184985.770
         5.750           5.750
                   -239727.540 5   -186800.361 5  23382706.102    23382707.008
        11.000           9.750
                    149987.672 6    116873.614 6  20590137.508    20590138.113
        19.750          21.250
                   -637084.251 5   -496429.318 5  23401749.477    23401751.324
         9.000           8.250
 95  4 28 14 45 15.0000000  0  8G14G18G19G22G27G28G29G31
                    955483.919 5    744531.917 5  23565887.859    23565890.684
         7.750           8.250
                   -246869.114 7   -192365.441 6  20425371.469    20425372.402
        21.000          21.000
                   -307534.281 6   -239637.212 6  21534431.453    21534432.703
        16.500          17.250
                    882753.670 5    687859.778 5  23580097.875    23580099.027
        10.750           9.750
                   -549091.138 3   -427863.393 5  24178459.492    24178461.516
         6.000           6.250
                   -254266.713 5   -198129.571 5  23379939.094    23379940.352
        11.000           9.750
                    159860.439 6    124566.680 6  20592016.172    20592016.828
        19.750          21.250
                   -677163.632 5   -527659.987 5  23394122.320    23394124.375
         9.000           8.250
 95  4 28 14 45 30.0000000  0  8G14G18G19G22G27G28G29G31
                   1011691.702 5    788330.161 5  23576584.398    23576586.555
         8.250           8.250
                   -261015.832 7   -203388.847 6  20422679.445    20422680.250
        21.000          21.000
                   -325715.762 6   -253804.585 6  21530971.547    21530972.645
        16.500          17.250
                    934852.581 5    728456.325 5  23590012.273    23590012.871
        10.750           9.750
                   -583382.750 3   -454584.099 5  24171933.930    24171935.379
         5.750           6.000
                   -268717.772 5   -209390.120 5  23377189.242    23377190.375
        11.000           9.750
                    169818.549 6    132326.254 6  20593911.031    20593911.691
        19.750          21.250
                   -717226.821 5   -558878.033 5  23386498.547    23386500.371
         9.250           8.250
 95  4 28 14 45 45.0000000  0  8G14G18G19G22G27G28G29G31
                   1067885.779 5    832117.753 5  23587277.477    23587279.977
         8.000           8.000
                   -275097.171 7   -214361.313 6  20419999.820    20420000.621
        21.000          20.750
                   -343891.565 6   -267967.537 6  21527512.945    21527513.977
        16.500          17.000
                    986967.079 5    769065.018 5  23599929.344    23599930.105
        10.750          10.000
                   -617687.183 3   -481314.811 5  24165406.438    24165407.387
         6.000           5.750
                   -283090.438 5   -220589.580 5  23374454.047    23374455.344
        10.750           9.750
                    179851.950 6    140144.487 6  20595820.430    20595821.016
        19.750          21.250
                   -757286.171 5   -590093.107 5  23378875.703    23378877.465
         9.500           8.250
 95  4 28 14 46  0.0000000  0  8G14G18G19G22G27G28G29G31
                   1124066.772 5    875895.120 5  23597968.367    23597971.512
         7.750           8.500
                   -289110.914 7   -225281.106 6  20417333.172    20417334.012
        21.000          20.750
                   -362061.940 6   -282126.258 6  21524055.086    21524056.246
        16.500          17.250
                   1039095.433 5    809684.507 5  23609848.891    23609850.395
        10.250          10.000
                   -652004.168 3   -508055.302 5  24158875.609    24158877.719
         5.750           6.000
                   -297383.192 5   -231726.773 5  23371734.250    23371735.520
        10.750           9.750
                    189960.828 7    148021.536 6  20597744.070    20597744.707
        20.000          21.250
                   -797339.779 5   -621303.687 5  23371253.789    23371255.469
         9.750           8.500
 95  4 28 14 46 15.0000000  0  8G14G18G19G22G27G28G29G31
                   1180233.286 5    919661.210 5  23608657.297    23608659.676
         8.500           8.500
                   -303057.296 7   -236148.407 6  20414679.234    20414679.875
        21.000          20.500
                   -380228.028 6   -296281.638 6  21520598.117    21520599.375
        16.500          17.250
                   1091232.235 5    850310.576 5  23619770.141    23619771.012
        10.000           9.750
                   -686337.496 3   -534808.515 5  24152342.508    24152343.945
         5.750           6.000
                   -311597.539 5   -242802.868 5  23369029.578    23369030.355
        11.000           9.500
                    200143.114 7    155955.785 6  20599681.820    20599682.387
        20.000          21.250
                   -837387.613 5   -652509.776 5  23363633.031    23363634.324
        10.000           8.500
 95  4 28 14 46 30.0000000  0  8G14G18G19G22G27G28G29G31
                   1236389.895 5    963419.591 5  23619342.766    23619345.352
         7.500           7.750
                   -316935.641 7   -246962.692 6  20412038.336    20412038.914
        21.250          20.500
                   -398385.169 6   -310430.043 6  21517143.047    21517144.168
        16.500          17.250
                   1143382.438 5    890947.091 5  23629693.977    23629695.313
        10.000           9.750
                   -720682.555 3   -561570.874 5  24145806.758    24145807.738
         6.000           6.000
                   -325728.904 5   -253814.310 5  23366340.523    23366341.109
        11.500           9.750
                    210402.841 7    163950.381 6  20601634.359    20601634.816
        20.250          21.250
                   -877424.923 5   -683707.669 5  23356013.906    23356015.625
        10.000           8.500
 95  4 28 14 46 45.0000000  0  8G14G18G19G22G27G28G29G31
                   1292530.474 5   1007165.472 5  23630026.734    23630029.004
         8.000           8.250
                   -330752.255 7   -257728.880 6  20409409.359    20409409.918
        21.250          20.500
                   -416538.345 6   -324575.363 6  21513688.625    21513689.742
        16.500          17.250
                   1195543.018 5    931591.682 5  23639619.695    23639620.750
         9.750           9.500
                   -755042.732 3   -588345.013 5  24139267.602    24139269.566
         5.750           6.000
                   -339781.762 5   -264764.576 5  23363666.672    23363666.766
        11.750           9.250
                    220734.481 7    172001.004 6  20603600.391    20603600.840
        20.500          21.250
                   -917456.227 5   -714900.873 5  23348396.578    23348397.434
        10.000           8.250
 95  4 28 14 47  0.0000000  0  8G14G18G19G22G27G28G29G31
                   1348656.561 5   1050900.067 5  23640706.914    23640709.508
         7.500           8.250
                   -344506.842 7   -268446.729 6  20406791.906    20406792.613
        21.250          20.500
                   -434687.539 6   -338717.581 6  21510234.906    21510236.023
        16.500          17.250
                   1247713.645 5    972244.118 5  23649547.594    23649549.246
         9.750           9.750
                   -789415.143 3   -615128.691 5  24132727.328    24132728.977
         5.750           6.250
                   -353754.866 5   -275652.695 5  23361007.430    23361008.074
        11.500           9.500
                    231136.491 7    180106.468 6  20605579.813    20605580.391
        20.500          21.000
                   -957479.692 5   -746087.981 5  23340780.234    23340781.891
        10.000           8.250
 95  4 28 14 47 15.0000000  0  8G14G18G19G22G27G28G29G31
                   1404764.490 4   1094620.498 5  23651383.648    23651385.910
         7.000           7.500
                   -358200.625 7   -279117.201 6  20404185.930    20404186.633
        21.000          20.500
                   -452834.070 6   -352857.726 6  21506781.766    21506782.953
        16.500          17.000
                   1299887.876 5   1012899.352 5  23659476.305    23659477.313
        10.000           9.500
                   -823803.720 3   -641924.969 5  24126183.305    24126184.961
         6.000           6.250
                   -367651.594 5   -286481.296 5  23358362.914    23358363.684
        11.500           9.750
                    241601.096 7    188260.706 6  20607571.070    20607571.508
        20.500          21.000
                   -997500.796 5   -777273.243 5  23333164.367    23333166.012
        10.000           8.500
 95  4 28 14 47 30.0000000  0  8G14G18G19G22G27G28G29G31
                   1460861.210 5   1138332.213 5  23662059.445    23662061.480
         7.750           7.750
                   -371827.825 7   -289735.789 6  20401592.844    20401593.422
        21.250          20.500
                   -470969.525 6   -366989.237 6  21503330.430    21503331.848
        16.500          17.250
                   1352070.739 5   1053561.315 5  23669406.328    23669407.113
         9.750           9.250
                   -858200.806 3   -668727.861 5  24119637.211    24119639.762
         5.750           6.750
                   -381464.894 5   -297244.886 5  23355734.508    23355735.219
        11.250          10.000
                    252136.012 7    196469.730 6  20609575.805    20609576.223
        20.500          21.000
                  -1037513.828 5   -808452.215 5  23325549.992    23325551.555
         9.750           8.500
 95  4 28 14 47 45.0000000  0  8G14G18G19G22G27G28G29G31
                   1516946.260 4   1182034.825 5  23672730.977    23672734.027
         6.750           7.750
                   -385389.510 7   -300303.329 6  20399012.102    20399012.672
        21.250          20.250
                   -489092.655 6   -381111.147 6  21499881.734    21499883.000
        16.500          17.250
                   1404262.035 5   1094229.851 5  23679338.016    23679339.426
         9.750           9.250
                   -892604.248 3   -695535.724 5  24113090.953    24113092.813
         6.000           6.750
                   -395192.629 5   -307941.807 5  23353122.023    23353122.738
        11.500          10.000
                    262743.403 7    204735.229 6  20611594.359    20611594.617
        20.750          21.000
                  -1077514.361 5   -839621.443 5  23317938.297    23317939.891
         9.750           9.000
 95  4 28 14 48  0.0000000  0  8G14G18G19G22G27G28G29G31
                   1573009.430 4   1225720.382 5  23683399.906    23683402.129
         7.000           7.000
                   -398897.166 7   -310828.770 6  20396441.633    20396442.219
        21.250          20.250
                   -507210.422 6   -395228.880 6  21496434.250    21496435.719
        16.250          17.250
                   1456451.397 5   1134896.877 5  23689269.180    23689270.688
         9.750           9.250
                   -927025.275 4   -722357.285 5  24106541.195    24106542.875
         6.250           6.750
                   -408843.613 5   -318578.915 5  23350524.633    23350525.281
        11.750          10.000
                    273412.081 7    213048.483 6  20613624.734    20613624.914
        21.000          21.000
                  -1117508.553 5   -870785.731 5  23310327.500    23310329.398
         9.750           9.250
 95  4 28 14 48 15.0000000  0  8G14G18G19G22G27G28G29G31
                   1629056.843 4   1269393.680 5  23694065.250    23694067.711
         6.750           7.000
                   -412344.049 7   -321306.852 6  20393882.773    20393883.293
        21.250          20.250
                   -525317.502 6   -409338.284 6  21492988.539    21492989.734
        16.500          17.250
                   1508640.721 5   1175563.870 5  23699200.320    23699201.766
         9.250           9.000
                   -961460.775 4   -749190.117 5  24099988.211    24099990.055
         6.250           7.000
                   -422413.726 5   -329153.019 5  23347942.164    23347942.840
        11.750          10.000
                    284145.642 7    221412.293 6  20615667.258    20615667.570
        21.000          21.000
                  -1157489.325 5   -901939.567 5  23302719.375    23302721.184
         9.750           9.250
 95  4 28 14 48 30.0000000  0  8G14G18G19G22G27G28G29G31
                   1685096.889 3   1313061.206 5  23704728.578    23704732.320
         6.000           7.250
                   -425723.739 7   -331732.583 6  20391336.813    20391337.328
        21.250          20.250
                   -543408.934 6   -423435.490 6  21489545.898    21489547.234
        16.500          17.250
                   1560835.362 5   1216235.011 5  23709132.148    23709133.836
         9.000           9.000
                   -995903.058 4   -776028.240 5  24093434.086    24093435.707
         6.250           7.000
                   -435896.331 5   -339658.932 5  23345376.320    23345377.266
        11.500          10.000
                    294950.152 7    229831.390 6  20617723.219    20617723.563
        21.000          21.000
                  -1197449.383 5   -933077.258 5  23295115.523    23295117.301
         9.750           9.250
 95  4 28 14 48 45.0000000  0  8G14G18G19G22G27G28G29G31
                   1741136.082 4   1356728.081 5  23715393.094    23715395.648
         7.250           6.750
                   -439028.993 7   -342100.307 6  20388804.961    20388805.547
        21.500          20.250
                   -561479.267 6   -437516.265 6  21486107.305    21486108.418
        16.500          17.250
                   1613042.205 5   1256915.658 5  23719067.086    23719068.395
         9.000           8.750
                  -1030345.385 4   -802866.395 5  24086879.289    24086881.910
         6.250           7.000
                   -449284.339 5   -350091.128 5  23342828.695    23342829.652
        11.500          10.000
                    305830.098 7    238309.268 6  20619793.625    20619794.004
        21.000          21.000
                  -1237380.813 5   -964192.641 5  23287516.734    23287518.438
        10.000           9.250
 95  4 28 14 49  0.0000000  0  8G14G18G19G22G27G28G29G31
                   1797167.146 4   1400388.636 5  23726055.477    23726057.676
         7.000           6.250
                   -452263.662 7   -352413.031 6  20386286.484    20386287.059
        21.750          20.250
                   -579536.072 6   -451586.495 6  21482671.227    21482672.422
        16.500          17.250
                   1665249.082 5   1297596.334 5  23729001.508    23729002.742
         8.750           8.500
                  -1064796.992 4   -829711.778 5  24080324.172    24080325.879
         6.250           7.000
                   -462584.814 5   -360455.116 5  23340297.641    23340298.664
        11.500          10.250
                    316777.413 7    246839.642 6  20621876.953    20621877.340
        21.000          21.000
                  -1277288.457 5   -995289.490 5  23279922.563    23279924.750
        10.000           9.750
 95  4 28 14 49 15.0000000  0  8G14G18G19G22G27G28G29G31
                   1853198.698 5   1444049.553 5  23736718.359    23736720.309
         7.500           6.000
                   -465417.389 7   -362662.684 6  20383783.414    20383783.906
        21.750          20.250
                   -597568.519 6   -465637.743 6  21479239.570    21479240.867
        16.500          17.250
                   1717462.161 5   1338281.836 5  23738937.766    23738938.945
         9.000           8.750
                  -1099250.534 3   -856558.673 5  24073767.141    24073769.633
         6.000           7.250
                   -475788.522 5   -370743.701 5  23337785.203    23337786.313
        11.500          10.250
                    327805.202 7    255432.719 6  20623975.234    20623975.656
        21.000          21.000
                  -1317161.129 5  -1026359.088 5  23272335.258    23272337.086
        10.000          10.000
 95  4 28 14 49 30.0000000  0  8G14G18G19G22G27G28G29G31
                   1909237.880 5   1487716.449 5  23747382.680    23747383.969
         7.750           5.750
                   -478482.793 7   -372843.512 6  20381297.203    20381297.723
        21.750          20.000
                   -615567.620 6   -479663.005 6  21475814.469    21475815.742
        16.500          17.250
                   1769691.174 5   1378979.760 5  23748876.734    23748877.883
         9.000           8.750
                  -1133700.976 3   -883403.150 5  24067211.695    24067213.938
         6.000           7.250
                   -488887.862 6   -380950.967 5  23335292.523    23335293.473
        12.000          10.500
                    338923.641 7    264096.438 6  20626091.125    20626091.426
        21.000          21.000
                  -1356989.113 5  -1057393.861 5  23264755.789    23264758.016
        10.000          10.000
 95  4 28 14 49 45.0000000  0  8G14G18G19G22G27G28G29G31
                   1965292.928 4   1531395.702 5  23758048.914    23758051.246
         7.250           5.750
                   -491452.994 7   -382950.159 6  20378829.016    20378829.578
        21.750          20.000
                   -633524.430 6   -493655.320 6  21472397.188    21472398.605
        16.250          17.250
                   1821947.767 5   1419699.176 5  23758820.844    23758821.727
         9.000           8.750
                  -1168140.515 4   -910239.141 5  24060658.023    24060659.902
         6.250           7.000
                   -501873.648 5   -391069.748 5  23332821.414    23332822.371
        11.750          10.250
                    350144.968 7    272840.324 6  20628226.516    20628226.836
        21.000          21.000
                  -1396760.871 5  -1088384.821 5  23257187.211    23257189.398
        10.000          10.000
 95  4 28 14 50  0.0000000  0  8G14G18G19G22G27G28G29G31
                   2021354.629 5   1575080.130 5  23768717.758    23768719.773
         8.000           6.000
                   -504334.968 7   -392988.053 6  20376377.633    20376378.352
        21.750          20.250
                   -651449.576 6   -507622.958 6  21468986.070    21468987.508
        16.250          17.250
                   1874220.302 5   1460431.013 5  23768767.945    23768769.121
         9.000           9.000
                  -1202582.863 3   -937077.305 5  24054103.602    24054105.727
         6.000           7.000
                   -514756.047 5   -401107.962 5  23330369.867    23330370.832
        11.750          10.250
                    361458.843 7    281656.327 6  20630379.461    20630379.867
        21.000          21.250
                  -1436485.881 5  -1119339.362 5  23249627.898    23249629.984
        10.250           9.750
 95  4 28 14 50 15.0000000  0  7G18G19G22G27G28G29G31
                   -517125.669 7   -402954.832 6  20373943.484    20373944.375
        21.750          20.250
                   -669343.219 6   -521566.049 6  21465580.969    21465582.305
        16.250          17.250
                   1926509.276 5   1501175.655 5  23778717.867    23778719.629
         9.000           9.250
                  -1237027.977 3   -963917.638 5  24047549.266    24047551.188
         6.000           7.000
                   -527533.793 5   -411064.629 5  23327938.234    23327939.191
        11.750          10.250
                    372866.875 7    290545.696 6  20632550.445    20632550.859
        21.000          21.250
                  -1476165.999 5  -1150258.925 5  23242077.055    23242078.777
        10.250           9.250
 95  4 28 14 50 30.0000000  0  8G14G18G19G22G27G28G29G31
                     18691.82415     14564.96415  23790059.602    23790061.891
         7.500           6.500
                   -529824.331 7   -412849.885 6  20371527.172    20371527.988
        21.750          20.250
                   -687204.758 6   -535484.120 6  21462182.203    21462183.488
        16.250          17.500
                   1978820.615 5   1541937.720 5  23788672.789    23788673.832
         9.000           9.250
                  -1271471.396 3   -990756.640 5  24040994.742    24040996.680
         6.000           7.000
                   -540203.322 5   -420936.976 5  23325527.469    23325528.344
        11.750          10.250
                    384373.780 7    299512.113 6  20634740.055    20634740.547
        21.000          21.250
                  -1515800.524 5  -1181142.963 5  23234534.984    23234536.879
        10.250           9.500
 95  4 28 14 50 45.0000000  0  8G14G18G19G22G27G28G29G31
                     74791.734 5     58279.164 5  23800735.359    23800737.797
         8.250           7.000
                   -542423.262 7   -422667.230 6  20369129.422    20369130.230
        21.750          20.250
                   -705021.348 6   -549367.172 6  21458791.813    21458793.121
        16.250          17.750
                   2031168.766 5   1582728.477 5  23798634.563    23798635.875
         9.250           9.750
                  -1305901.700 3  -1017585.439 5  24034442.680    24034444.934
         6.000           7.000
                   -552753.919 6   -430716.642 5  23323139.297    23323140.316
        12.250          10.750
                    395991.819 7    308565.121 6  20636950.789    20636951.238
        21.000          21.250
                  -1555380.107 5  -1211984.185 5  23227003.508    23227005.090
        10.000           9.750
 95  4 28 14 51  0.0000000  0  7G18G19G22G27G28G29G31
                   -554918.340 7   -432403.649 6  20366751.719    20366752.430
        21.750          20.250
                   -722788.709 6   -563211.859 6  21455410.773    21455412.047
        16.250          17.250
                   2083556.971 5   1623550.427 5  23808603.367    23808604.484
         9.000           9.750
                  -1340316.050 4  -1044401.794 5  24027894.047    24027895.980
         6.250           7.250
                   -565182.730 6   -440401.422 5  23320773.922    23320775.055
        12.000          10.750
                    407725.849 7    317708.518 6  20639183.641    20639184.121
        20.500          21.000
                  -1594904.017 5  -1242782.020 5  23219482.094    23219483.695
         9.750           9.250
 95  4 28 14 51 15.0000000  0  8G14G18G19G22G27G28G29G31
                      7481.74215      5830.21015  23822096.117    23822098.238
         7.500           6.750
                   -567305.860 7   -442056.254 6  20364394.570    20364395.441
        21.750          20.500
                   -740501.099 6   -577013.710 6  21452040.203    21452041.590
        16.250          17.750
                   2135990.903 5   1664408.030 5  23818581.836    23818582.496
         9.750           9.750
                  -1374709.860 4  -1071202.142 5  24021349.492    24021351.254
         6.250           7.250
                   -577485.913 6   -449988.301 5  23318432.703    23318434.160
        12.000          11.000
                    419579.738 7    326945.313 6  20641439.281    20641439.852
        20.750          21.000
                  -1634370.974 5  -1273535.471 5  23211972.008    23211973.707
        10.000           9.750
 95  4 28 14 51 30.0000000  0  8G14G18G19G22G27G28G29G31
                     63640.579 5     49590.332 5  23832782.742    23832785.254
         7.500           7.000
                   -579584.011 7   -451623.642 6  20362058.078    20362058.871
        21.750          20.250
                   -758155.031 6   -590770.014 6  21448680.945    21448682.160
        16.500          17.750
                   2188478.142 5   1705307.177 5  23828569.219    23828570.918
         9.250           9.750
                  -1409080.132 4  -1097984.160 5  24014809.266    24014810.449
         6.250           7.250
                   -589659.898 5   -459474.504 5  23316116.109    23316117.367
        11.750          11.000
                    431555.054 7    336276.725 6  20643718.383    20643718.855
        21.000          21.000
                  -1673781.712 5  -1304245.126 5  23204472.375    23204474.320
        10.000           9.750
 95  4 28 14 51 45.0000000  0  8G14G18G19G22G27G28G29G31
                    119821.099 4     93367.315 5  23843473.195    23843476.180
         6.750           7.250
                   -591754.609 7   -461107.222 6  20359742.258    20359742.875
        22.000          20.250
                   -775753.575 6   -604483.159 6  21445331.977    21445333.469
        16.500          18.000
                   2241015.787 5   1746245.582 5  23838566.781    23838567.852
         9.500           9.750
                  -1443427.193 3  -1124748.079 5  24008272.828    24008274.887
         6.000           7.500
                   -601705.939 5   -468861.010 5  23313823.805    23313824.891
        11.750          11.000
                    443648.206 7    345699.958 6  20646019.531    20646019.918
        21.000          20.750
                  -1713142.032 5  -1334915.491 5  23196982.211    23196984.117
         9.750           9.750
 95  4 28 14 52  0.0000000  0  8G14G18G19G22G27G28G29G31
                    176017.268 5    137156.508 5  23854167.656    23854169.750
         7.500           6.750
                   -603819.013 7   -470508.052 6  20357446.703    20357447.375
        22.250          20.250
                   -793301.700 6   -618157.017 6  21441992.773    21441994.223
        16.250          18.000
                   2293594.313 5   1787215.847 5  23848572.273    23848573.617
         9.750           9.750
                  -1477755.536 4  -1151497.418 5  24001740.305    24001742.375
         6.250           7.500
                   -613629.402 5   -478152.002 5  23311554.922    23311555.879
        11.750          11.000
                    455851.917 7    355209.341 6  20648341.844    20648342.199
        20.750          20.750
                  -1752458.793 5  -1365551.925 5  23189500.719    23189502.859
         9.750           9.750
 95  4 28 14 52 15.0000000  0  8G14G18G19G22G27G28G29G31
                    232251.566 4    180975.439 5  23864868.414    23864870.766
         7.000           7.000
                   -615753.355 7   -479807.532 6  20355175.586    20355176.211
        22.000          20.250
                   -810778.827 6   -631775.546 6  21438666.891    21438668.285
        16.250          17.750
                   2346235.230 5   1828234.738 5  23858589.797    23858591.078
         9.750           9.750
                  -1512040.410 3  -1178212.890 5  23995216.445    23995218.281
         6.000           7.250
                   -625407.657 6   -487329.851 5  23309313.773    23309314.414
        12.000          10.750
                    468184.991 7    364819.529 6  20650688.758    20650689.113
        20.500          20.500
                  -1791710.577 5  -1396137.710 5  23182031.172    23182033.496
         9.750          10.000
 95  4 28 14 52 30.0000000  0  8G14G18G19G22G27G28G29G31
                    288508.854 4    224812.247 5  23875573.523    23875576.211
         6.500           7.500
                   -627571.183 7   -489016.223 6  20352926.805    20352927.230
        22.250          20.000
                   -828197.700 6   -645348.686 6  21435352.289    21435353.766
        16.250          18.000
                   2398929.526 5   1869295.206 5  23868616.930    23868618.063
         9.250           9.250
                  -1546291.669 3  -1204902.158 5  23988697.859    23988700.266
         6.000           7.250
                   -637052.602 6   -496403.822 5  23307097.609    23307098.633
        12.000          11.000
                    480635.618 7    374521.313 6  20653057.992    20653058.453
        20.500          20.750
                  -1830908.844 5  -1426681.797 5  23174572.102    23174574.035
        10.000          10.000
 95  4 28 14 52 45.0000000  0  8G14G18G19G22G27G28G29G31
                    344800.210 4    268675.607 5  23886286.289    23886288.367
         7.250           7.750
                   -639259.866 7   -498124.286 6  20350702.469    20350702.930
        22.250          19.750
                   -845545.904 6   -658866.759 6  21432051.031    21432052.359
        16.500          18.000
                   2451690.647 5   1910407.766 5  23878657.016    23878658.203
         9.250           9.250
                  -1580497.629 4  -1231556.137 5  23982189.008    23982190.633
         6.250           7.250
                   -648552.628 5   -505364.867 5  23304909.203    23304910.430
        11.750          11.500
                    493215.405 7    384323.738 6  20655451.805    20655452.285
        20.500          20.750
                  -1870036.954 5  -1457171.223 5  23167125.961    23167127.762
         9.750           9.750
 95  4 28 14 53  0.0000000  0  8G14G18G19G22G27G28G29G31
                    401123.020 4    312563.497 5  23897003.703    23897005.566
         6.750           7.000
                   -650819.341 7   -507131.664 6  20348502.531    20348502.824
        22.250          19.750
                   -862827.830 6   -672333.187 6  21428762.336    21428763.672
        16.500          18.000
                   2504512.154 5   1951567.370 5  23888708.695    23888710.230
         9.250           9.250
                  -1614664.651 4  -1258179.768 5  23975687.461    23975688.652
         6.250           7.250
                   -659911.708 5   -514216.077 5  23302747.570    23302748.781
        11.750          11.500
                    505917.706 7    394221.634 6  20657869.008    20657869.410
        20.500          20.750
                  -1909095.848 5  -1487606.713 5  23159693.211    23159695.164
        10.000           9.750
 95  4 28 14 53 15.0000000  0  8G14G18G19G22G27G28G29G31
                    457482.423 4    356479.873 5  23907728.203    23907730.648
         6.250           7.500
                   -662246.661 7   -516036.062 6  20346328.117    20346328.465
        22.250          19.750
                   -880044.287 6   -685748.602 6  21425486.148    21425487.621
        16.250          18.000
                   2557393.827 5   1992773.845 5  23898771.602    23898773.199
         8.750           9.250
                  -1648792.680 4  -1284773.015 5  23969193.227    23969194.223
         6.250           7.250
                   -671126.858 5   -522955.137 5  23300613.383    23300614.898
        11.750          11.750
                    518742.789 7    404215.198 6  20660309.523    20660309.934
        20.500          20.500
                  -1948081.420 5  -1517985.066 5  23152274.523    23152276.594
        10.250           9.750
 95  4 28 14 53 30.0000000  0  8G14G18G19G22G27G28G29G31
                    513883.868 4    400429.025 5  23918461.820    23918463.918
         6.750           7.750
                   -673541.510 7   -524837.237 6  20344178.836    20344179.137
        22.250          19.500
                   -897195.026 6   -699112.805 6  21422222.297    21422223.734
        16.250          17.750
                   2610337.320 5   2034028.501 5  23908846.578    23908848.086
         8.250           9.000
                  -1682880.360 4  -1311334.822 5  23962706.781    23962707.961
         6.500           7.500
                   -682194.938 6   -531579.592 5  23298507.445    23298508.633
        12.000          11.750
                    531693.696 7    414306.813 6  20662774.023    20662774.391
        20.500          20.500
                  -1986987.213 5  -1548301.258 5  23144871.445    23144873.160
        10.500           9.750
 95  4 28 14 53 45.0000000  0  8G14G18G19G22G27G28G29G31
                    570336.460 4    444418.020 5  23929203.727    23929206.398
         6.250           7.500
                   -684694.624 7   -533527.976 6  20342056.453    20342056.824
        22.250          19.500
                   -914272.382 6   -712419.834 6  21418972.742    21418974.098
        16.250          17.750
                   2663347.396 5   2075335.029 5  23918933.922    23918935.605
         8.250           9.000
                  -1716919.193 4  -1337858.574 5  23956228.820    23956230.465
         6.250           7.500
                   -693106.034 6   -540081.734 5  23296431.156    23296432.117
        12.250          11.500
                    544784.393 7    424507.348 6  20665265.133    20665265.539
        20.500          20.500
                  -2025798.844 5  -1578544.081 5  23137485.547    23137487.277
        10.250           9.750
 95  4 28 14 54  0.0000000  0  8G14G18G19G22G27G28G29G31
                    626832.792 4    488441.094 5  23939954.641    23939956.926
         6.250           7.000
                   -695710.791 7   -542111.998 6  20339960.133    20339960.449
        22.250          19.500
                   -931282.675 6   -725674.597 6  21415735.844    21415737.117
        16.250          17.750
                   2716418.762 5   2116689.329 5  23929032.977    23929034.566
         8.250           8.750
                  -1750913.238 4  -1364347.424 5  23949760.141    23949762.031
         6.250           7.750
                   -703865.650 6   -548465.839 5  23294383.625    23294384.508
        12.250          11.500
                    558009.784 7    434812.843 6  20667781.938    20667782.324
        20.500          20.500
                  -2064516.240 5  -1608713.470 5  23130117.758    23130119.543
        10.250           9.750
 95  4 28 14 54 15.0000000  0  8G14G18G19G22G27G28G29G31
                    683368.283 4    532494.705 5  23950713.547    23950715.609
         7.000           7.000
                   -706595.820 7   -550593.836 6  20337888.906    20337889.168
        22.500          19.500
                   -948232.350 6   -738882.131 6  21412510.367    21412511.723
        16.250          17.750
                   2769549.412 5   2158089.826 5  23939143.656    23939145.117
         8.250           8.500
                  -1784865.970 4  -1390804.082 5  23943299.617    23943300.598
         6.500           7.500
                   -714478.074 6   -556735.246 5  23292364.203    23292364.938
        12.250          11.500
                    571363.615 7    445218.422 6  20670322.969    20670323.348
        20.500          20.500
                  -2103138.743 5  -1638808.909 5  23122768.289    23122770.078
        10.250           9.750
 95  4 28 14 54 30.0000000  0  8G14G18G19G22G27G28G29G31
                    739947.494 4    576582.375 5  23961479.797    23961482.480
         6.250           7.250
                   -717346.303 7   -558970.832 6  20335843.273    20335843.516
        22.500          19.500
                   -965116.224 6   -752038.391 6  21409297.391    21409298.844
        16.250          17.750
                   2822748.409 5   2199543.559 5  23949267.367    23949268.957
         8.250           8.500
                  -1818769.808 4  -1417222.634 5  23936847.938    23936848.570
         6.750           7.500
                   -724936.095 6   -564884.343 5  23290374.055    23290374.918
        12.000          11.500
                    584857.310 7    455732.985 6  20672890.820    20672891.184
        20.500          20.500
                  -2141658.682 5  -1668824.430 5  23115438.047    23115439.875
        10.500           9.250
 95  4 28 14 54 45.0000000  0  8G14G18G19G22G27G28G29G31
                    796569.344 4    620703.248 5  23972254.141    23972257.145
         6.250           7.000
                   -727961.819 7   -567242.660 6  20333823.109    20333823.285
        22.750          19.250
                   -981932.773 6   -765142.192 6  21406097.250    21406098.586
        16.250          17.750
                   2876013.598 5   2241048.889 5  23959403.188    23959404.535
         8.250           8.500
                  -1852625.359 4  -1443603.566 5  23930405.336    23930406.602
         6.750           7.750
                   -735239.477 6   -572912.940 5  23288413.383    23288414.281
        12.000          11.500
                    598492.516 7    466357.813 6  20675485.508    20675485.750
        20.500          20.250
                  -2180073.359 5  -1698757.941 5  23108128.352    23108129.371
        10.500           9.250
 95  4 28 14 55  0.0000000  0  8G14G18G19G22G27G28G29G31
                    853242.576 4    664864.192 5  23983039.422    23983041.629
         6.750           6.750
                   -738431.255 7   -575400.658 6  20331830.945    20331831.297
        22.750          19.250
                   -998672.345 6   -778186.006 6  21402911.898    21402913.402
        16.250          17.750
                   2929347.777 5   2282607.970 5  23969552.008    23969554.203
         8.250           8.750
                  -1886425.567 4  -1469941.367 5  23923972.984    23923974.797
         6.500           7.750
                   -745379.607 6   -580814.317 5  23286483.719    23286484.309
        12.000          11.250
                    612276.858 7    477098.854 6  20678108.617    20678108.809
        20.500          20.250
                  -2218375.790 5  -1728603.975 5  23100839.320    23100840.828
        10.250           9.250
 95  4 28 14 55 15.0000000  0  8G14G18G19G22G27G28G29G31
                    909967.642 4    709065.519 5  23993833.688    23993836.574
         6.500           6.750
                   -748755.567 7   -583445.576 6  20329866.117    20329866.645
        22.500          19.500
                  -1015334.316 6   -791169.354 6  21399741.258    21399742.645
        16.500          17.750
                   2982746.265 5   2324217.167 5  23979713.961    23979715.371
         9.000           8.500
                  -1920167.752 4  -1496233.962 5  23917551.828    23917553.816
         6.250           7.750
                   -755356.150 6   -588588.240 5  23284585.453    23284585.898
        12.250          11.000
                    626211.711 7    487957.181 6  20680760.359    20680760.504
        20.500          20.250
                  -2256568.894 5  -1758364.821 5  23093571.477    23093572.828
        10.250           9.500
 95  4 28 14 55 30.0000000  0  8G14G18G19G22G27G28G29G31
                    966739.009 4    753302.904 5  24004636.938    24004639.664
         6.250           6.750
                   -758940.142 7   -591381.607 6  20327928.078    20327928.676
        22.500          19.500
                  -1031921.125 6   -804094.136 6  21396585.023    21396586.328
        16.500          18.000
                   3036203.502 5   2365872.153 5  23989886.648    23989887.613
         9.000           8.250
                  -1953853.482 4  -1522482.570 5  23911141.633    23911143.402
         6.250           8.000
                   -765173.330 6   -596237.974 5  23282717.367    23282717.691
        12.500          11.000
                    640296.481 7    498932.326 6  20683440.539    20683440.785
        20.250          20.250
                  -2294660.019 5  -1788046.202 5  23086322.922    23086324.246
        10.500           9.250
 95  4 28 14 55 45.0000000  0  8G14G18G19G22G27G28G29G31
                   1023571.863 4    797588.216 5  24015452.086    24015454.418
         6.500           6.250
                   -768965.040 7   -599193.211 6  20326020.469    20326021.137
        22.750          19.750
                  -1048413.124 6   -816945.042 6  21393446.594    21393448.016
        16.500          18.000
                   3089735.956 5   2407585.726 5  24000073.836    24000075.523
         9.250           9.000
                  -1987463.984 4  -1548672.558 5  23904745.844    23904747.629
         6.500           8.250
                   -774814.775 6   -603750.778 5  23280882.414    23280882.941
        12.250          11.000
                    654548.096 7    510037.477 6  20686152.531    20686152.824
        20.250          20.250
                  -2332632.116 5  -1817634.840 5  23079097.219    23079098.473
        10.750           9.250
 95  4 28 14 56  0.0000000  0  8G14G18G19G22G27G28G29G31
                   1080461.266 4    841917.605 5  24026277.867    24026280.281
         6.750           5.750
                   -778830.505 7   -606880.582 6  20324143.266    20324143.828
        22.750          19.500
                  -1064811.861 6   -829723.270 6  21390326.070    21390327.594
        16.500          18.000
                   3143344.820 5   2449358.869 5  24010274.664    24010276.051
         9.250           8.500
                  -2020999.314 4  -1574803.973 5  23898364.539    23898366.273
         6.750           8.250
                   -784283.529 6   -611129.014 5  23279080.734    23279081.246
        12.000          11.000
                    668961.010 7    521268.317 6  20688895.203    20688895.637
        20.250          20.250
                  -2370491.567 5  -1847135.703 5  23071892.781    23071893.707
        10.750           9.000
 95  4 28 14 56 15.0000000  0  8G14G18G19G22G27G28G29G31
                   1137405.898 4    886290.023 5  24037114.141    24037116.410
         6.500           5.750
                   -788537.717 7   -614444.639 6  20322295.719    20322296.148
        22.500          19.500
                  -1081117.177 6   -842428.698 6  21387223.266    21387224.555
        16.500          18.000
                   3197029.488 5   2491191.051 5  24020490.484    24020492.262
         9.250           8.500
                  -2054459.755 4  -1600877.023 5  23891996.773    23891998.996
         6.750           8.000
                   -793581.861 6   -618374.459 5  23277311.266    23277311.754
        12.250          11.000
                    683529.685 7    532620.529 6  20691667.586    20691668.004
        20.250          20.250
                  -2408243.961 5  -1876553.142 5  23064708.563    23064709.852
        10.750           9.250
 95  4 28 14 56 30.0000000  0  8G14G18G19G22G27G28G29G31
                   1194402.607 4    930703.022 5  24047960.188    24047962.746
         6.750           5.500
                   -798088.250 7   -621886.609 6  20320478.391    20320478.855
        22.750          19.500
                  -1097330.527 6   -855062.473 6  21384138.164    21384139.402
        16.500          18.000
                   3250785.169 5   2533078.591 5  24030720.680    24030721.832
         9.500           8.500
                  -2087846.248 4  -1626892.450 5  23885644.367    23885645.703
         7.000           8.000
                   -802711.482 6   -625488.432 5  23275573.891    23275574.480
        12.250          11.250
                    698255.297 7    544095.030 6  20694469.922    20694470.121
        20.250          20.500
                  -2445895.496 5  -1905891.983 5  23057543.977    23057545.066
        11.000           9.250
 95  4 28 14 56 45.0000000  0  8G14G18G19G22G27G28G29G31
                   1251458.209 4    975161.904 5  24058817.359    24058819.719
         6.500           5.000
                   -807474.831 7   -629200.826 6  20318692.234    20318692.645
        22.750          19.750
                  -1113442.267 6   -867617.071 6  21381072.039    21381073.395
        16.500          18.250
                   3304616.992 5   2575025.441 5  24040963.836    24040965.137
         9.000           8.500
                  -2121156.655 4  -1652848.605 5  23879304.922    23879306.504
         6.750           8.000
                   -811666.088 6   -632466.035 5  23273870.102    23273870.500
        12.250          11.250
                    713143.385 7    555696.137 6  20697303.117    20697303.184
        20.500          20.250
                  -2483442.205 5  -1935149.157 5  23050399.109    23050399.855
        11.500           9.250
 95  4 28 14 57  0.0000000  0  8G14G18G19G22G27G28G29G31
                   1308582.065 4   1019674.000 5  24069687.625    24069690.199
         6.250           5.000
                   -816690.547 7   -636381.899 6  20316938.438    20316938.926
        22.750          19.750
                  -1129445.187 6   -880086.871 6  21378026.805    21378028.168
        16.500          18.250
                   3358530.751 5   2617036.153 5  24051223.453    24051225.051
         9.750           8.500
                  -2154386.589 4  -1678742.043 5  23872981.852    23872983.176
         7.000           8.000
                   -820440.425 6   -639303.176 5  23272200.164    23272200.371
        12.250          10.750
                    728195.203 7    567424.820 6  20700167.336    20700167.445
        20.500          20.250
                  -2520880.181 5  -1964321.603 5  23043274.852    23043276.012
        11.000           9.500
 95  4 28 14 57 15.0000000  0  8G14G18G19G22G27G28G29G31
                   1365760.101 4   1064228.276 5  24080568.414    24080570.883
         6.250           5.250
                   -825751.017 7   -643442.001 6  20315214.719    20315215.125
        22.750          19.750
                  -1145352.991 6   -892482.556 6  21374999.641    21375000.992
        16.500          18.250
                   3412514.638 5   2659101.496 5  24061496.195    24061497.617
         9.250           8.500
                  -2187550.282 4  -1704583.874 5  23866670.820    23866671.949
         7.000           8.000
                   -829048.253 5   -646010.555 5  23270562.031    23270562.113
        11.750          10.750
                    743396.722 7    579270.160 6  20703059.938    20703060.113
        20.250          20.250
                  -2558223.412 5  -1993420.208 5  23036168.750    23036169.809
        11.000           9.500
 95  4 28 14 57 30.0000000  0  7G18G19G22G27G28G29G31
                   -834653.780 7   -650379.213 6  20313520.391    20313521.000
        22.750          19.500
                  -1161161.131 6   -904800.582 6  21371991.570    21371993.000
        16.500          18.250
                   3466577.092 5   2701228.068 5  24071783.563    24071785.781
         8.750           8.500
                  -2220643.798 4  -1730371.013 5  23860373.242    23860374.984
         7.000           8.000
                   -837485.048 6   -652584.675 5  23268956.555    23268956.535
        12.000          10.250
                    758753.308 6    591236.328 6  20705982.180    20705982.387
        19.750          20.000
                  -2595467.190 5  -2022441.326 5  23029081.234    23029082.434
        11.000           9.500
 95  4 28 14 57 45.0000000  0  8G14G18G19G22G27G28G29G31
                     53466.239 3     41661.81215  24102361.508    24102364.199
         6.000           5.250
                   -843400.295 7   -657194.676 6  20311856.016    20311856.277
        22.750          19.500
                  -1176871.588 6   -917042.491 6  21369001.945    21369003.215
        16.750          18.250
                   3520718.013 5   2743415.785 5  24082086.578    24082087.578
         9.000           7.750
                  -2253673.848 4  -1756108.710 5  23854088.063    23854089.316
         7.000           8.250
                   -845753.833 6   -659027.880 5  23267383.094    23267383.242
        12.000          10.750
                    774259.179 7    603318.820 6  20708932.875    20708933.121
        20.000          20.250
                  -2632612.425 5  -2051385.658 5  23022012.906    23022013.719
        11.000           9.750
 95  4 28 14 58  0.0000000  0  8G14G18G19G22G27G28G29G31
                    110812.536 3     86347.210 5  24113274.391    24113277.047
         6.000           5.250
                   -851984.358 7   -663883.554 6  20310222.555    20310222.750
        22.750          19.250
                  -1192479.166 6   -929204.231 6  21366032.055    21366033.305
        16.750          18.250
                   3574945.070 5   2785670.630 5  24092405.992    24092406.934
         8.750           7.750
                  -2286635.030 4  -1781792.723 5  23847815.344    23847817.359
         7.000           8.500
                   -853848.526 6   -665335.429 5  23265842.688    23265842.938
        12.000          10.750
                    789918.492 7    615520.879 6  20711912.703    20711913.117
        20.000          20.500
                  -2669650.093 5  -2080246.164 5  23014964.781    23014966.051
        11.000          10.000
 95  4 28 14 58 15.0000000  0  8G14G18G19G22G27G28G29G31
                    168223.024 3    131082.635 5  24124198.930    24124202.234
         5.750           5.750
                   -860401.522 7   -670442.378 6  20308620.664    20308620.973
        23.000          19.250
                  -1207977.248 6   -941280.653 6  21363082.813    21363084.039
        16.750          18.250
                   3629262.818 5   2827996.131 5  24102741.992    24102743.316
         8.500           7.750
                  -2319521.143 4  -1807418.249 5  23841557.805    23841559.203
         7.250           8.250
                   -861761.276 6   -671501.203 5  23264336.875    23264337.180
        12.250          10.750
                    805739.654 6    627849.054 6  20714923.469    20714924.000
        19.750          21.000
                  -2706572.483 5  -2109016.843 5  23007938.531    23007939.852
        11.000          10.000
 95  4 28 14 58 30.0000000  0  8G14G18G19G22G27G28G29G31
                    225691.044 3    175862.870 5  24135134.617    24135138.004
         5.500           6.000
                   -868660.391 7   -676877.861 6  20307049.172    20307049.371
        23.000          19.000
                  -1223375.771 6   -953279.495 6  21360152.438    21360153.656
        16.750          18.250
                   3683659.221 5   2870382.910 5  24113093.336    24113095.320
         8.250           8.250
                  -2352342.435 4  -1832993.271 5  23835311.688    23835313.145
         7.000           8.000
                   -869498.433 5   -677530.141 5  23262864.203    23262865.242
        11.750          11.000
                    821716.638 7    640298.652 6  20717963.742    20717964.379
        20.000          21.000
                  -2743385.698 5  -2137702.454 5  23000933.695    23000934.781
        11.000           9.750
 95  4 28 14 58 45.0000000  0  8G14G18G19G22G27G28G29G31
                    283214.238 3    220686.114 5  24146081.070    24146083.820
         5.500           5.250
                   -876763.903 7   -683192.284 6  20305507.156    20305507.449
        23.000          19.000
                  -1238679.105 6   -965204.172 6  21357240.547    21357241.438
        17.000          18.000
                   3738131.039 5   2912828.474 5  24123458.719    24123459.965
         8.000           7.750
                  -2385105.008 4  -1858522.527 5  23829077.625    23829078.637
         7.250           8.250
                   -877062.449 5   -683424.169 5  23261424.953    23261425.840
        11.750          11.000
                    837847.513 7    652868.155 6  20721033.313    20721033.992
        20.000          21.000
                  -2780089.085 5  -2166302.488 5  22993949.172    22993950.148
        11.250           9.750
 95  4 28 14 59  0.0000000  0  8G14G18G19G22G27G28G29G31
                    340791.042 3    265551.135 5  24157037.430    24157040.188
         5.250           5.250
                   -884713.365 7   -689386.664 6  20303994.547    20303994.734
        23.000          19.000
                  -1253889.940 6   -977056.761 6  21354345.523    21354346.891
        16.500          18.250
                   3792675.428 5   2955330.577 5  24133838.875    24133839.848
         8.500           8.250
                  -2417812.977 4  -1884009.243 5  23822852.984    23822854.555
         7.000           8.000
                   -884455.163 6   -689184.723 5  23260018.313    23260019.219
        12.000          11.000
                    854128.002 7    665554.247 6  20724131.203    20724131.898
        20.000          21.000
                  -2816680.784 5  -2194815.493 5  22986986.000    22986987.250
        11.500          10.000
 95  4 28 14 59 15.0000000  0  8G14G18G19G22G27G28G29G31
                    398433.175 3    310467.055 5  24168006.461    24168009.461
         5.000           5.750
                   -892493.413 7   -695449.035 6  20302514.008    20302514.172
        23.000          18.750
                  -1268996.810 6   -988828.342 6  21351471.086    21351472.258
        16.500          18.000
                   3847306.225 5   2997900.015 5  24144234.398    24144235.770
         7.750           8.000
                  -2450447.547 4  -1909438.763 5  23816643.086    23816644.512
         7.000           8.000
                   -891660.956 6   -694799.626 5  23258647.117    23258647.695
        12.250          10.750
                    870576.489 7    678371.248 6  20727261.461    20727262.082
        20.000          21.000
                  -2853144.137 5  -2223228.477 5  22980046.969    22980048.613
        11.000          10.000
 95  4 28 14 59 30.0000000  0  8G14G18G19G22G27G28G29G31
                    456123.560 3    355420.549 5  24178984.938    24178987.523
         5.000           6.000
                   -900117.366 7   -701389.778 6  20301063.211    20301063.328
        23.250          18.750
                  -1284014.884 6  -1000530.730 6  21348613.078    21348614.383
        16.750          18.000
                   3902008.906 5   3040525.458 5  24154644.156    24154645.422
         8.000           8.250
                  -2483020.900 4  -1934820.579 5  23810444.555    23810446.039
         7.000           8.250
                   -898692.064 6   -700278.413 5  23257309.117    23257309.793
        12.250          10.750
                    887182.766 7    691311.202 6  20730421.609    20730422.117
        20.250          20.750
                  -2889490.909 5  -2251550.627 5  22973130.617    22973132.156
        11.250          10.250
 95  4 28 14 59 45.0000000  0  8G14G18G19G22G27G28G29G31
                    513855.560 3    400406.492 5  24189971.063    24189973.684
         5.250           6.000
                   -907589.473 7   -707212.198 6  20299641.391    20299641.469
        23.250          18.500
                  -1298952.107 6  -1012170.112 6  21345770.906    21345772.059
        17.000          18.250
                   3956776.419 5   3083201.437 5  24165066.281    24165067.195
         8.250           8.250
                  -2515538.459 4  -1960158.914 5  23804256.555    23804258.313
         7.000           8.250
                   -905553.651 6   -705625.097 5  23256003.344    23256004.313
        12.000          11.000
                    903942.038 7    704370.373 6  20733610.922    20733611.445
        20.250          21.000
                  -2925724.960 5  -2279784.943 5  22966235.781    22966236.641
        11.250          10.000
 95  4 28 15  0  0.0000000  0  8G14G18G19G22G27G28G29G31
                    571640.997 3    445434.076 5  24200967.617    24200969.539
         5.250           5.750
                   -914898.538 7   -712907.574 6  20298250.500    20298250.348
        23.250          18.250
                  -1313800.368 6  -1023740.179 6  21342945.266    21342946.508
        17.000          18.250
                   4011619.484 5   3125936.254 5  24175502.359    24175504.016
         7.750           8.500
                  -2547986.201 4  -1985442.859 5  23798082.109    23798083.723
         7.000           8.250
                   -912233.176 5   -710829.918 5  23254732.172    23254733.148
        11.750          11.000
                    920866.361 7    717558.153 6  20736831.328    20736831.871
        20.250          21.000
                  -2961831.935 5  -2307920.247 5  22959364.484    22959365.770
        11.250          10.250
 95  4 28 15  0 15.0000000  0  8G14G18G19G22G27G28G29G31
                    629482.872 3    490505.635 5  24211974.070    24211976.777
         5.250           6.000
                   -922045.738 7   -718476.820 6  20296890.344    20296890.379
        23.250          18.250
                  -1328559.955 6  -1035241.152 6  21340136.555    21340137.789
        17.000          18.250
                   4066538.899 5   3168730.591 5  24185953.313    24185954.254
         7.750           8.000
                  -2580361.843 4  -2010670.616 5  23791920.914    23791922.586
         7.000           8.250
                   -918728.454 5   -715891.166 5  23253496.117    23253497.180
        11.750          11.000
                    937959.596 7    730877.552 6  20740084.055    20740084.742
        20.000          21.000
                  -2997811.909 5  -2335956.572 5  22952517.906    22952519.258
        11.000          10.500
 95  4 28 15  0 30.0000000  0  8G14G18G19G22G27G28G29G31
                    687376.809 3    535617.760 5  24222990.820    24222994.008
         5.500           6.750
                   -929032.555 7   -723921.093 6  20295560.883    20295560.945
        23.000          18.250
                  -1343233.902 6  -1046675.386 6  21337344.273    21337345.488
        17.000          18.250
                   4121532.563 5   3211582.760 5  24196418.461    24196419.078
         8.000           8.000
                  -2612669.933 4  -2035845.724 5  23785773.039    23785774.711
         7.000           8.250
                   -925041.197 5   -720810.181 5  23252294.891    23252295.816
        11.750          10.750
                    955221.581 7    744328.447 6  20743368.859    20743369.555
        20.250          21.000
                  -3033668.773 5  -2363896.975 5  22945694.617    22945695.984
        11.000          10.750
 95  4 28 15  0 45.0000000  0  8G14G18G19G22G27G28G29G31
                    745326.826 3    580773.581 5  24234018.766    24234021.883
         5.750           7.000
                   -935852.909 7   -729235.655 6  20294263.047    20294263.055
        23.000          18.250
                  -1357817.539 6  -1058039.258 6  21334569.117    21334570.180
        17.000          18.250
                   4176607.379 5   3254498.215 5  24206898.789    24206899.660
         8.000           8.250
                  -2644905.395 4  -2060964.254 5  23779639.188    23779640.281
         7.000           7.750
                   -931167.216 6   -725583.701 5  23251129.398    23251130.008
        12.000          10.750
                    972657.865 7    757915.158 6  20746687.008    20746687.602
        20.250          21.250
                  -3069395.095 5  -2391735.658 5  22938895.836    22938897.363
        11.000          10.750
 95  4 28 15  1  0.0000000  0  7G18G19G22G27G28G29G31
                   -942511.405 7   -734424.092 6  20292995.914    20292996.078
        23.000          18.250
                  -1372311.459 6  -1069333.210 6  21331810.914    21331812.016
        17.250          18.000
                   4231759.887 5   3297474.154 5  24217394.195    24217395.746
         8.250           9.000
                  -2677072.348 4  -2086029.401 5  23773517.414    23773519.285
         7.000           7.750
                   -937110.799 5   -730215.065 5  23249998.258    23249998.879
        11.750          10.500
                    990264.394 7    771634.526 6  20750037.484    20750038.047
        20.250          21.250
                  -3104993.345 5  -2419474.534 5  22932121.914    22932123.332
        11.000          10.750
 95  4 28 15  1 15.0000000  0  8G14G18G19G22G27G28G29G31
                      7736.66113      6028.25615  24256099.070    24256101.742
         5.250           6.000
                   -949016.571 7   -739493.049 6  20291757.891    20291758.059
        23.000          18.250
                  -1386722.996 6  -1080562.971 6  21329068.625    21329069.453
        17.250          18.000
                   4286981.184 5   3340503.722 5  24227902.039    24227902.918
         7.500           8.000
                  -2709176.042 4  -2111045.247 5  23767408.648    23767409.977
         7.000           7.750
                   -942880.188 5   -734710.693 5  23248900.219    23248900.945
        11.750          10.500
                   1008031.935 7    785479.355 6  20753418.438    20753419.055
        20.250          21.250
                  -3140474.938 5  -2447122.516 5  22925369.781    22925371.457
        11.000          10.750
 95  4 28 15  1 30.0000000  0  8G14G18G19G22G27G28G29G31
                     65823.818 3     51290.953 5  24267152.664    24267155.590
         5.750           6.250
                   -955356.013 7   -744432.874 6  20290551.617    20290551.723
        23.000          18.250
                  -1401036.991 6  -1091716.725 6  21326344.844    21326345.793
        17.250          18.000
                   4342284.221 5   3383596.979 5  24238425.656    24238427.195
         7.500           7.750
                  -2741203.571 4  -2136001.757 5  23761314.008    23761314.969
         7.000           7.500
                   -948462.702 5   -739060.695 5  23247837.836    23247839.141
        11.500          10.750
                   1025973.494 6    799459.791 6  20756832.383    20756833.141
        19.750          21.000
                  -3175828.694 5  -2474670.882 5  22918642.414    22918644.262
        11.250          10.750
 95  4 28 15  1 45.0000000  0  8G14G18G19G22G27G28G29G31
                    123954.100 3     96587.235 5  24278214.750    24278217.746
         5.750           6.750
                   -961537.913 7   -749249.940 6  20289375.172    20289375.375
        23.000          18.250
                  -1415260.862 6  -1102800.256 6  21323637.906    21323638.953
        17.250          18.000
                   4397658.928 5   3426746.083 5  24248963.406    24248964.727
         7.750           8.000
                  -2773167.061 4  -2160908.359 5  23755231.555    23755232.930
         7.000           7.750
                   -953868.703 5   -743273.165 5  23246808.961    23246810.648
        11.250          11.000
                   1044077.404 6    813566.730 6  20760277.477    20760278.164
        19.750          20.750
                  -3211065.133 5  -2502127.841 5  22911936.938    22911938.480
        11.500          10.750
 95  4 28 15  2  0.0000000  0  7G18G19G22G27G28G29G31
                   -967549.097 7   -753933.979 6  20288231.289    20288231.668
        23.000          18.500
                  -1429380.434 6  -1113802.512 6  21320951.156    21320951.984
        17.500          18.000
                   4453117.247 5   3469960.331 5  24259516.102    24259518.227
         7.500           7.750
                  -2805054.115 4  -2185755.400 5  23749163.141    23749165.504
         6.750           7.750
                   -959086.481 5   -747338.955 5  23245816.336    23245817.742
        11.500          11.500
                   1062354.644 6    827808.732 6  20763755.555    20763756.137
        19.500          21.000
                  -3246174.144 5  -2529485.497 5  22905255.922    22905257.254
        11.500          10.500
 95  4 28 15  2 15.0000000  0  7G18G19G22G27G28G29G31
                   -973395.888 7   -758489.920 6  20287118.703    20287119.191
        23.000          18.750
                  -1443398.799 6  -1124725.907 6  21318283.398    21318284.344
        17.500          18.000
                   4508653.086 5   3513234.994 5  24270085.086    24270085.895
         8.250           7.500
                  -2836871.387 4  -2210548.061 5  23743108.758    23743110.629
         6.750           7.750
                   -964122.306 5   -751262.963 5  23244858.352    23244859.711
        11.750          11.500
                   1080797.144 6    842179.511 6  20767265.000    20767265.652
        19.500          21.000
                  -3281165.030 5  -2556751.109 5  22898597.242    22898598.645
        11.500          10.500
 95  4 28 15  2 30.0000000  0  7G18G19G22G27G28G29G31
                   -979078.342 7   -762917.803 6  20286037.320    20286037.789
        22.750          18.750
                  -1457317.153 6  -1135571.372 6  21315635.094    21315635.949
        17.750          18.000
                   4564261.104 5   3556565.896 5  24280666.633    24280668.371
         7.750           7.500
                  -2868622.859 4  -2235289.463 5  23737066.563    23737068.246
         7.000           7.500
                   -968980.418 6   -755048.505 5  23243934.086    23243935.086
        12.000          11.500
                   1099400.435 6    856675.579 6  20770805.211    20770805.977
        19.500          21.250
                  -3316042.633 5  -2583928.460 5  22891960.445    22891961.836
        11.750          10.500
 95  4 28 15  2 45.0000000  0  7G18G19G22G27G28G29G31
                   -984591.102 7   -767213.457 6  20284988.406    20284988.965
        22.500          18.500
                  -1471132.515 6  -1146336.585 6  21313006.063    21313006.953
        17.250          17.750
                   4619943.867 5   3599955.053 5  24291262.945    24291264.008
         8.000           7.000
                  -2900303.563 4  -2259975.719 5  23731038.148    23731039.672
         7.000           7.250
                   -973657.288 5   -758692.807 5  23243043.656    23243045.199
        11.750          11.250
                   1118165.420 6    871297.643 6  20774376.141    20774376.750
        19.500          21.250
                  -3350801.389 6  -2611013.191 5  22885346.258    22885347.801
        12.000          10.750
 95  4 28 15  3  0.0000000  0  7G18G19G22G27G28G29G31
                   -989939.133 7   -771380.754 6  20283970.422    20283971.074
        22.750          18.750
                  -1484847.537 6  -1157023.611 6  21310396.000    21310397.148
        17.500          18.000
                   4675693.962 5   3643396.661 5  24301871.672    24301872.934
         8.000           7.250
                  -2931915.996 4  -2284608.778 5  23725022.695    23725024.090
         7.000           7.500
                   -978157.590 5   -762199.539 5  23242187.375    23242188.902
        11.750          11.500
                   1137084.228 6    886039.569 6  20777976.297    20777977.047
        19.750          21.500
                  -3385446.871 5  -2638009.661 5  22878753.273    22878755.031
        11.750          10.750
 95  4 28 15  3 15.0000000  0  7G18G19G22G27G28G29G31
                   -995118.630 7   -775416.724 6  20282984.773    20282985.355
        22.750          18.750
                  -1498458.156 6  -1167629.285 6  21307805.914    21307807.027
        17.750          18.000
                   4731515.288 5   3686893.786 5  24312493.945    24312495.211
         8.000           7.000
                  -2963455.325 4  -2309184.856 5  23719020.883    23719022.301
         7.250           7.250
                   -982475.554 5   -765564.189 5  23241365.375    23241366.766
        11.500          11.000
                   1156162.421 6    900905.689 6  20781606.789    20781607.449
        19.750          21.500
                  -3419976.836 5  -2664916.114 5  22872182.391    22872183.871
        11.750          10.750
 95  4 28 15  3 30.0000000  0  7G18G19G22G27G28G29G31
                  -1000127.006 7   -779319.353 6  20282031.805    20282032.488
        22.750          19.000
                  -1511967.018 6  -1178155.665 6  21305235.281    21305236.355
        17.500          18.250
                   4787410.317 5   3730448.337 5  24323131.047    24323132.176
         8.750           7.250
                  -2994918.209 4  -2333701.375 5  23713033.172    23713035.246
         7.000           7.250
                   -986611.037 5   -768786.638 5  23240578.617    23240579.934
        11.750          11.250
                   1175401.413 6    915897.106 6  20785267.750    20785268.359
        19.750          21.500
                  -3454389.039 5  -2691730.805 5  22865633.617    22865635.422
        11.500          10.750
 95  4 28 15  3 45.0000000  0  7G18G19G22G27G28G29G31
                  -1004960.583 7   -783085.778 6  20281112.188    20281112.961
        22.750          19.000
                  -1525372.514 6  -1188601.497 6  21302684.430    21302685.578
        17.500          18.250
                   4843384.688 5   3774064.708 5  24333782.469    24333783.629
         8.500           7.000
                  -3026303.233 4  -2358157.233 5  23707060.914    23707062.742
         7.000           7.000
                   -990560.236 6   -771863.934 5  23239827.250    23239828.613
        12.000          11.500
                   1194805.979 6    931017.544 6  20788960.352    20788961.094
        19.500          21.500
                  -3488677.036 6  -2718448.711 5  22859109.172    22859110.543
        12.000          10.750
 95  4 28 15  4  0.0000000  0  7G18G19G22G27G28G29G31
                  -1009627.931 7   -786722.668 6  20280223.969    20280224.668
        22.500          18.750
                  -1538683.214 6  -1198973.468 6  21300151.563    21300152.645
        17.750          18.250
                   4899432.476 5   3817738.309 5  24344448.195    24344448.988
         8.750           6.750
                  -3057617.188 4  -2382557.708 5  23701102.078    23701103.770
         7.000           7.000
                   -994329.541 6   -774801.055 5  23239110.242    23239111.438
        12.250          11.500
                   1214370.255 6    946262.430 6  20792683.172    20792683.914
        19.500          21.250
                  -3522846.450 5  -2745074.213 5  22852606.828    22852608.688
        11.750          10.750
 95  4 28 15  4 15.0000000  0  7G18G19G22G27G28G29G31
                  -1014133.278 7   -790233.324 6  20279366.531    20279367.195
        22.500          18.750
                  -1551902.439 6  -1209274.153 6  21297635.875    21297636.988
        17.500          18.250
                   4955551.179 5   3861467.142 5  24355127.070    24355127.918
         8.250           6.750
                  -3088861.937 4  -2406904.263 5  23695156.805    23695157.531
         7.000           6.750
                   -997921.007 6   -777599.592 5  23238426.641    23238428.004
        12.250          11.500
                   1234091.388 6    961629.541 6  20796436.188    20796436.902
        19.500          21.500
                  -3556894.865 5  -2771605.433 5  22846127.578    22846129.227
        11.750          10.750
 95  4 28 15  4 30.0000000  0  7G18G19G22G27G28G29G31
                  -1018474.950 7   -793616.445 6  20278540.289    20278540.773
        22.500          18.500
                  -1565027.527 6  -1219501.488 6  21295138.305    21295139.367
        17.750          18.250
                   5011743.784 5   3905253.573 5  24365819.961    24365821.547
         8.250           7.000
                  -3120036.249 4  -2431195.936 5  23689224.602    23689225.926
         7.250           7.000
                  -1001331.851 6   -780257.393 5  23237777.508    23237778.742
        12.250          11.250
                   1253971.761 6    977120.738 6  20800219.203    20800220.000
        19.500          21.500
                  -3590815.382 6  -2798036.985 5  22839672.695    22839674.246
        12.000          10.750
 95  4 28 15  4 45.0000000  0  7G18G19G22G27G28G29G31
                  -1022653.407 7   -796872.387 6  20277745.242    20277745.734
        22.750          18.250
                  -1578062.223 6  -1229658.388 6  21292657.930    21292658.957
        17.750          18.250
                   5068009.157 5   3949096.683 5  24376527.539    24376528.691
         8.500           7.000
                  -3151139.908 4  -2455432.533 5  23683305.250    23683306.559
         7.000           6.750
                  -1004561.268 6   -782773.820 5  23237162.836    23237164.254
        12.000          11.000
                   1274014.158 6    992738.183 6  20804032.883    20804033.793
        19.250          21.500
                  -3624604.217 6  -2824365.937 5  22833242.992    22833244.434
        12.250          10.500
 95  4 28 15  5  0.0000000  0  7G18G19G22G27G28G29G31
                  -1026672.710 7   -800004.310 6  20276980.422    20276980.801
        22.750          18.250
                  -1591004.923 6  -1239743.604 6  21290194.906    21290196.148
        17.750          18.500
                   5124349.487 5   3992998.238 5  24387248.117    24387248.902
         8.000           6.500
                  -3182173.747 4  -2479614.734 5  23677400.148    23677400.832
         7.250           7.000
                  -1007607.746 6   -785147.693 5  23236583.070    23236584.281
        12.250          11.000
                   1294220.543 6   1008483.412 6  20807878.273    20807879.176
        19.250          21.750
                  -3658256.647 6  -2850588.595 5  22826839.070    22826840.480
        12.250          10.750
 95  4 28 15  5 15.0000000  0  7G18G19G22G27G28G29G31
                  -1030534.520 7   -803013.512 6  20276245.563    20276245.785
        22.750          18.000
                  -1603857.186 6  -1249758.349 6  21287749.109    21287750.422
        17.750          18.500
                   5180765.324 5   4036958.610 5  24397983.828    24397985.445
         7.750           7.000
                  -3213140.747 4  -2503744.850 5  23671507.063    23671508.496
         7.250           7.000
                  -1010472.222 6   -787379.746 5  23236037.852    23236039.113
        12.000          11.000
                   1314592.123 6   1024357.367 6  20811754.688    20811755.766
        19.000          21.750
                  -3691770.409 6  -2876703.204 5  22820461.961    22820463.414
        12.250          10.750
 95  4 28 15  5 30.0000000  0  7G18G19G22G27G28G29G31
                  -1034242.128 7   -805902.555 6  20275540.109    20275540.281
        22.750          18.000
                  -1616627.805 6  -1259709.476 6  21285318.938    21285320.266
        17.500          18.500
                   5237253.059 4   4080974.994 5  24408732.984    24408734.395
         7.250           6.250
                  -3244047.534 4  -2527828.037 5  23665625.922    23665627.238
         7.250           7.000
                  -1013161.192 6   -789475.045 5  23235526.281    23235527.527
        12.000          11.000
                   1335122.583 6   1040355.116 6  20815661.578    20815662.602
        19.000          21.500
                  -3725149.034 6  -2902712.511 5  22814110.133    22814111.617
        12.250          10.750
 95  4 28 15  5 45.0000000  0  7G18G19G22G27G28G29G31
                  -1037791.008 7   -808667.915 6  20274864.820    20274865.031
        22.750          18.000
                  -1629312.312 6  -1269593.506 6  21282905.156    21282906.258
        17.750          18.500
                   5293817.046 4   4125050.830 5  24419496.586    24419498.355
         7.000           6.250
                  -3274892.429 4  -2551863.009 5  23659756.242    23659757.398
         7.250           7.000
                  -1015671.116 6   -791430.827 5  23235048.695    23235049.465
        12.250          10.750
                   1355812.683 6   1056477.264 6  20819599.000    20819599.801
        19.250          21.750
                  -3758390.059 6  -2928614.593 5  22807784.250    22807785.875
        12.000          11.000
 95  4 28 15  6  0.0000000  0  6G18G19G27G28G29G31
                  -1041194.864 7   -811320.269 6  20274217.016    20274217.020
        23.000          18.000
                  -1641923.152 6  -1279420.131 6  21280505.383    21280506.574
        17.750          18.500
                  -3305691.919 4  -2575862.594 5  23653894.805    23653896.969
         7.000           7.250
                  -1018015.328 6   -793257.481 5  23234602.633    23234603.461
        12.250          10.750
                   1376645.370 6   1072710.519 6  20823563.180    20823564.031
        19.500          21.750
                  -3791509.661 6  -2954422.055 5  22801481.961    22801483.500
        12.000          11.000
 95  4 28 15  6 15.0000000  0  6G18G19G27G28G29G31
                  -1044418.059 7   -813831.851 6  20273603.859    20273603.938
        23.250          18.000
                  -1654425.535 6  -1289162.245 6  21278126.414    21278127.465
        18.000          18.500
                  -3336410.849 5  -2599799.422 5  23648049.695    23648050.727
         7.500           7.500
                  -1020160.113 6   -794928.741 5  23234194.531    23234195.477
        12.250          11.000
                   1397652.349 6   1089079.584 6  20827560.852    20827561.699
        19.500          21.750
                  -3824473.366 5  -2980108.039 5  22795209.109    22795210.492
        11.750          11.000
 95  4 28 15  6 30.0000000  0  6G18G19G27G28G29G31
                  -1047466.418 7   -816207.194 6  20273023.703    20273023.957
        23.000          18.000
                  -1666829.059 6  -1298827.326 6  21275766.070    21275767.191
        18.000          18.500
                  -3367054.842 5  -2623677.840 5  23642218.063    23642219.566
         7.500           7.500
                  -1022113.449 6   -796450.816 5  23233822.656    23233823.953
        12.000          11.000
                   1418823.434 6   1105576.531 6  20831589.539    20831590.266
        19.500          21.750
                  -3857289.518 5  -3005679.053 5  22788964.500    22788965.707
        11.750          10.750
 95  4 28 15  6 45.0000000  0  6G18G19G27G28G29G31
                  -1050346.263 7   -818451.227 6  20272475.617    20272476.098
        23.000          18.000
                  -1679143.510 6  -1308422.993 6  21273422.781    21273423.957
        17.750          18.500
                  -3397631.747 5  -2647503.987 5  23636399.711    23636400.844
         7.750           7.500
                  -1023883.885 5   -797830.367 5  23233485.633    23233486.758
        11.750          11.000
                   1440152.682 6   1122196.718 6  20835648.359    20835649.098
        19.500          21.750
                  -3889969.146 5  -3031143.683 5  22782745.359    22782746.648
        11.750          10.500
 95  4 28 15  7  0.0000000  0  6G18G19G27G28G29G31
                  -1053048.128 7   -820556.580 6  20271961.539    20271962.020
        23.000          18.250
                  -1691359.785 6  -1317942.168 6  21271097.867    21271099.039
        17.750          18.250
                  -3428133.256 5  -2671271.388 5  23630595.492    23630596.898
         7.750           7.500
                  -1025462.636 5   -799060.559 5  23233185.195    23233186.402
        11.750          11.000
                   1461647.954 6   1138946.273 6  20839738.789    20839739.668
        19.500          21.750
                  -3922502.959 6  -3056494.689 5  22776554.594    22776555.957
        12.000          10.750
 95  4 28 15  7 15.0000000  0  6G18G19G27G28G29G31
                  -1055569.349 7   -822521.164 6  20271481.680    20271482.270
        23.000          18.250
                  -1703477.470 6  -1327384.514 6  21268791.961    21268793.109
        17.750          18.250
                  -3458560.265 5  -2694980.732 5  23624805.336    23624806.559
         7.750           7.750
                  -1026852.508 5   -800143.564 5  23232920.750    23232921.766
        11.750          11.000
                   1483305.256 6   1155822.091 6  20843859.984    20843860.922
        19.500          21.750
                  -3954896.628 6  -3081736.486 5  22770390.656    22770391.941
        12.500          11.000
 95  4 28 15  7 30.0000000  0  6G18G19G27G28G29G31
                  -1057913.308 7   -824347.626 6  20271035.609    20271036.398
        23.000          18.250
                  -1715503.806 6  -1336755.682 6  21266503.648    21266504.816
        17.750          18.500
                  -3488917.339 5  -2718635.583 5  23619028.695    23619030.320
         8.000           8.250
                  -1028061.114 6   -801085.325 5  23232690.992    23232691.992
        12.000          11.000
                   1505115.936 6   1172817.416 6  20848010.438    20848011.320
        19.250          21.750
                  -3987164.829 6  -3106880.521 5  22764250.063    22764251.105
        12.500          11.000
 95  4 28 15  7 45.0000000  0  6G18G19G27G28G29G31
                  -1060073.319 7   -826030.752 6  20270624.625    20270625.203
        23.000          18.250
                  -1727429.848 6  -1346048.701 6  21264234.078    21264235.242
        17.750          18.500
                  -3519196.396 5  -2742229.633 5  23613266.797    23613268.531
         7.750           8.500
                  -1029080.639 6   -801879.757 5  23232496.938    23232497.547
        12.000          10.750
                   1527087.525 6   1189938.134 6  20852191.477    20852192.398
        19.250          21.750
                  -4019303.583 6  -3131923.694 5  22758134.133    22758135.156
        12.250          11.000
 95  4 28 15  8  0.0000000  0  6G18G19G27G28G29G31
                  -1062056.852 7   -827576.360 6  20270247.227    20270247.961
        22.750          18.000
                  -1739258.298 6  -1355265.666 6  21261983.250    21261984.426
        17.750          18.500
                  -3549402.386 5  -2765766.753 5  23607518.367    23607520.285
         7.750           8.500
                  -1029914.726 5   -802529.686 5  23232338.273    23232338.672
        11.750          10.750
                   1549215.937 6   1207181.044 6  20856402.469    20856403.145
        19.000          21.250
                  -4051316.355 6  -3156868.694 5  22752042.422    22752043.223
        12.500          10.750
 95  4 28 15  8 15.0000000  0  6G18G19G27G28G29G31
                  -1063866.967 7   -828986.842 6  20269902.633    20269903.492
        22.750          18.250
                  -1750991.826 6  -1364408.669 6  21259750.344    21259751.590
        17.750          18.750
                  -3579535.979 5  -2789247.451 5  23601784.539    23601786.023
         8.000           8.750
                  -1030565.635 5   -803036.880 5  23232214.023    23232214.973
        11.500          11.000
                   1571501.796 6   1224546.644 6  20860643.148    20860644.070
        19.250          21.250
                  -4083201.037 6  -3181713.892 5  22745974.945    22745975.910
        12.750          11.000
 95  4 28 15  8 30.0000000  0  6G18G19G27G28G29G31
                  -1065513.012 7   -830269.473 6  20269589.313    20269590.258
        22.750          18.250
                  -1762638.002 6  -1373483.612 6  21257534.234    21257535.336
        17.750          18.500
                  -3609602.469 5  -2812675.866 5  23596062.789    23596064.629
         7.750           9.000
                  -1031039.683 5   -803406.261 5  23232123.969    23232125.148
        11.500          11.500
                   1593942.613 6   1242032.988 6  20864913.516    20864914.422
        19.250          21.500
                  -4114963.033 6  -3206463.481 5  22739930.898    22739932.289
        12.500          11.500
 95  4 28 15  8 45.0000000  0  6G18G19G27G28G29G31
                  -1066995.340 7   -831424.536 6  20269307.086    20269307.875
        22.750          18.250
                  -1774195.118 6  -1382489.152 6  21255335.086    21255336.086
        17.750          18.750
                  -3639601.974 5  -2836052.091 5  23590354.273    23590355.957
         8.250           8.750
                  -1031334.994 5   -803636.365 5  23232067.656    23232068.828
        11.750          11.500
                   1616544.690 6   1259644.991 6  20869214.398    20869215.414
        19.500          21.750
                  -4146602.293 6  -3231117.436 5  22733909.898    22733911.348
        12.250          11.500
 95  4 28 15  9  0.0000000  0  6G18G19G27G28G29G31
                  -1068315.528 7   -832453.248 6  20269056.078    20269056.910
        22.750          18.250
                  -1785659.524 6  -1391422.455 6  21253153.523    21253154.480
        17.750          18.750
                  -3669537.807 5  -2859378.694 5  23584657.570    23584659.348
         8.250           8.500
                  -1031452.198 5   -803727.686 5  23232045.688    23232046.262
        11.750          11.250
                   1639307.029 6   1277381.870 6  20873546.195    20873547.086
        19.500          21.750
                  -4178118.136 6  -3255675.210 5  22727912.406    22727914.016
        12.250          11.500
 95  4 28 15  9 15.0000000  0  6G18G19G27G28G29G31
                  -1069485.217 7   -833364.697 6  20268833.508    20268834.160
        22.750          18.000
                  -1797041.150 6  -1400291.249 6  21250987.500    21250988.625
        17.750          18.750
                  -3699420.080 5  -2882663.571 5  23578971.336    23578972.793
         8.500           8.750
                  -1031401.063 6   -803687.831 5  23232055.656    23232055.875
        12.250          11.000
                   1662216.859 6   1295233.675 6  20877905.875    20877906.621
        19.750          21.500
                  -4209521.997 6  -3280145.742 5  22721936.648    22721937.410
        12.250          11.000
 95  4 28 15  9 30.0000000  0  6G18G19G27G28G29G31
                  -1070499.120 7   -834154.752 6  20268640.734    20268641.258
        22.750          18.000
                  -1808331.974 6  -1409089.290 6  21248838.945    21248840.191
        17.750          18.750
                  -3729239.339 5  -2905899.337 5  23573297.000    23573298.422
         8.500           8.750
                  -1031172.695 6   -803509.880 5  23232098.914    23232099.453
        12.000          11.000
                   1685281.917 6   1313206.446 6  20882295.156    20882295.863
        19.750          21.250
                  -4240807.754 6  -3304524.243 5  22715983.133    22715984.160
        12.250          11.000
 95  4 28 15  9 45.0000000  0  6G18G19G27G28G29G31
                  -1071359.869 7   -834825.465 6  20268476.813    20268477.305
        22.750          17.750
                  -1819530.726 6  -1417815.583 6  21246707.906    21246709.109
        17.750          18.750
                  -3758997.586 5  -2929087.568 5  23567633.945    23567635.473
         8.500           9.000
                  -1030765.576 6   -803192.644 5  23232176.602    23232176.859
        12.250          11.000
                   1708503.787 6   1331301.408 6  20886713.961    20886714.621
        19.750          21.250
                  -4271969.209 6  -3328805.878 5  22710053.180    22710054.465
        12.250          11.500
 95  4 28 15 10  0.0000000  0  6G18G19G27G28G29G31
                  -1072064.851 7   -835374.799 6  20268342.633    20268343.211
        23.000          17.750
                  -1830635.257 6  -1426468.462 6  21244594.852    21244595.918
        17.750          18.750
                  -3788691.987 5  -2952226.054 5  23561983.063    23561984.797
         8.250           9.250
                  -1030176.563 6   -802733.674 5  23232288.844    23232288.969
        12.250          11.000
                   1731885.276 6   1349520.743 6  20891163.289    20891164.082
        19.500          21.250
                  -4302998.064 6  -3352984.185 5  22704148.422    22704149.895
        12.250          11.750
 95  4 28 15 10 15.0000000  0  6G18G19G27G28G29G31
                  -1072614.552 7   -835803.138 6  20268238.258    20268238.625
        23.000          17.750
                  -1841649.802 6  -1435051.221 6  21242498.969    21242499.949
        18.250          18.750
                  -3818323.879 5  -2975315.821 5  23556344.344    23556346.301
         8.500           9.500
                  -1029407.640 6   -802134.509 5  23232434.891    23232435.355
        12.000          11.000
                   1755425.141 6   1367863.491 6  20895642.742    20895643.559
        19.500          21.250
                  -4333895.870 6  -3377060.378 5  22698269.039    22698270.207
        12.500          11.750
 95  4 28 15 10 30.0000000  0  6G18G19G27G28G29G31
                  -1073014.526 7   -836114.803 6  20268162.055    20268162.465
        23.000          17.750
                  -1852581.447 6  -1443569.378 6  21240418.516    21240419.590
        18.000          18.750
                  -3847899.208 5  -2998361.505 5  23550716.492    23550717.738
         8.500           9.250
                  -1028466.336 5   -801401.024 5  23232613.953    23232614.500
        11.750          11.500
                   1779118.320 6   1386325.703 6  20900151.398    20900152.195
        19.500          21.250
                  -4364672.469 6  -3401042.134 5  22692412.664    22692413.434
        12.750          11.500
 95  4 28 15 10 45.0000000  0  6G18G19G27G28G29G31
                  -1073264.692 7   -836309.744 6  20268114.406    20268114.656
        23.000          17.500
                  -1863431.095 6  -1452023.649 6  21238353.859    21238354.988
        17.750          18.750
                  -3877421.238 5  -3021365.677 5  23545098.875    23545100.402
         8.500           9.250
                  -1027355.640 5   -800535.544 5  23232825.328    23232826.141
        11.750          11.750
                   1802960.095 6   1404903.704 6  20904688.328    20904689.191
        19.500          21.250
                  -4395332.098 6  -3424932.744 5  22686578.219    22686579.152
        13.000          11.750
 95  4 28 15 11  0.0000000  0  6G18G19G27G28G29G31
                  -1073347.165 7   -836374.011 6  20268098.789    20268099.020
        23.250          17.250
                  -1874182.698 6  -1460401.515 6  21236307.969    21236309.227
        18.000          18.750
                  -3906878.220 5  -3044319.149 5  23539493.180    23539494.676
         8.500           9.250
                  -1026061.728 5   -799527.296 5  23233071.570    23233072.500
        11.750          11.750
                   1826958.924 6   1423604.082 6  20909255.078    20909256.133
        19.250          21.250
                  -4425861.066 6  -3448721.539 5  22680768.648    22680769.941
        12.750          11.750
 95  4 28 15 11 15.0000000  0  6G18G19G27G28G29G31
                  -1073274.018 7   -836317.017 6  20268112.641    20268112.770
        23.250          17.250
                  -1884850.818 6  -1468714.332 6  21234277.641    21234278.836
        17.750          18.750
                  -3936282.919 5  -3067231.893 5  23533897.617    23533898.934
         8.500           9.000
                  -1024597.636 5   -798386.443 5  23233350.164    23233350.918
        11.750          11.750
                   1851100.108 6   1442415.392 6  20913848.938    20913849.980
        19.250          21.250
                  -4456272.270 6  -3472418.566 6  22674981.602    22674983.145
        12.500          12.250
 95  4 28 15 11 30.0000000  0  6G18G19G27G28G29G31
                  -1073035.094 7   -836130.844 6  20268158.055    20268158.363
        23.250          17.250
                  -1895429.027 6  -1476957.094 6  21232264.891    21232265.906
        18.000          18.750
                  -3965625.833 5  -3090096.487 5  23528313.375    23528315.422
         8.250           9.000
                  -1022955.033 6   -797106.492 5  23233663.023    23233663.473
        12.000          11.750
                   1875393.901 6   1461345.616 6  20918471.727    20918472.824
        19.000          21.250
                  -4486559.978 6  -3496019.361 5  22669218.125    22669219.223
        12.750          11.750
 95  4 28 15 11 45.0000000  0  6G18G19G27G28G29G31
                  -1072630.668 7   -835815.709 6  20268235.148    20268235.355
        23.500          17.250
                  -1905918.535 6  -1485130.732 6  21230268.906    21230269.805
        18.000          18.750
                  -3994909.773 5  -3112915.129 5  23522740.773    23522742.789
         8.250           9.250
                  -1021136.905 6   -795689.766 5  23234008.992    23234009.535
        12.000          11.750
                   1899840.173 6   1480394.655 6  20923123.859    20923124.820
        19.250          21.000
                  -4516725.924 6  -3519525.282 5  22663477.531    22663478.500
        12.500          11.500
 95  4 28 15 12  0.0000000  0  6G18G19G27G28G29G31
                  -1072060.872 7   -835371.711 6  20268343.602    20268343.816
        23.250          17.250
                  -1916325.283 6  -1493239.883 6  21228288.680    21228289.672
        17.750          18.750
                  -4024138.015 5  -3135690.368 5  23517178.719    23517180.711
         8.000           9.250
                  -1019147.021 6   -794139.209 5  23234387.609    23234388.340
        12.000          11.750
                   1924437.073 6   1499561.066 6  20927804.531    20927805.359
        19.500          20.750
                  -4546772.922 6  -3542938.521 5  22657759.539    22657760.945
        12.250          11.500
 95  4 28 15 12 15.0000000  0  6G18G19G27G28G29G31
                  -1071322.978 7   -834796.732 6  20268483.852    20268484.184
        23.250          17.250
                  -1926647.374 6  -1501283.067 6  21226324.305    21226325.309
        18.000          18.750
                  -4053305.992 5  -3158418.644 5  23511628.266    23511630.145
         7.750           9.250
                  -1016981.794 5   -792452.016 5  23234799.555    23234800.352
        11.750          11.750
                   1949187.564 6   1518847.163 6  20932514.531    20932515.176
        19.750          20.750
                  -4576699.853 6  -3566258.187 5  22652064.813    22652066.098
        12.500          11.500
 95  4 28 15 12 30.0000000  0  6G18G19G27G28G29G31
                  -1070421.900 7   -834094.600 6  20268655.297    20268655.684
        23.250          17.500
                  -1936886.508 6  -1509261.605 6  21224375.875    21224377.074
        17.750          19.000
                  -4082420.450 5  -3181105.221 5  23506088.344    23506090.145
         8.250           9.500
                  -1014645.927 6   -790631.859 5  23235244.086    23235244.605
        12.250          11.750
                   1974088.711 7   1538250.649 6  20937253.148    20937253.773
        20.000          21.000
                  -4606510.152 6  -3589486.984 5  22646392.328    22646393.625
        13.000          11.750
 95  4 28 15 12 45.0000000  0  6G18G19G27G28G29G31
                  -1069354.173 7   -833262.608 6  20268858.742    20268859.293
        23.000          17.750
                  -1947037.671 6  -1517171.601 6  21222444.133    21222445.285
        17.750          19.000
                  -4111477.591 5  -3203747.137 5  23500558.781    23500560.613
         8.250           9.500
                  -1012135.442 6   -788675.640 5  23235722.180    23235722.090
        12.250          11.500
                   1999143.462 7   1557773.831 6  20942021.086    20942021.582
        20.250          21.000
                  -4636196.157 6  -3612618.929 5  22640742.906    22640744.547
        13.000          11.750
 95  4 28 15 13  0.0000000  0  6G18G19G27G28G29G31
                  -1068124.089 7   -832304.099 6  20269092.656    20269093.367
        23.000          17.750
                  -1957108.719 6  -1525019.164 6  21220527.688    21220528.949
        17.750          19.000
                  -4140481.723 5  -3226347.750 5  23495039.523    23495041.508
         7.750           9.500
                  -1009453.220 6   -786585.597 5  23236232.586    23236232.656
        12.500          11.500
                   2024349.017 7   1577414.522 6  20946817.586    20946818.203
        20.250          21.000
                  -4665760.217 6  -3635655.844 5  22635116.914    22635118.195
        13.000          11.500
 95  4 28 15 13 15.0000000  0  6G18G19G27G28G29G31
                  -1066737.372 7   -831223.541 6  20269356.484    20269357.281
        23.000          17.750
                  -1967104.185 6  -1532807.830 6  21218625.469    21218626.820
        17.750          19.000
                  -4169432.243 5  -3248906.577 5  23489530.117    23489532.539
         7.750           9.500
                  -1006600.135 6   -784362.423 5  23236775.273    23236775.988
        12.250          11.750
                   2049704.223 7   1597171.820 6  20951642.438    20951643.035
        20.250          21.000
                  -4695203.327 6  -3658598.518 5  22629514.711    22629515.512
        13.250          11.500
 95  4 28 15 13 30.0000000  0  6G18G19G27G28G29G31
                  -1065198.312 7   -830024.280 6  20269649.359    20269650.121
        23.000          17.750
                  -1977027.892 6  -1540540.583 6  21216737.164    21216738.559
        17.750          19.250
                  -4198327.873 5  -3271422.636 5  23484031.523    23484033.375
         7.500           9.250
                  -1003577.308 6   -782006.976 6  23237350.375    23237351.301
        12.000          12.000
                   2075209.560 7   1617046.103 6  20956495.961    20956496.500
        20.500          21.000
                  -4724525.076 6  -3681446.629 5  22623934.914    22623935.859
        13.250          11.750
 95  4 28 15 13 45.0000000  0  6G18G19G27G28G29G31
                  -1063506.563 7   -828706.035 6  20269971.406    20269971.859
        23.250          17.500
                  -1986877.469 6  -1548215.579 6  21214862.695    21214864.016
        17.750          19.250
                  -4227166.166 5  -3293894.023 5  23478544.031    23478545.445
         7.500           9.250
                  -1000381.838 5   -779517.007 6  23237958.250    23237959.516
        11.750          12.250
                   2100867.436 7   1637039.247 6  20961378.695    20961379.141
        20.500          21.000
                  -4753720.010 6  -3704195.913 6  22618378.828    22618380.457
        13.000          12.250
 95  4 28 15 14  0.0000000  0  6G18G19G27G28G29G31
                  -1061666.516 7   -827272.235 6  20270321.422    20270321.859
        23.250          17.250
                  -1996657.690 6  -1555836.519 6  21213001.734    21213002.895
        17.750          19.000
                  -4255951.686 5  -3316324.277 5  23473065.813    23473068.125
         7.500           9.500
                   -997016.691 5   -776894.811 5  23238598.516    23238599.676
        11.500          11.750
                   2126673.166 7   1657147.603 6  20966289.344    20966289.617
        21.000          20.750
                  -4782786.448 6  -3726845.062 6  22612847.781    22612849.313
        13.000          12.250
 95  4 28 15 14 15.0000000  0  6G18G19G27G28G29G31
                  -1059685.318 7   -825728.444 6  20270698.672    20270699.324
        23.000          17.500
                  -2006373.340 6  -1563407.152 6  21211153.109    21211154.293
        18.000          19.250
                  -4284690.994 5  -3338718.531 5  23467597.359    23467599.020
         7.500           9.500
                   -993486.595 5   -774144.086 6  23239270.258    23239271.340
        11.750          12.000
                   2152621.581 7   1677367.145 6  20971227.242    20971227.469
        21.000          21.000
                  -4811726.942 6  -3749396.090 6  22607340.852    22607341.633
        13.250          12.000
 95  4 28 15 14 30.0000000  0  6G18G19G27G28G29G31
                  -1057551.879 7   -824066.025 6  20271104.688    20271105.383
        23.000          17.500
                  -2016012.295 6  -1570918.018 6  21209318.914    21209320.066
        17.750          19.250
                  -4313374.107 5  -3361068.992 5  23462138.836    23462140.676
         7.500           9.500
                   -989781.645 5   -771257.118 5  23239975.570    23239976.250
        11.750          11.750
                   2178721.959 7   1697705.099 6  20976194.023    20976194.313
        21.000          21.000
                  -4840529.246 6  -3771839.434 5  22601859.422    22601860.469
        13.000          11.750
 95  4 28 15 14 45.0000000  0  6G18G19G27G28G29G31
                  -1055265.306 7   -822284.282 6  20271539.680    20271540.277
        23.000          17.500
                  -2025577.127 6  -1578371.129 6  21207498.703    21207499.809
        18.000          19.250
                  -4342001.974 5  -3383376.411 5  23456691.109    23456693.242
         7.500           9.500
                   -985903.424 5   -768235.133 5  23240713.555    23240714.141
        11.750          11.750
                   2204972.699 7   1718160.217 6  20981189.422    20981189.684
        21.250          21.000
                  -4869194.341 6  -3794175.863 6  22596404.617    22596405.898
        13.250          12.000
 95  4 28 15 15  0.0000000  0  6G18G19G27G28G29G31
                  -1052834.074 7   -820389.816 6  20272002.078    20272002.742
        23.000          17.500
                  -2035080.943 6  -1585776.696 6  21205690.273    21205691.082
        18.000          19.000
                  -4370583.712 5  -3405647.873 5  23451252.492    23451254.156
         7.500           9.500
                   -981861.245 5   -765085.401 5  23241482.617    23241483.289
        11.500          11.750
                   2231361.392 7   1738722.830 6  20986211.047    20986211.500
        21.000          21.250
                  -4897733.403 6  -3816414.078 6  22590974.266    22590975.453
        13.750          12.500
 95  4 28 15 15 15.0000000  0  6G18G19G27G28G29G31
                  -1050256.839 7   -818381.585 6  20272492.711    20272493.180
        23.250          17.250
                  -2044518.701 6  -1593130.789 6  21203894.078    21203894.910
        18.000          19.250
                  -4399117.632 5  -3427882.082 5  23445822.289    23445824.301
         7.500           9.250
                   -977653.557 5   -761806.692 6  23242283.219    23242284.184
        11.500          12.000
                   2257886.776 7   1759391.956 6  20991258.570    20991258.914
        21.000          21.250
                  -4926146.212 6  -3838553.918 6  22585567.578    22585568.688
        14.000          12.500
 95  4 28 15 15 30.0000000  0  6G18G19G27G28G29G31
                  -1047537.281 7   -816262.449 6  20273010.281    20273010.777
        23.250          17.250
                  -2053888.968 6  -1600432.287 6  21202111.289    21202112.109
        18.000          19.250
                  -4427606.882 5  -3450081.483 5  23440401.281    23440403.336
         7.750           9.500
                   -973282.834 5   -758400.937 6  23243115.156    23243116.277
        11.750          12.250
                   2284543.931 7   1780163.762 6  20996331.203    20996331.609
        21.000          21.000
                  -4954432.481 6  -3860595.159 6  22580184.734    22580186.016
        13.500          12.250
 95  4 28 15 15 45.0000000  0  6G18G19G27G28G29G31
                  -1044667.478 7   -814026.238 6  20273556.500    20273557.086
        23.250          17.500
                  -2063185.776 6  -1607676.544 6  21200341.977    21200342.867
        18.000          19.500
                  -4456050.167 5  -3472245.058 5  23434988.844    23434990.648
         7.750           9.500
                   -968745.560 5   -754865.403 6  23243978.641    23243979.906
        11.750          12.500
                   2311338.071 7   1801042.310 6  21001430.008    21001430.445
        21.000          21.000
                  -4982588.868 6  -3882535.185 6  22574826.594    22574827.988
        13.500          12.500
 95  4 28 15 16  0.0000000  0  6G18G19G27G28G29G31
                  -1041640.305 7   -811667.405 6  20274132.445    20274132.879
        23.250          17.000
                  -2072403.996 6  -1614859.573 6  21198587.766    21198588.695
        18.000          19.250
                  -4484442.504 5  -3494368.950 5  23429585.633    23429588.082
         7.750           9.750
                   -964036.459 5   -751195.978 6  23244874.688    23244876.020
        11.750          12.500
                   2338273.210 7   1822030.725 6  21006555.695    21006555.949
        21.000          21.000
                  -5010612.914 6  -3904372.093 6  22569494.023    22569495.359
        13.500          12.500
 95  4 28 15 16 15.0000000  0  6G18G19G27G28G29G31
                  -1038458.913 7   -809188.396 6  20274737.969    20274738.316
        23.250          17.000
                  -2081547.600 6  -1621984.449 6  21196847.648    21196848.770
        18.000          19.500
                  -4512787.890 5  -3516456.255 5  23424191.742    23424194.102
         8.000           9.750
                   -959160.547 5   -747396.574 6  23245802.547    23245803.730
        11.750          12.500
                   2365344.595 7   1843125.307 6  21011707.102    21011707.270
        21.000          21.000
                  -5038512.316 6  -3926111.874 6  22564184.969    22564186.285
        13.250          12.750
 95  4 28 15 16 30.0000000  0  6G18G19G27G28G29G31
                  -1035116.338 7   -806583.793 6  20275373.945    20275374.293
        23.250          17.000
                  -2090610.593 6  -1629046.515 6  21195123.125    21195124.266
        18.000          19.500
                  -4541076.754 5  -3538499.511 5  23418808.281    23418810.930
         8.000           9.750
                   -954111.876 5   -743462.551 6  23246763.273    23246764.297
        11.750          12.250
                   2392557.592 7   1864330.237 6  21016885.641    21016885.941
        21.000          21.000
                  -5066283.538 6  -3947751.773 6  22558900.102    22558901.680
        13.250          12.750
 95  4 28 15 16 45.0000000  0  6G18G19G27G28G29G31
                  -1031619.477 7   -803858.965 6  20276039.391    20276039.742
        23.250          17.000
                  -2099602.686 6  -1636053.332 6  21193411.859    21193413.199
        18.000          19.500
                  -4569316.317 5  -3560504.346 5  23413434.547    23413436.801
         8.000           9.500
                   -948898.090 6   -739399.867 6  23247755.352    23247756.449
        12.000          12.250
                   2419902.318 7   1885637.808 6  21022089.070    21022089.570
        20.500          21.000
                  -5093936.553 6  -3969299.566 6  22553637.727    22553639.172
        13.250          13.000
 95  4 28 15 17  0.0000000  0  6G18G19G27G28G29G31
                  -1027957.063 7   -801005.137 6  20276736.313    20276736.609
        23.250          17.000
                  -2108510.329 6  -1642994.349 6  21191716.805    21191717.996
        18.000          19.500
                  -4597493.467 5  -3582460.563 5  23408072.672    23408074.438
         8.250           9.250
                   -943503.931 5   -735196.640 6  23248781.492    23248783.039
        11.750          12.500
                   2447394.591 7   1907060.351 6  21027320.578    21027321.281
        20.500          21.250
                  -5121456.925 6  -3990743.997 6  22548400.930    22548402.512
        13.250          13.250
 95  4 28 15 17 15.0000000  0  6G18G19G27G28G29G31
                  -1024144.160 7   -798034.044 6  20277461.852    20277462.387
        23.000          17.000
                  -2117346.863 6  -1649879.953 6  21190035.125    21190036.348
        18.000          19.500
                  -4625622.553 5  -3604379.314 5  23402719.945    23402722.063
         8.250           9.250
                   -937943.881 5   -730864.143 6  23249839.688    23249841.125
        11.500          12.500
                   2475021.215 7   1928587.583 6  21032577.656    21032578.395
        20.250          21.250
                  -5148860.221 6  -4012097.204 6  22543186.406    22543187.676
        13.750          13.000
 95  4 28 15 17 30.0000000  0  6G18G19G27G28G29G31
                  -1020184.102 7   -794948.283 6  20278215.523    20278215.988
        23.000          16.750
                  -2126111.177 6  -1656709.286 6  21188367.672    21188368.707
        18.000          19.500
                  -4653704.260 5  -3626261.152 5  23397376.539    23397378.320
         8.500           9.250
                   -932217.214 5   -726401.809 6  23250929.281    23250931.059
        11.500          12.500
                   2502786.069 7   1950222.527 6  21037861.289    21037861.770
        20.000          21.250
                  -5176145.299 6  -4033358.288 6  22537994.039    22537995.563
        13.250          13.250
 95  4 28 15 17 45.0000000  0  6G18G19G27G28G29G31
                  -1016077.440 7   -791748.293 6  20278996.781    20278997.207
        23.000          16.750
                  -2134807.908 6  -1663485.951 6  21186712.625    21186713.734
        18.250          19.500
                  -4681743.136 5  -3648109.616 5  23392040.508    23392042.465
         8.500           9.250
                   -926326.783 5   -721811.870 6  23252050.156    23252052.016
        11.750          12.750
                   2530692.096 7   1971967.472 6  21043171.609    21043172.121
        20.250          21.000
                  -5203315.076 6  -4054529.529 6  22532823.758    22532825.277
        13.250          13.250
 95  4 28 15 18  0.0000000  0  6G18G19G27G28G29G31
                  -1011821.941 7   -788432.318 6  20279806.680    20279807.004
        23.250          16.750
                  -2143437.640 6  -1670210.408 6  21185070.523    21185071.574
        18.250          19.750
                  -4709737.805 5  -3669923.628 5  23386713.578    23386715.258
         8.500           9.250
                   -920271.777 5   -717093.687 6  23253202.609    23253204.234
        11.750          13.000
                   2558740.389 7   1993823.281 6  21048508.930    21048509.402
        20.000          21.000
                  -5230368.716 6  -4075610.278 6  22527675.664    22527677.324
        13.250          13.250
 95  4 28 15 18 15.0000000  0  6G18G19G27G28G29G31
                  -1007421.783 7   -785003.625 6  20280644.070    20280644.383
        23.000          16.500
                  -2152001.103 6  -1676883.228 6  21183441.039    21183442.156
        18.250          19.750
                  -4737691.555 5  -3691705.757 5  23381393.805    23381395.953
         8.250           9.000
                   -914054.603 5   -712249.148 6  23254385.695    23254387.320
        11.750          13.000
                   2586927.896 7   2015787.570 6  21053872.875    21053873.371
        20.000          21.000
                  -5257304.813 6  -4096599.430 6  22522549.766    22522551.398
        13.250          13.500
 95  4 28 15 18 30.0000000  0  6G18G19G27G28G29G31
                  -1002870.164 7   -781456.904 6  20281510.109    20281510.367
        23.000          16.500
                  -2160493.041 6  -1683500.314 6  21181825.078    21181826.133
        18.250          19.500
                  -4765601.477 5  -3713453.734 5  23376083.164    23376084.766
         8.500           9.000
                   -907671.868 5   -707275.591 6  23255600.367    23255601.902
        11.750          13.000
                   2615259.687 6   2037864.288 6  21059264.180    21059264.848
        19.750          20.750
                  -5284117.781 6  -4117492.637 6  22517447.633    22517449.387
        13.000          13.250
 95  4 28 15 18 45.0000000  0  6G18G19G27G28G29G31
                   -998157.251 7   -777784.507 6  20282406.977    20282407.324
        23.000          16.500
                  -2168902.641 6  -1690053.249 6  21180224.711    21180225.957
        18.250          19.750
                  -4793460.355 5  -3735161.939 5  23370781.820    23370783.473
         8.750           9.250
                   -901114.358 5   -702165.854 6  23256847.992    23256849.793
        11.750          13.000
                   2643745.160 6   2060060.749 6  21064684.789    21064685.414
        19.750          21.000
                  -5310794.490 6  -4138279.663 6  22512370.945    22512372.699
        13.000          13.500
 95  4 28 15 19  0.0000000  0  6G18G19G27G28G29G31
                   -993295.522 7   -773996.144 6  20283332.133    20283332.492
        23.000          16.500
                  -2177239.463 6  -1696549.469 6  21178638.109    21178639.426
        18.250          20.000
                  -4821281.153 5  -3756840.467 5  23365487.211    23365489.379
         8.500           9.250
                   -894392.464 5   -696928.014 6  23258127.094    23258129.133
        11.750          13.000
                   2672376.871 6   2082371.165 6  21070133.188    21070133.957
        19.750          21.000
                  -5337344.224 6  -4158967.754 6  22507318.844    22507320.375
        13.250          13.500
 95  4 28 15 19 15.0000000  0  6G18G19G27G28G29G31
                   -988285.182 7   -770091.983 6  20284285.633    20284286.016
        23.000          16.750
                  -2185502.990 6  -1702988.574 6  21177065.703    21177066.988
        18.250          20.000
                  -4849065.625 5  -3778490.691 5  23360200.031    23360202.043
         8.500           9.000
                   -887508.145 5   -691563.602 6  23259437.031    23259439.172
        11.500          13.250
                   2701154.624 6   2104795.378 6  21075609.500    21075610.188
        19.750          21.000
                  -5363768.235 6  -4179557.878 6  22502290.477    22502291.984
        13.250          13.500
 95  4 28 15 19 30.0000000  0  6G18G19G27G28G29G31
                   -983126.910 7   -766072.546 6  20285266.984    20285267.504
        23.000          16.750
                  -2193694.990 6  -1709371.949 6  21175506.938    21175508.211
        18.250          20.000
                  -4876815.668 5  -3800114.090 5  23354919.102    23354921.594
         8.500           9.250
                   -880464.536 5   -686075.083 6  23260777.680    23260779.387
        11.750          13.000
                   2730073.044 6   2127329.200 6  21081112.453    21081113.180
        19.750          21.000
                  -5390068.840 6  -4200051.846 6  22497285.727    22497287.297
        13.500          13.750
 95  4 28 15 19 45.0000000  0  6G18G19G27G28G29G31
                   -977817.775 7   -761935.557 6  20286277.414    20286277.848
        23.000          16.750
                  -2201814.642 6  -1715698.941 6  21173961.719    21173963.008
        18.250          19.750
                  -4904529.628 5  -3821709.368 5  23349645.328    23349647.617
         8.500           9.000
                   -873260.403 5   -680461.474 6  23262148.727    23262150.262
        11.750          13.000
                   2759131.152 6   2149971.874 6  21086642.086    21086642.883
        19.500          21.000
                  -5416241.689 6  -4220446.259 6  22492305.055    22492306.637
        13.750          13.750
 95  4 28 15 20  0.0000000  0  6G18G19G27G28G29G31
                   -972352.298 7   -757676.746 6  20287317.469    20287317.945
        23.250          16.750
                  -2209862.675 6  -1721970.134 6  21172430.125    21172431.547
        18.250          20.000
                  -4932203.848 5  -3843273.687 5  23344379.672    23344381.145
         8.750           9.000
                   -865896.135 6   -674723.085 6  23263550.250    23263551.309
        12.000          12.750
                   2788325.095 6   2172720.390 6  21092197.398    21092198.145
        19.500          20.500
                  -5442287.022 6  -4240741.309 6  22487348.898    22487350.500
        13.750          13.750
 95  4 28 15 20 15.0000000  0  6G18G19G27G28G29G31
                   -966732.287 7   -753297.514 6  20288386.836    20288387.477
        23.000          17.000
                  -2217841.834 6  -1728187.657 6  21170911.641    21170912.977
        18.250          20.000
                  -4959838.137 5  -3864806.885 5  23339121.234    23339122.746
         8.750           9.250
                   -858373.305 6   -668861.142 6  23264981.844    23264982.738
        12.000          12.500
                   2817650.047 6   2195570.999 6  21097777.617    21097778.227
        19.500          20.250
                  -5468206.777 6  -4260938.508 6  22482416.914    22482418.273
        14.000          14.000
 95  4 28 15 20 30.0000000  0  6G18G19G27G28G29G31
                   -960955.211 7   -748795.897 6  20289486.289    20289486.973
        23.000          17.000
                  -2225752.523 6  -1734351.826 6  21169406.359    21169407.637
        18.250          20.000
                  -4987429.484 5  -3886306.622 5  23333870.203    23333871.992
         8.500           9.250
                   -850689.970 6   -662874.136 6  23266444.063    23266444.734
        12.000          12.500
                   2847108.771 6   2218525.840 6  21103383.438    21103384.188
        19.250          20.250
                  -5494001.303 6  -4281038.129 6  22477507.992    22477509.426
        13.750          13.750
 95  4 28 15 20 45.0000000  0  6G18G19G27G28G29G31
                   -955029.175 7   -744178.209 6  20290613.992    20290614.605
        23.000          17.000
                  -2233600.992 6  -1740467.512 6  21167913.039    21167914.145
        18.250          20.000
                  -5014980.827 5  -3907775.184 5  23328627.586    23328629.379
         8.500           9.250
                   -842850.603 5   -656765.535 6  23267935.547    23267936.711
        11.750          12.750
                   2876696.541 6   2241581.237 6  21109014.063    21109014.523
        19.500          20.250
                  -5519676.607 6  -4301044.847 6  22472621.813    22472623.730
        13.250          14.000
 95  4 28 15 21  0.0000000  0  6G18G19G27G28G29G31
                   -948962.262 7   -739450.742 6  20291768.586    20291769.137
        23.250          17.000
                  -2241393.472 6  -1746539.571 6  21166430.063    21166431.430
        18.250          20.000
                  -5042496.155 5  -3929215.696 5  23323391.313    23323393.324
         8.500           9.250
                   -834859.077 6   -650538.376 6  23269456.297    23269457.484
        12.000          12.750
                   2906409.093 6   2264733.869 6  21114668.117    21114668.652
        19.500          20.250
                  -5545237.219 6  -4320962.194 6  22467757.984    22467759.762
        13.500          13.750
 95  4 28 15 21 15.0000000  0  6G18G19G27G28G29G31
                   -942752.333 7   -734611.839 6  20292950.320    20292950.668
        23.250          16.750
                  -2249130.485 6  -1752568.408 6  21164957.727    21164958.914
        18.250          19.750
                  -5069971.568 5  -3950625.089 5  23318163.336    23318164.859
         8.750           9.250
                   -826713.598 6   -644191.236 6  23271006.547    23271007.371
        12.250          12.500
                   2936247.412 6   2287984.502 6  21120346.188    21120346.816
        19.500          20.250
                  -5570683.872 6  -4340790.744 6  22462915.797    22462917.273
        13.750          13.750
 95  4 28 15 21 30.0000000  0  6G18G19G27G28G29G31
                   -936394.394 7   -729657.598 6  20294160.242    20294160.574
        23.500          17.000
                  -2256808.927 6  -1758551.605 6  21163496.625    21163497.805
        18.250          19.750
                  -5097401.156 5  -3971998.785 5  23312943.359    23312945.164
         8.750           9.500
                   -818409.426 6   -637720.445 6  23272586.977    23272587.469
        12.250          12.250
                   2966211.936 6   2311333.475 6  21126048.258    21126048.902
        19.500          20.250
                  -5596011.388 6  -4360526.460 6  22458095.914    22458097.629
        13.750          13.750
 95  4 28 15 21 45.0000000  0  6G18G19G27G28G29G31
                   -929898.031 7   -724595.500 6  20295396.211    20295396.695
        23.500          17.000
                  -2264438.797 6  -1764496.957 6  21162044.719    21162045.820
        18.500          19.750
                  -5124791.674 5  -3993342.039 5  23307731.289    23307732.996
         9.000           9.750
                   -809954.658 6   -631132.311 6  23274195.891    23274196.320
        12.500          12.000
                   2996294.656 6   2334774.544 6  21131772.695    21131773.402
        19.500          20.250
                  -5621227.624 6  -4380175.468 6  22453297.492    22453299.246
        14.000          14.000
 95  4 28 15 22  0.0000000  0  6G18G19G27G28G29G31
                   -923256.802 7   -719420.517 6  20296660.234    20296660.809
        23.250          17.250
                  -2272012.567 6  -1770398.595 6  21160603.477    21160604.648
        18.500          19.750
                  -5152137.171 5  -4014650.202 5  23302527.609    23302529.242
         9.000           9.750
                   -801342.628 6   -624421.636 5  23275834.641    23275834.926
        12.500          11.750
                   3026504.389 6   2358314.588 6  21137521.422    21137522.074
        19.500          20.000
                  -5646327.450 6  -4399733.765 6  22448521.383    22448522.770
        14.250          13.750
 95  4 28 15 22 15.0000000  0  6G18G19G27G28G29G31
                   -916483.120 7   -714142.322 6  20297949.172    20297949.863
        23.000          17.250
                  -2279537.752 6  -1776262.371 6  21159171.477    21159172.625
        18.500          19.750
                  -5179449.492 5  -4035932.514 5  23297330.328    23297331.902
         8.750           9.750
                   -792581.666 6   -617594.910 5  23277501.813    23277501.984
        12.500          11.750
                   3056834.347 6   2381948.310 6  21143293.148    21143293.520
        19.500          19.750
                  -5671319.795 6  -4419208.311 6  22443765.609    22443766.922
        14.000          14.000
 95  4 28 15 22 30.0000000  0  6G18G19G27G28G29G31
                   -909580.124 7   -708763.369 6  20299262.563    20299263.371
        23.000          17.250
                  -2287013.210 6  -1782087.400 6  21157748.977    21157750.191
        18.250          19.750
                  -5206731.856 5  -4057191.479 5  23292138.766    23292140.359
         9.000          10.000
                   -783671.133 6   -610651.637 5  23279197.633    23279197.535
        12.500          11.500
                   3087285.801 6   2405676.710 6  21149087.898    21149088.297
        19.500          19.250
                  -5696202.894 6  -4438597.728 6  22439030.539    22439032.117
        14.000          14.250
 95  4 28 15 22 45.0000000  0  6G18G19G27G28G29G31
                   -902545.068 7   -703281.511 6  20300601.344    20300602.027
        23.000          17.250
                  -2294431.838 6  -1787868.143 6  21156337.305    21156338.402
        18.750          19.750
                  -5233980.328 5  -4078424.047 5  23286953.711    23286955.105
         9.000          10.000
                   -774606.378 6   -603588.184 5  23280922.586    23280922.563
        12.750          11.500
                   3117863.550 6   2429503.521 6  21154906.641    21154906.988
        19.500          19.500
                  -5720972.277 6  -4457898.532 6  22434316.789    22434318.656
        13.750          14.500
 95  4 28 15 23  0.0000000  0  6G18G19G27G28G29G31
                   -895381.999 7   -697699.903 6  20301964.469    20301965.195
        23.000          17.250
                  -2301800.052 6  -1793609.609 6  21154935.141    21154936.219
        18.500          19.750
                  -5261203.962 5  -4099637.252 5  23281772.859    23281774.488
         9.000          10.250
                   -765394.514 6   -596410.099 5  23282675.406    23282675.551
        12.750          11.500
                   3148559.686 6   2453422.581 6  21160747.859    21160748.332
        19.750          19.500
                  -5745632.078 6  -4477113.946 6  22429623.930    22429625.848
        13.500          14.250
 95  4 28 15 23 15.0000000  0  6G18G19G27G28G29G31
                   -888094.093 7   -692021.018 6  20303351.391    20303352.055
        23.000          17.250
                  -2309126.989 6  -1799318.909 6  21153540.914    21153541.922
        18.750          19.750
                  -5288411.342 5  -4120837.796 5  23276595.688    23276597.273
         9.000          10.250
                   -756043.334 6   -589123.459 5  23284454.547    23284454.984
        12.500          11.750
                   3179364.850 6   2477426.596 6  21166610.047    21166610.602
        19.750          19.750
                  -5770188.002 6  -4496248.421 6  22424951.211    22424952.785
        13.750          14.250
 95  4 28 15 23 30.0000000  0  6G18G19G27G28G29G31
                   -880655.517 7   -686224.725 6  20304766.883    20304767.598
        23.000          17.250
                  -2316384.401 6  -1804974.029 6  21152159.781    21152160.883
        18.500          19.750
                  -5315579.477 5  -4142007.751 5  23271425.820    23271427.449
         9.250          10.500
                   -746527.602 6   -581708.589 5  23286265.305    23286265.910
        12.250          11.750
                   3210302.809 6   2501534.089 6  21172497.281    21172497.887
        19.500          19.750
                  -5794611.281 6  -4515279.540 6  22420303.883    22420305.367
        14.000          14.250
 95  4 28 15 23 45.0000000  0  6G18G19G27G28G29G31
                   -873074.349 7   -680317.324 6  20306209.359    20306210.059
        22.750          17.000
                  -2323577.356 6  -1810578.927 6  21150790.961    21150791.992
        18.250          19.500
                  -5342716.263 5  -4163153.284 5  23266261.992    23266263.230
         9.250          10.250
                   -736855.482 6   -574171.866 5  23288105.859    23288106.441
        12.250          11.750
                   3241365.410 6   2525738.703 6  21178408.422    21178408.863
        19.500          19.500
                  -5818907.547 6  -4534211.687 6  22415680.180    22415681.914
        14.000          14.000
 95  4 28 15 24  0.0000000  0  6G18G19G27G28G29G31
                   -865360.202 7   -674306.307 6  20307677.523    20307678.168
        22.750          17.000
                  -2330712.921 6  -1816139.109 6  21149433.070    21149433.973
        18.250          19.500
                  -5369833.651 5  -4184283.705 5  23261101.211    23261102.906
         9.250          10.250
                   -727036.983 6   -566521.079 5  23289974.375    23289974.914
        12.250          11.750
                   3272544.052 6   2550033.740 6  21184341.477    21184341.898
        19.750          19.750
                  -5843084.834 6  -4553051.126 6  22411079.453    22411080.723
        14.000          13.750
 95  4 28 15 24 15.0000000  0  6G18G19G27G28G29G31
                   -857510.666 7   -668189.788 6  20309171.203    20309171.738
        23.000          17.000
                  -2337789.840 6  -1821653.590 6  21148086.336    21148087.156
        18.250          19.500
                  -5396931.229 5  -4205398.692 5  23255944.953    23255946.234
         9.000          10.250
                   -717069.096 6   -558753.883 6  23291871.219    23291871.766
        12.250          12.000
                   3303841.302 6   2574421.195 6  21190297.133    21190297.523
        19.750          19.750
                  -5867139.488 6  -4571795.009 6  22406502.234    22406503.512
        14.250          14.000
 95  4 28 15 24 30.0000000  0  6G18G19G27G28G29G31
                   -849532.158 7   -661972.775 6  20310689.570    20310690.125
        22.750          17.000
                  -2344818.020 6  -1827130.087 6  21146749.023    21146749.891
        18.500          19.500
                  -5424014.841 5  -4226502.779 5  23250791.227    23250792.703
         9.000          10.500
                   -706959.327 6   -550876.136 6  23293795.031    23293795.754
        12.250          12.250
                   3335247.615 6   2598893.643 6  21196273.648    21196273.926
        19.750          19.500
                  -5891078.979 6  -4590449.157 6  22401946.617    22401948.117
        14.000          14.000
 95  4 28 15 24 45.0000000  0  6G18G19G27G28G29G31
                   -841416.507 7   -655648.893 6  20312233.828    20312234.590
        22.750          17.000
                  -2351790.960 6  -1832563.547 6  21145422.227    21145422.922
        18.750          19.500
                  -5451075.729 5  -4247589.173 5  23245641.555    23245643.371
         9.250          10.750
                   -696701.665 6   -542883.136 6  23295746.734    23295747.996
        12.250          12.250
                   3366767.877 6   2623454.879 6  21202271.828    21202272.070
        19.750          19.500
                  -5914897.629 6  -4609009.135 6  22397413.781    22397415.320
        13.750          14.000
 95  4 28 15 25  0.0000000  0  6G18G19G27G28G29G31
                   -833166.533 7   -649220.347 6  20313803.789    20313804.527
        22.750          17.000
                  -2358715.478 6  -1837959.272 6  21144104.383    21144105.227
        18.250          19.500
                  -5478118.073 5  -4268661.112 5  23240495.734    23240497.531
         9.250          10.750
                   -686301.498 6   -534779.094 6  23297725.773    23297726.973
        12.250          12.250
                   3398397.878 6   2648101.625 6  21208290.758    21208291.230
        19.750          19.500
                  -5938600.131 6  -4627478.604 6  22392903.523    22392905.172
        13.750          14.000
 95  4 28 15 25 15.0000000  0  6G18G19G27G28G29G31
                   -824779.686 7   -642685.148 6  20315399.859    20315400.391
        22.750          17.000
                  -2365587.362 6  -1843313.981 6  21142796.883    21142797.699
        18.750          19.500
                  -5505137.535 5  -4289715.221 5  23235354.047    23235355.566
         9.250          10.750
                   -675754.170 6   -526560.379 6  23299732.953    23299733.879
        12.250          12.250
                   3430141.593 6   2672836.977 6  21214331.492    21214331.801
        19.750          19.750
                  -5962180.845 6  -4645853.177 6  22388416.258    22388417.938
        14.000          14.500
 95  4 28 15 25 30.0000000  0  6G18G19G27G28G29G31
                   -816264.427 7   -636049.881 6  20317020.156    20317020.605
        22.750          16.750
                  -2372406.329 6  -1848627.458 6  21141499.266    21141500.176
        18.500          19.500
                  -5532135.693 5  -4310752.730 5  23230216.055    23230217.547
         9.000          10.250
                   -665061.731 6   -518228.600 6  23301767.563    23301768.590
        12.250          12.250
                   3461998.662 6   2697660.658 6  21220393.719    21220394.230
        19.750          20.000
                  -5985646.305 6  -4664137.940 6  22383951.047    22383952.754
        14.000          14.750
 95  4 28 15 25 45.0000000  0  6G18G19G27G28G29G31
                   -807617.193 7   -629311.783 6  20318665.523    20318666.004
        22.750          16.750
                  -2379165.283 6  -1853894.175 6  21140213.047    21140213.930
        18.750          19.500
                  -5559106.411 5  -4331768.864 5  23225084.023    23225085.555
         9.250          10.500
                   -654218.084 6   -509778.992 6  23303831.367    23303832.281
        12.500          12.500
                   3493975.975 6   2722578.035 6  21226478.742    21226479.191
        19.750          20.250
                  -6008995.924 6  -4682332.436 6  22379507.828    22379509.172
        14.000          14.750
 95  4 28 15 26  0.0000000  0  6G18G19G27G28G29G31
                   -798839.480 7   -622472.009 6  20320335.930    20320336.496
        22.500          16.750
                  -2385868.092 6  -1859117.137 6  21138937.477    21138938.480
        18.500          19.500
                  -5586050.414 5  -4352764.165 5  23219956.914    23219958.273
         9.250          10.500
                   -643225.163 6   -501213.063 6  23305923.133    23305924.199
        12.500          12.500
                   3526074.098 6   2747589.548 6  21232586.859    21232587.344
        19.750          20.250
                  -6032234.821 6  -4700440.658 6  22375085.625    22375086.984
        14.250          14.250
 95  4 28 15 26 15.0000000  0  6G18G19G27G28G29G31
                   -789928.991 7   -615528.778 6  20322031.492    20322032.004
        22.750          16.500
                  -2392516.604 6  -1864297.797 6  21137672.305    21137673.207
        18.750          19.500
                  -5612967.022 5  -4373738.129 5  23214834.523    23214836.047
         9.250          10.250
                   -632081.407 6   -492529.605 6  23308043.711    23308044.852
        12.500          12.500
                   3558295.220 6   2772696.899 6  21238718.281    21238718.797
        19.750          20.250
                  -6055363.653 6  -4718463.122 6  22370684.352    22370685.738
        14.250          14.500
 95  4 28 15 26 30.0000000  0  6G18G19G27G28G29G31
                   -780892.314 7   -608487.206 6  20323751.219    20323751.746
        22.750          16.500
                  -2399121.874 6  -1869444.753 6  21136415.516    21136416.441
        18.750          19.500
                  -5639863.139 5  -4394696.123 5  23209716.602    23209718.160
         9.250          10.250
                   -620795.654 6   -483735.496 6  23310191.273    23310192.180
        12.250          12.500
                   3590630.130 6   2797892.929 6  21244871.422    21244871.934
        19.500          20.000
                  -6078391.220 6  -4736406.666 6  22366301.938    22366303.695
        14.250          14.500
 95  4 28 15 26 45.0000000  0  6G18G19G27G28G29G31
                   -771733.901 7   -601350.789 6  20325494.133    20325494.609
        22.750          16.500
                  -2405682.980 6  -1874557.304 6  21135166.828    21135167.734
        18.750          19.500
                  -5666737.726 5  -4415637.344 5  23204602.383    23204603.617
         9.000          10.250
                   -609370.045 6   -474832.413 6  23312365.500    23312366.441
        12.500          12.250
                   3623077.823 6   2823176.835 6  21251045.922    21251046.445
        19.250          20.000
                  -6101318.507 6  -4754272.079 6  22361938.992    22361940.781
        14.250          14.250
 95  4 28 15 27  0.0000000  0  6G18G19G27G28G29G31
                   -762454.818 7   -594120.339 6  20327259.813    20327260.277
        22.750          16.500
                  -2412198.364 6  -1879634.223 6  21133926.945    21133927.813
        18.500          19.500
                  -5693590.943 5  -4436561.910 5  23199492.289    23199493.754
         9.250          10.250
                   -597804.208 6   -465820.057 6  23314566.539    23314567.250
        12.500          12.250
                   3655639.482 6   2848549.545 6  21257242.313    21257242.855
        19.250          20.250
                  -6124143.685 6  -4772057.920 6  22357595.727    22357597.348
        14.250          14.250
 95  4 28 15 27 15.0000000  0  6G18G19G27G28G29G31
                   -753056.142 7   -586796.701 6  20329048.445    20329048.918
        23.000          16.500
                  -2418669.012 6  -1884676.281 6  21132695.609    21132696.398
        18.500          19.500
                  -5720422.479 5  -4457469.587 5  23194386.648    23194387.703
         9.250          10.000
                   -586098.519 6   -456698.728 6  23316794.047    23316794.488
        12.500          12.250
                   3688314.761 6   2874010.791 6  21263460.211    21263460.777
        19.250          20.250
                  -6146866.634 6  -4789764.108 6  22353271.922    22353273.500
        14.250          14.500
 95  4 28 15 27 30.0000000  0  6G18G19G27G28G29G31
                   -743528.576 7   -579372.626 6  20330861.398    20330861.820
        23.000          16.500
                  -2425087.224 6  -1889677.482 6  21131474.203    21131475.137
        18.250          19.500
                  -5747225.474 5  -4478355.025 5  23189285.648    23189287.500
         9.000          10.000
                   -574244.896 6   -447462.132 6  23319049.539    23319050.230
        12.500          12.250
                   3721111.935 6   2899567.023 6  21269701.313    21269701.820
        19.000          20.250
                  -6169479.468 6  -4807384.485 6  22348968.695    22348970.383
        14.500          14.750
 95  4 28 15 27 45.0000000  0  6G18G19G27G28G29G31
                   -733871.672 7   -571847.770 6  20332699.109    20332699.504
        23.000          16.500
                  -2431460.151 6  -1894643.399 6  21130261.469    21130262.355
        18.250          19.500
                  -5774004.530 5  -4499221.803 5  23184189.781    23184191.273
         9.250          10.000
                   -562248.561 6   -438114.324 5  23321332.258    23321333.063
        12.250          11.750
                   3754022.683 6   2925211.752 6  21275963.938    21275964.629
        19.000          20.500
                  -6191985.574 6  -4824921.700 6  22344685.906    22344687.551
        14.500          15.000
 95  4 28 15 28  0.0000000  0  6G18G19G27G28G29G31
                   -724082.326 7   -564219.712 6  20334562.023    20334562.383
        23.250          16.500
                  -2437792.926 6  -1899578.026 6  21129056.477    21129057.414
        18.250          19.500
                  -5800760.925 5  -4520070.927 5  23179098.742    23179099.992
         9.500          10.000
                   -550112.600 6   -428657.717 6  23323641.695    23323642.602
        12.500          12.000
                   3787044.213 6   2950942.803 6  21282247.672    21282248.348
        19.000          20.500
                  -6214383.376 6  -4842374.514 6  22340423.680    22340425.566
        14.750          15.250
 95  4 28 15 28 15.0000000  0  6G18G19G27G28G29G31
                   -714151.851 7   -556481.682 6  20336451.695    20336452.098
        23.250          16.500
                  -2444082.328 6  -1904478.855 6  21127859.633    21127860.594
        18.250          19.500
                  -5827488.017 5  -4540897.219 5  23174012.703    23174013.941
         9.500          10.000
                   -537830.687 6   -419087.385 5  23325979.031    23325979.590
        12.500          11.750
                   3820180.652 6   2976763.393 6  21288553.273    21288554.020
        18.750          20.500
                  -6236661.498 6  -4859734.081 6  22336184.508    22336185.906
        15.000          15.000
 95  4 28 15 28 30.0000000  0  6G18G19G27G28G29G31
                   -704081.184 7   -548634.410 6  20338368.047    20338368.434
        23.000          16.750
                  -2450327.492 6  -1909345.212 6  21126671.180    21126672.199
        18.250          19.750
                  -5854186.369 5  -4561701.112 5  23168931.805    23168933.238
         9.250          10.000
                   -525402.564 6   -409403.121 5  23328344.031    23328344.398
        12.500          11.750
                   3853430.113 6   3002672.053 6  21294880.438    21294881.309
        18.750          20.500
                  -6258817.823 6  -4876998.741 6  22331968.398    22331969.645
        15.000          15.000
 95  4 28 15 28 45.0000000  0  6G18G19G27G28G29G31
                   -693875.467 7   -540681.911 6  20340310.203    20340310.645
        23.000          16.750
                  -2456527.964 6  -1914176.745 6  21125491.289    21125492.406
        18.250          20.000
                  -5880857.720 5  -4582483.974 5  23163856.242    23163857.691
         9.250          10.000
                   -512830.965 6   -399607.068 6  23330736.211    23330736.871
        12.500          12.000
                   3886788.595 6   3028665.662 6  21301228.383    21301229.137
        18.750          20.250
                  -6280855.636 6  -4894171.049 6  22327774.531    22327775.977
        15.000          15.000
 95  4 28 15 29  0.0000000  0  6G18G19G27G28G29G31
                   -683532.727 7   -532622.635 6  20342278.227    20342278.820
        23.000          16.750
                  -2462682.201 6  -1918972.251 6  21124320.000    21124321.359
        18.250          19.750
                  -5907503.030 5  -4603246.544 5  23158786.227    23158787.215
         9.500           9.750
                   -500114.298 6   -389697.965 6  23333156.297    23333156.961
        12.500          12.000
                   3920258.900 6   3054746.413 6  21307597.578    21307598.414
        18.750          20.250
                  -6302772.834 6  -4911249.374 6  22323604.055    22323605.637
        15.000          15.000
 95  4 28 15 29 15.0000000  0  6G18G19G27G28G29G31
                   -673049.459 7   -524453.860 6  20344273.172    20344273.820
        23.000          17.000
                  -2468792.113 6  -1923733.221 6  21123157.477    21123158.742
        18.250          19.750
                  -5934125.126 5  -4623991.020 5  23153719.961    23153720.859
         9.750           9.750
                   -487252.704 6   -379675.929 6  23335603.945    23335604.449
        12.500          12.250
                   3953838.395 6   3080912.242 6  21313987.578    21313988.469
        19.000          20.500
                  -6324568.024 6  -4928232.633 6  22319456.297    22319457.813
        15.000          15.000
 95  4 28 15 29 30.0000000  0  6G18G19G27G28G29G31
                   -662433.805 7   -516181.922 6  20346293.305    20346293.973
        23.000          17.000
                  -2474868.897 6  -1928468.370 6  21122001.164    21122002.387
        18.250          20.000
                  -5960734.967 5  -4644725.946 5  23148656.703    23148657.254
        10.000           9.750
                   -474255.755 6   -369548.423 6  23338077.125    23338077.613
        12.750          12.250
                   3987516.611 6   3107155.002 6  21320396.328    21320397.125
        19.000          20.500
                  -6346249.655 6  -4945127.394 6  22315330.359    22315332.008
        15.000          15.000
 95  4 28 15 29 45.0000000  0  6G18G19G27G28G29G31
                   -651685.620 7   -507806.720 6  20348338.648    20348339.156
        23.000          17.000
                  -2480910.885 6  -1933176.411 6  21120851.461    21120852.613
        18.250          20.000
                  -5987330.835 5  -4665449.987 5  23143595.461    23143596.195
         9.750           9.750
                   -461121.895 6   -359314.238 6  23340576.563    23340577.020
        12.750          12.250
                   4021294.332 6   3133475.291 6  21326823.922    21326824.746
        19.000          20.750
                  -6367814.245 6  -4961930.960 6  22311226.828    22311228.551
        15.000          15.250
 95  4 28 15 30  0.0000000  0  6G18G19G27G28G29G31
                   -640802.779 7   -499326.588 6  20350409.555    20350410.105
        23.000          17.000
                  -2486911.839 6  -1937852.478 6  21119709.578    21119710.734
        18.500          20.250
                  -6013905.568 5  -4686157.560 5  23138538.336    23138539.457
         9.750           9.750
                   -447847.232 6   -348970.338 6  23343102.531    23343102.930
        12.750          12.000
                   4055176.441 6   3159876.924 6  21333271.602    21333272.602
        19.000          21.000
                  -6389258.330 6  -4978640.623 6  22307146.102    22307147.734
        15.000          15.250
 95  4 28 15 30 15.0000000  0  7G 2G18G19G27G28G29G31
                    -20065.71714    -15635.59615  24534301.820    24534304.879
         6.250           6.500
                   -629794.655 7   -490748.834 6  20352504.367    20352505.012
        23.000          17.250
                  -2492874.872 6  -1942498.995 6  21118574.727    21118575.891
        18.250          20.000
                  -6040464.709 5  -4706852.986 5  23133484.133    23133485.246
        10.000          10.000
                   -434436.079 6   -338520.083 5  23345654.648    23345654.895
        12.750          11.750
                   4089162.440 6   3186359.507 6  21339738.836    21339739.785
        19.000          21.000
                  -6410586.651 6  -4995260.084 6  22303087.563    22303089.105
        15.500          15.500
 95  4 28 15 30 30.0000000  0  7G 2G18G19G27G28G29G31
                    -57653.860 4    -44925.048 5  24527149.719    24527152.336
         6.500           6.750
                   -618665.514 7   -482076.779 6  20354621.938    20354622.785
        23.000          17.250
                  -2498796.942 6  -1947113.590 6  21117447.898    21117449.082
        18.250          19.750
                  -6067008.469 5  -4727536.423 5  23128432.930    23128434.238
        10.000          10.000
                   -420888.614 6   -327963.608 5  23348232.430    23348232.594
        12.500          11.750
                   4123252.409 6   3212923.107 6  21346226.047    21346227.020
        19.000          20.750
                  -6431800.519 6  -5011790.357 6  22299050.516    22299052.289
        15.000          15.750
 95  4 28 15 30 45.0000000  0  7G 2G18G19G27G28G29G31
                    -95188.620 4    -74172.898 5  24520006.297    24520009.766
         6.250           6.750
                   -607409.993 7   -473306.247 6  20356763.992    20356764.773
        23.000          17.250
                  -2504669.740 6  -1951689.796 6  21116330.156    21116331.387
        18.250          19.750
                  -6093531.478 5  -4748203.694 5  23123385.766    23123387.004
        10.000          10.000
                   -407199.284 6   -317296.590 5  23350837.391    23350837.484
        12.500          11.500
                   4157453.831 6   3239573.555 6  21352734.523    21352735.266
        19.250          20.750
                  -6452893.719 6  -5028226.594 6  22295036.586    22295038.273
        15.000          15.750
 95  4 28 15 31  0.0000000  0  7G 2G18G19G27G28G29G31
                   -132672.438 4   -103381.054 5  24512874.008    24512877.203
         6.250           7.000
                   -596027.435 7   -464436.727 6  20358929.969    20358930.773
        23.000          17.500
                  -2510496.378 6  -1956230.034 6  21115221.336    21115222.621
        18.250          19.750
                  -6120034.489 5  -4768855.387 5  23118342.492    23118343.371
        10.000           9.750
                   -393369.626 6   -306520.227 5  23353468.992    23353469.066
        12.500          11.500
                   4191767.853 6   3266311.745 6  21359264.227    21359264.844
        19.500          20.500
                  -6473867.365 6  -5044569.682 6  22291045.563    22291047.004
        15.000          15.500
 95  4 28 15 31 15.0000000  0  7G 2G18G19G27G28G29G31
                   -170105.721 3   -132549.841 5  24505750.609    24505753.918
         6.000           7.250
                   -584517.116 7   -455467.651 6  20361120.406    20361121.145
        23.000          17.250
                  -2516277.123 6  -1960734.506 6  21114121.227    21114122.375
        18.250          19.750
                  -6146517.775 5  -4789491.707 5  23113302.859    23113303.840
        10.000          10.000
                   -379399.767 6   -295634.617 5  23356127.508    23356127.621
        12.500          11.500
                   4226195.807 6   3293138.714 6  21365815.648    21365816.531
        19.500          20.500
                  -6494720.587 6  -5060818.934 6  22287077.398    22287079.160
        14.750          15.750
 95  4 28 15 31 30.0000000  0  7G 2G18G19G27G28G29G31
                   -207491.731 3   -161681.770 5  24498635.219    24498639.492
         5.250           7.500
                   -572881.809 7   -446401.184 6  20363334.531    20363335.297
        23.000          17.500
                  -2522013.988 6  -1965204.788 6  21113029.539    21113030.695
        18.250          19.500
                  -6172979.130 5  -4810110.936 5  23108267.719    23108268.844
        10.250          10.250
                   -365290.933 6   -284640.718 5  23358812.430    23358812.512
        12.500          11.500
                   4260737.991 6   3320054.688 6  21372388.797    21372389.512
        19.500          20.500
                  -6515456.314 6  -5076976.626 6  22283130.852    22283133.234
        14.500          15.750
 95  4 28 15 31 45.0000000  0  7G 2G18G19G27G28G29G31
                   -244844.152 3   -190787.535 5  24491528.703    24491531.332
         6.000           7.500
                   -561135.642 7   -437248.327 6  20365569.727    20365570.484
        23.000          17.250
                  -2527718.340 6  -1969649.735 6  21111943.922    21111945.086
        18.000          19.500
                  -6199429.522 5  -4830721.614 5  23103234.297    23103235.535
        10.250          10.250
                   -351056.096 6   -273548.631 5  23361520.992    23361521.332
        12.250          11.750
                   4295383.480 6   3347051.164 6  21378981.563    21378982.410
        19.000          20.500
                  -6536088.594 6  -5093053.712 6  22279204.781    22279206.789
        14.500          15.500
 95  4 28 15 32  0.0000000  0  7G 2G18G19G27G28G29G31
                   -282151.863 3   -219858.455 5  24484428.391    24484431.891
         6.000           7.750
                   -549266.386 7   -427999.558 6  20367828.453    20367829.125
        23.000          17.250
                  -2533376.152 6  -1974058.417 6  21110867.281    21110868.504
        18.000          19.750
                  -6225858.127 5  -4851315.318 5  23098205.063    23098206.363
        10.000          10.500
                   -336683.833 6   -262349.457 5  23364255.633    23364256.605
        12.000          11.750
                   4330145.571 6   3374138.494 6  21385596.586    21385597.668
        19.250          20.750
                  -6556606.593 6  -5109041.755 6  22275300.391    22275301.859
        14.750          15.000
 95  4 28 15 32 15.0000000  0  7G 2G18G19G27G28G29G31
                   -319419.652 3   -248898.265 5  24477337.125    24477340.133
         5.750           8.250
                   -537277.799 7   -418657.806 6  20370109.766    20370110.387
        23.000          17.250
                  -2538991.257 6  -1978433.820 6  21109798.789    21109799.941
        18.000          19.750
                  -6252271.987 5  -4871897.540 5  23093178.563    23093179.957
        10.250          10.500
                   -322177.583 6   -251045.875 6  23367016.219    23367017.219
        12.250          12.250
                   4365021.854 6   3401314.807 6  21392233.352    21392234.438
        19.250          21.000
                  -6577014.943 6  -5124944.351 6  22271417.031    22271418.734
        14.750          15.250
 95  4 28 15 32 30.0000000  0  7G 2G18G19G27G28G29G31
                   -356647.060 3   -277906.612 5  24470252.516    24470255.820
         6.000           8.500
                   -525169.962 7   -409223.127 6  20372413.797    20372414.281
        23.000          17.000
                  -2544564.783 6  -1982776.824 6  21108738.281    21108739.418
        18.000          19.750
                  -6278673.945 5  -4892470.482 5  23088154.352    23088155.758
        10.000          10.500
                   -307537.981 6   -239638.383 6  23369802.219    23369803.207
        12.250          12.500
                   4400010.417 6   3428578.611 6  21398891.391    21398892.383
        19.500          20.750
                  -6597313.802 6  -5140761.631 6  22267554.156    22267555.887
        14.750          15.500
 95  4 28 15 32 45.0000000  0  7G 2G18G19G27G28G29G31
                   -393830.807 4   -306880.934 5  24463177.344    24463180.273
         6.250           8.250
                   -512935.538 7   -399689.813 6  20374742.000    20374742.430
        22.750          17.000
                  -2550094.905 6  -1987086.005 6  21107685.867    21107687.031
        18.000          19.750
                  -6305059.024 5  -4913030.273 5  23083133.727    23083135.043
        10.000          10.750
                   -292760.749 6   -228123.646 6  23372614.375    23372615.168
        12.500          12.250
                   4435112.956 6   3455931.227 6  21405571.352    21405572.438
        19.500          20.750
                  -6617498.092 6  -5156489.645 6  22263713.266    22263714.906
        14.750          15.250
 95  4 28 15 33  0.0000000  0  7G 2G18G19G27G28G29G31
                   -430975.121 4   -335824.523 5  24456108.859    24456112.070
         6.500           8.000
                   -500576.784 7   -390059.615 6  20377093.727    20377094.211
        22.750          16.750
                  -2555587.981 6  -1991366.319 6  21106640.797    21106641.898
        18.000          19.750
                  -6331433.421 5  -4933581.738 5  23078114.914    23078116.063
        10.000          10.750
                   -277849.678 6   -216504.629 6  23375451.797    23375452.559
        12.250          12.250
                   4470325.178 6   3483369.312 6  21412271.930    21412272.871
        19.500          20.500
                  -6637570.773 6  -5172130.686 6  22259893.430    22259895.242
        14.750          15.500
 95  4 28 15 33 15.0000000  0  7G 2G18G19G27G28G29G31
                   -468082.131 4   -364739.073 5  24449047.734    24449050.570
         6.750           7.750
                   -488098.571 7   -380336.335 6  20379468.164    20379468.758
        22.750          17.000
                  -2561048.005 6  -1995620.881 6  21105601.813    21105602.852
        18.000          19.750
                  -6357799.118 5  -4954126.426 5  23073097.633    23073099.074
        10.000          10.750
                   -262807.702 6   -204783.605 6  23378314.086    23378314.906
        12.250          12.000
                   4505642.157 6   3510889.025 6  21418992.672    21418993.512
        19.500          20.250
                  -6657535.346 6  -5187687.477 6  22256094.344    22256096.141
        14.750          15.500
 95  4 28 15 33 30.0000000  0  7G 2G18G19G27G28G29G31
                   -505151.118 4   -393623.982 5  24441993.844    24441996.273
         7.000           7.500
                   -475502.429 7   -370521.162 6  20381865.211    20381865.801
        22.750          17.000
                  -2566474.900 6  -1999849.628 6  21104569.164    21104570.309
        18.250          20.000
                  -6384157.319 5  -4974665.275 5  23068081.656    23068082.719
        10.000          10.250
                   -247635.655 6   -192961.223 6  23381201.188    23381201.906
        12.250          12.000
                   4541058.446 6   3538486.124 6  21425732.117    21425733.023
        19.250          20.000
                  -6677392.564 6  -5203160.622 6  22252315.602    22252317.223
        14.750          15.500
 95  4 28 15 33 45.0000000  0  7G 2G18G19G27G28G29G31
                   -542169.472 4   -422469.443 5  24434949.438    24434951.695
         7.000           7.500
                   -462775.724 7   -360604.252 6  20384287.039    20384287.766
        22.500          17.000
                  -2571856.826 6  -2004043.333 6  21103544.805    21103546.023
        18.000          20.000
                  -6410499.076 5  -4995191.309 5  23063068.906    23063070.258
        10.000          10.250
                   -232322.274 6   -181028.710 6  23384115.273    23384115.910
        12.500          12.000
                   4576582.428 6   3566167.137 6  21432492.094    21432492.840
        19.500          20.000
                  -6697129.255 6  -5218539.852 6  22248559.547    22248561.242
        14.750          15.250
 95  4 28 15 34  0.0000000  0  7G 2G18G19G27G28G29G31
                   -579145.524 4   -451281.941 5  24427912.953    24427915.531
         7.000           7.750
                   -449925.864 7   -350591.376 6  20386732.195    20386732.746
        22.500          17.000
                  -2577199.382 6  -2008206.361 6  21102528.242    21102529.449
        18.250          20.000
                  -6436834.182 5  -5015712.159 5  23058057.477    23058058.945
        10.000          10.500
                   -216875.023 6   -168991.888 5  23387054.625    23387055.340
        12.250          11.750
                   4612203.674 6   3593923.940 6  21439270.813    21439271.563
        19.500          20.000
                  -6716752.262 6  -5233830.495 6  22244825.555    22244827.445
        14.750          15.250
 95  4 28 15 34 15.0000000  0  7G 2G18G19G27G28G29G31
                   -616080.354 4   -480062.294 5  24420884.648    24420887.383
         7.000           7.750
                   -436956.515 7   -340485.390 6  20389200.109    20389200.848
        22.000          17.000
                  -2582507.150 6  -2012342.277 6  21101518.313    21101519.504
        18.000          19.750
                  -6463165.978 5  -5036230.424 5  23053046.664    23053048.141
        10.000          10.750
                   -201295.525 6   -156852.017 5  23390019.203    23390019.664
        12.000          11.500
                   4647918.192 6   3621753.427 6  21446066.984    21446067.883
        19.500          19.750
                  -6736265.769 6  -5249035.816 6  22241112.633    22241114.117
        15.000          15.000
 95  4 28 15 34 30.0000000  0  7G 2G18G19G27G28G29G31
                   -652981.085 5   -508816.087 5  24413862.570    24413865.422
         7.500           7.500
                   -423871.699 7   -330289.432 6  20391690.133    20391690.754
        22.250          17.000
                  -2587788.201 6  -2016457.381 6  21100513.398    21100514.523
        18.250          20.000
                  -6489495.918 5  -5056747.249 5  23048036.555    23048037.953
        10.000          10.750
                   -185588.926 6   -144613.113 5  23393008.070    23393008.340
        12.000          11.250
                   4683719.265 6   3649650.353 6  21452879.883    21452880.566
        19.750          20.000
                  -6755674.249 6  -5264159.303 6  22237419.078    22237420.422
        15.000          14.750
 95  4 28 15 34 45.0000000  0  7G 2G18G19G27G28G29G31
                   -689841.553 5   -537538.518 5  24406848.484    24406851.266
         7.500           7.250
                   -410663.918 7   -319997.655 6  20394203.414    20394204.164
        22.000          17.000
                  -2593036.915 6  -2020547.278 6  21099514.477    21099515.645
        18.250          20.250
                  -6515816.616 5  -5077256.867 5  23043027.789    23043028.988
        10.250          10.750
                   -169749.831 6   -132270.960 5  23396022.148    23396022.500
        12.000          11.500
                   4719610.796 6   3677617.768 6  21459709.641    21459710.465
        19.500          20.000
                  -6774971.224 6  -5279195.899 6  22233746.898    22233748.418
        15.000          15.000
 95  4 28 15 35  0.0000000  0  7G 2G18G19G27G28G29G31
                   -726664.223 5   -566231.489 5  24399840.820    24399844.133
         7.500           7.500
                   -397335.282 7   -309611.711 6  20396739.781    20396740.516
        22.000          17.000
                  -2598257.150 6  -2024614.994 6  21098521.047    21098522.344
        18.250          20.000
                  -6542130.711 5  -5097761.351 5  23038020.195    23038021.559
        10.000          10.750
                   -153780.882 6   -119827.622 5  23399060.844    23399061.566
        12.000          11.500
                   4755590.447 6   3705653.849 6  21466556.328    21466557.195
        19.500          19.750
                  -6794158.803 6  -5294147.248 6  22230095.625    22230097.270
        15.000          15.000
 95  4 28 15 35 15.0000000  0  7G 2G18G19G27G28G29G31
                   -763446.866 5   -594893.265 5  24392842.031    24392844.094
         7.500           7.000
                   -383886.442 7   -299132.096 6  20399298.859    20399299.609
        22.000          17.000
                  -2603445.641 6  -2028657.978 6  21097533.734    21097534.992
        18.250          20.250
                  -6568435.045 5  -5118258.232 5  23033014.805    23033016.129
        10.250          11.000
                   -137681.326 6   -107282.512 6  23402124.797    23402125.531
        12.250          12.000
                   4791657.670 6   3733758.163 6  21473419.672    21473420.457
        19.250          19.750
                  -6813238.450 6  -5309014.507 6  22226465.063    22226466.313
        15.000          15.000
 95  4 28 15 35 30.0000000  0  7G 2G18G19G27G28G29G31
                   -800191.724 5   -623525.618 5  24385848.820    24385851.777
         7.500           7.000
                   -370316.641 7   -288558.229 6  20401881.242    20401881.852
        22.000          17.000
                  -2608601.688 6  -2032675.669 6  21096552.656    21096553.871
        18.250          20.250
                  -6594728.831 5  -5138746.876 5  23028011.211    23028012.648
        10.250          11.000
                   -121451.132 6    -94635.611 6  23405213.383    23405214.438
        12.250          12.250
                   4827813.553 6   3761931.570 6  21480299.852    21480300.590
        19.000          19.250
                  -6832211.606 6  -5323798.773 6  22222854.539    22222856.047
        15.000          15.500
 95  4 28 15 35 45.0000000  0  7G 2G18G19G27G28G29G31
                   -836903.002 5   -652131.782 5  24378863.680    24378866.164
         7.750           6.500
                   -356628.726 7   -277892.327 6  20404485.898    20404486.711
        21.750          17.000
                  -2613729.081 6  -2036671.042 6  21095576.859    21095578.113
        18.250          20.000
                  -6621016.928 5  -5159231.099 5  23023008.906    23023010.207
        10.250          11.000
                   -105094.564 6    -81890.239 6  23408326.250    23408327.324
        12.500          12.500
                   4864055.019 6   3790171.662 6  21487196.422    21487197.195
        19.000          19.500
                  -6851081.814 6  -5338502.819 6  22219263.352    22219265.305
        14.750          15.750
 95  4 28 15 36  0.0000000  0  7G 2G18G19G27G28G29G31
                   -873573.918 5   -680706.507 5  24371884.938    24371888.133
         7.500           6.250
                   -342813.791 7   -267127.445 6  20407114.711    20407115.652
        21.750          17.000
                  -2618819.828 6  -2040637.856 6  21094608.078    21094609.344
        18.500          20.250
                  -6647289.040 5  -5179702.868 5  23018009.297    23018010.645
        10.250          11.000
                    -88602.694 6    -69039.427 6  23411464.516    23411465.656
        12.250          12.500
                   4900394.837 6   3818488.396 6  21494111.617    21494112.438
        19.000          19.250
                  -6869838.595 6  -5353118.476 6  22215694.375    22215695.879
        15.000          15.500
 95  4 28 15 36 15.0000000  0  7G 2G18G19G27G28G29G31
                   -910208.383 5   -709252.843 5  24364913.805    24364915.984
         7.500           6.250
                   -328879.770 7   -256269.770 6  20409766.422    20409767.441
        21.750          17.250
                  -2623881.768 6  -2044582.226 6  21093644.820    21093646.078
        18.250          20.250
                  -6673550.841 5  -5200166.596 5  23013011.836    23013013.309
        10.250          11.000
                    -71981.503 6    -56087.848 6  23414626.945    23414628.430
        12.000          12.500
                   4936828.094 6   3846877.932 6  21501044.695    21501045.551
        19.000          19.500
                  -6888487.226 6  -5367649.873 6  22212145.820    22212147.000
        15.500          15.500
 95  4 28 15 36 30.0000000  0  7G 2G18G19G27G28G29G31
                   -946800.267 5   -737765.989 5  24357950.633    24357952.582
         7.500           6.250
                   -314819.012 7   -245313.335 6  20412442.023    20412442.953
        21.750          17.250
                  -2628909.559 6  -2048499.983 6  21092688.008    21092689.168
        18.250          20.250
                  -6699794.899 5  -5220616.499 5  23008017.695    23008019.270
        10.000          11.250
                    -55226.340 5    -43031.871 6  23417814.992    23417816.586
        11.500          12.250
                   4973362.936 6   3875346.625 6  21507996.805    21507997.934
        18.750          19.500
                  -6907019.954 6  -5382090.946 6  22208618.961    22208620.492
        15.250          15.500
 95  4 28 15 36 45.0000000  0  7G 2G18G19G27G28G29G31
                   -983351.945 4   -766247.802 5  24350994.477    24350997.840
         7.250           6.750
                   -300635.009 7   -234260.865 6  20415141.188    20415141.914
        21.750          17.250
                  -2633904.230 6  -2052391.932 6  21091737.539    21091738.652
        18.500          20.250
                  -6726025.726 5  -5241056.090 5  23003025.953    23003027.859
        10.000          11.250
                    -38341.252 5    -29874.663 5  23421028.266    23421029.559
        11.500          11.750
                   5009997.370 6   3903892.926 6  21514968.211    21514969.227
        18.750          19.500
                  -6925437.028 6  -5396441.902 6  22205114.281    22205115.734
        15.500          15.000
 95  4 28 15 37  0.0000000  0  7G 2G18G19G27G28G29G31
                  -1019868.443 4   -794702.202 5  24344046.227    24344049.418
         7.250           7.000
                   -286336.762 7   -223119.377 6  20417862.047    20417862.734
        21.750          17.000
                  -2638871.487 6  -2056262.516 6  21090792.445    21090793.711
        18.250          20.250
                  -6752253.619 5  -5261493.404 5  22998034.844    22998036.484
        10.000          11.000
                    -21334.079 5    -16622.328 5  23424264.523    23424265.730
        11.500          11.500
                   5046725.526 6   3932512.251 6  21521957.328    21521958.352
        18.750          19.500
                  -6943746.491 6  -5410709.011 6  22201630.133    22201631.250
        15.250          14.750
 95  4 28 15 37 15.0000000  0  7G 2G18G19G27G28G29G31
                  -1056336.201 4   -823118.613 5  24337105.891    24337108.980
         7.000           6.750
                   -271909.660 7   -211877.483 6  20420607.492    20420608.160
        21.750          17.250
                  -2643797.390 6  -2060100.885 6  21089855.172    21089856.207
        18.500          20.250
                  -6778463.653 5  -5281916.795 5  22993047.281    22993048.852
        10.000          11.000
                     -4191.670 5     -3264.613 5  23427526.859    23427527.441
        11.750          11.500
                   5083559.260 6   3961213.848 6  21528966.734    21528967.605
        18.750          19.250
                  -6961933.920 6  -5424881.027 6  22198169.125    22198170.340
        15.000          14.750
 95  4 28 15 37 30.0000000  0  7G 2G18G19G27G28G29G31
                  -1092764.460 4   -851504.258 5  24330174.578    24330176.258
         7.000           6.500
                   -257364.303 7   -200543.439 6  20423375.273    20423376.098
        21.750          17.250
                  -2648690.287 6  -2063913.526 6  21088923.867    21088925.277
        18.250          20.250
                  -6804668.052 5  -5302335.799 5  22988060.703    22988062.324
        10.000          11.250
                     13074.908 5     10189.858 5  23430812.664    23430813.234
        11.750          11.000
                   5120488.813 6   3989990.113 6  21535993.906    21535994.766
        18.750          19.250
                  -6980008.925 6  -5438965.428 6  22194729.422    22194730.875
        15.000          15.000
 95  4 28 15 37 45.0000000  0  7G 2G18G19G27G28G29G31
                  -1129148.599 4   -879855.525 5  24323250.867    24323253.465
         7.000           6.750
                   -242697.335 7   -189114.633 6  20426166.383    20426167.148
        21.750          17.250
                  -2653548.159 6  -2067698.879 6  21087999.516    21088000.641
        18.500          20.250
                  -6830866.018 5  -5322749.791 5  22983075.141    22983076.824
        10.000          11.250
                     30468.602 5     23743.381 5  23434122.570    23434122.871
        11.750          11.000
                   5157518.074 6   4018844.070 6  21543040.625    21543041.320
        18.750          19.000
                  -6997967.237 6  -5452958.901 6  22191312.195    22191313.625
        15.250          15.000
 95  4 28 15 38  0.0000000  0  7G 2G18G19G27G28G29G31
                  -1165491.563 5   -908174.708 5  24316334.469    24316338.172
         7.500           7.250
                   -227913.327 7   -177594.627 6  20428979.742    20428980.715
        21.500          17.250
                  -2658374.773 6  -2071459.873 6  21087081.219    21087082.301
        18.500          20.250
                  -6857059.995 5  -5343160.669 5  22978091.227    22978092.570
        10.250          11.250
                     47986.091 5     37393.365 5  23437456.211    23437456.504
        11.750          11.000
                   5194641.974 6   4047771.775 6  21550105.164    21550105.973
        18.750          19.250
                  -7015811.898 6  -5466863.820 6  22187916.648    22187918.168
        15.500          15.500
 95  4 28 15 38 15.0000000  0  7G 2G18G19G27G28G29G31
                  -1201791.814 4   -936460.599 5  24309427.281    24309429.621
         7.000           7.500
                   -213011.231 7   -165982.607 6  20431815.391    20431816.297
        21.250          17.250
                  -2663168.856 6  -2075195.519 6  21086169.063    21086170.074
        18.500          20.000
                  -6883248.651 5  -5363567.403 5  22973107.633    22973108.996
        10.250          11.250
                     65629.394 6     51141.381 5  23440813.813    23440814.188
        12.000          11.250
                   5231861.514 6   4076773.999 6  21557187.773    21557188.730
        18.500          19.500
                  -7033540.692 6  -5480678.450 6  22184542.711    22184544.176
        15.500          15.250
 95  4 28 15 38 30.0000000  0  7G 2G18G19G27G28G29G31
                  -1238038.636 4   -964704.844 5  24302529.273    24302532.172
         6.500           7.750
                   -197978.982 7   -154269.173 6  20434676.008    20434676.828
        21.250          17.250
                  -2667918.545 6  -2078896.573 6  21085265.188    21085266.102
        18.750          19.750
                  -6909421.362 5  -5383961.711 5  22968127.086    22968128.391
        10.250          11.250
                     83408.077 6     64994.887 5  23444197.195    23444197.695
        12.250          11.500
                   5269186.110 6   4105858.089 6  21564290.297    21564291.324
        18.250          19.250
                  -7051146.328 6  -5494397.111 6  22181192.969    22181194.258
        15.750          15.250
 95  4 28 15 38 45.0000000  0  7G 2G18G19G27G28G29G31
                  -1274237.015 4   -992911.350 5  24295641.188    24295644.512
         7.000           7.750
                   -182819.370 7   -142456.492 6  20437560.609    20437561.461
        21.250          17.250
                  -2672628.030 6  -2082566.299 6  21084369.063    21084369.930
        18.750          20.000
                  -6935583.411 5  -5404347.719 5  22963148.266    22963149.992
        10.250          11.500
                    101318.115 6     78950.756 5  23447605.211    23447606.105
        12.250          11.750
                   5306612.001 6   4135021.109 6  21571412.164    21571413.188
        18.250          19.750
                  -7068635.063 6  -5508024.683 6  22177864.688    22177866.051
        16.000          15.500
 95  4 28 15 39  0.0000000  0  7G 2G18G19G27G28G29G31
                  -1310386.225 4  -1021079.549 5  24288762.836    24288765.145
         7.250           7.750
                   -167531.812 7   -130544.109 6  20440469.898    20440470.859
        21.250          17.250
                  -2677295.579 6  -2086203.350 6  21083480.906    21083481.742
        18.750          20.000
                  -6961733.301 5  -5424724.244 5  22958172.422    22958173.730
        10.500          11.250
                    119362.311 6     93011.165 5  23451039.031    23451039.898
        12.000          11.750
                   5344139.394 6   4164263.219 6  21578553.336    21578554.430
        18.250          19.500
                  -7086006.605 6  -5521560.930 6  22174558.867    22174560.355
        15.750          15.250
 95  4 28 15 39 15.0000000  0  7G 2G18G19G27G28G29G31
                  -1346504.417 4  -1049223.580 5  24281888.969    24281891.668
         7.000           7.750
                   -152129.600 7   -118542.389 6  20443400.875    20443401.754
        21.250          17.250
                  -2681936.485 6  -2089819.638 6  21082597.742    21082598.457
        19.000          19.750
                  -6987884.808 5  -5445102.032 5  22953195.727    22953197.145
        10.750          11.500
                    137525.250 5    107164.091 5  23454495.102    23454496.184
        11.750          11.750
                   5381750.514 6   4193570.570 6  21585710.750    21585711.656
        18.250          19.500
                  -7103277.715 6  -5535018.923 6  22171272.289    22171273.410
        15.750          15.000
 95  4 28 15 39 30.0000000  0  7G 2G18G19G27G28G29G31
                  -1382580.584 4  -1077334.854 5  24275023.906    24275026.770
         7.000           8.000
                   -136603.703 7   -106444.287 6  20446355.406    20446356.316
        21.000          17.000
                  -2686540.510 6  -2093407.183 6  21081721.656    21081722.371
        18.750          19.500
                  -7014024.371 5  -5465470.516 5  22948222.000    22948222.984
        10.750          11.500
                    155819.601 5    121419.427 5  23457976.133    23457977.496
        11.750          11.750
                   5419458.114 6   4222953.108 6  21592886.313    21592887.367
        18.000          19.500
                  -7120436.981 6  -5548389.763 6  22168007.016    22168008.250
        15.750          14.750
 95  4 28 15 39 45.0000000  0  7G 2G18G19G27G28G29G31
                  -1418630.771 5  -1105425.863 5  24268164.242    24268166.996
         7.750           8.250
                   -120971.339 7    -94263.228 6  20449329.891    20449330.781
        21.000          17.250
                  -2691122.232 6  -2096977.356 6  21080849.648    21080850.547
        19.000          19.750
                  -7040167.989 5  -5485842.155 5  22943246.898    22943248.145
        11.000          11.500
                    174232.275 5    135766.955 5  23461479.953    23461481.430
        11.750          11.750
                   5457250.015 6   4252401.326 6  21600077.898    21600078.965
        18.250          19.500
                  -7137498.721 6  -5561684.613 6  22164760.297    22164761.512
        15.750          15.000
 95  4 28 15 40  0.0000000  0  7G 2G18G19G27G28G29G31
                  -1454646.501 5  -1133490.069 5  24261310.445    24261312.641
         8.000           8.000
                   -105221.548 7    -81990.669 6  20452327.016    20452327.977
        21.000          17.250
                  -2695671.869 6  -2100522.530 6  21079983.930    21079984.797
        19.000          19.750
                  -7066303.125 5  -5506207.195 5  22938273.539    22938274.984
        11.000          11.750
                    192775.377 5    150216.124 6  23465008.461    23465010.293
        11.750          12.000
                   5495137.704 6   4281924.188 6  21607287.602    21607288.609
        18.250          19.250
                  -7154449.622 6  -5574893.089 6  22161534.617    22161536.082
        16.250          15.500
 95  4 28 15 40 15.0000000  0  7G 2G18G19G27G28G29G31
                  -1490629.115 5  -1161528.450 5  24254462.945    24254465.176
         7.750           7.500
                    -89354.912 7    -69627.061 6  20455346.352    20455347.332
        21.000          17.250
                  -2700189.924 6  -2104043.085 6  21079124.000    21079125.035
        19.000          19.750
                  -7092431.456 5  -5526566.920 5  22933301.563    22933302.762
        11.000          11.750
                    211447.755 5    164766.023 6  23468561.609    23468563.508
        11.500          12.000
                   5533120.670 6   4311521.296 6  21614515.625    21614516.504
        18.250          19.500
                  -7171288.612 6  -5588014.359 6  22158330.148    22158331.754
        16.250          15.750
 95  4 28 15 40 30.0000000  0  7G 2G18G19G27G28G29G31
                  -1526584.085 5  -1189545.298 5  24247620.969    24247623.918
         7.750           7.750
                    -73376.698 7    -57176.507 6  20458386.969    20458387.945
        21.250          17.250
                  -2704681.075 6  -2107542.686 6  21078269.492    21078270.453
        19.000          19.750
                  -7118560.471 5  -5546927.179 5  22928329.336    22928330.590
        11.000          11.750
                    230242.283 5    179411.104 5  23472138.180    23472139.648
        11.750          11.750
                   5571192.647 6   4341187.759 6  21621760.367    21621761.520
        18.000          19.500
                  -7188022.369 6  -5601053.630 6  22155145.945    22155147.531
        16.500          16.000
 95  4 28 15 40 45.0000000  0  7G 2G18G19G27G28G29G31
                  -1562506.032 5  -1217536.401 5  24240784.961    24240788.301
         8.000           8.250
                    -57283.188 7    -44636.113 6  20461449.398    20461450.340
        21.000          17.250
                  -2709143.160 6  -2111019.636 6  21077420.469    21077421.285
        18.750          19.500
                  -7144684.893 5  -5567283.861 5  22923357.797    22923359.246
        10.750          11.500
                    249163.007 5    194154.519 5  23475738.523    23475740.086
        11.750          11.250
                   5609356.686 6   4370925.952 6  21629022.695    21629023.750
        17.750          19.250
                  -7204648.063 6  -5614008.693 6  22151982.227    22151983.488
        16.250          15.750
 95  4 28 15 41  0.0000000  0  7G 2G18G19G27G28G29G31
                  -1598403.204 5  -1245508.196 5  24233954.383    24233957.398
         8.500           8.750
                    -41084.465 7    -32013.736 6  20464531.906    20464532.684
        21.250          17.250
                  -2713584.792 6  -2114480.644 6  21076575.023    21076575.961
        18.750          19.750
                  -7170812.459 5  -5587643.002 5  22918385.750    22918387.441
        10.750          11.750
                    268202.568 5    208990.542 5  23479361.844    23479363.094
        11.750          11.250
                   5647604.429 6   4400729.378 6  21636300.984    21636302.125
        18.000          19.500
                  -7221171.342 6  -5626883.955 6  22148837.906    22148839.215
        16.250          16.000
 95  4 28 15 41 15.0000000  0  7G 2G18G19G27G28G29G31
                  -1634265.550 5  -1273452.863 5  24227130.109    24227132.672
         8.250           8.250
                    -24770.953 7    -19301.915 6  20467636.203    20467636.977
        21.250          17.250
                  -2717996.441 6  -2117918.294 6  21075735.438    21075736.320
        19.000          20.000
                  -7196931.774 5  -5607995.694 5  22913415.375    22913416.918
        10.750          11.750
                    287370.436 5    223926.536 5  23483009.406    23483010.340
        11.750          11.000
                   5685944.756 6   4430604.941 6  21643596.844    21643598.008
        18.000          19.500
                  -7237579.965 6  -5639669.875 6  22145715.344    22145716.949
        16.250          16.250
 95  4 28 15 41 30.0000000  0  7G 2G18G19G27G28G29G31
                  -1670096.501 5  -1301373.056 5  24220311.250    24220313.957
         7.500           7.750
                     -8351.198 7     -6507.305 6  20470760.844    20470761.711
        21.000          17.250
                  -2722386.113 6  -2121338.817 6  21074900.289    21074901.094
        19.000          19.750
                  -7223050.078 5  -5628347.613 5  22908445.375    22908446.750
        10.750          11.750
                    306659.022 5    238956.602 5  23486680.070    23486680.531
        11.750          10.750
                   5724370.920 6   4460547.396 6  21650909.180    21650910.258
        18.000          19.250
                  -7253878.079 6  -5652369.680 6  22142614.195    22142615.461
        16.250          15.750
 95  4 28 15 41 45.0000000  0  7G 2G18G19G27G28G29G31
                  -1705889.113 5  -1329263.380 5  24213500.469    24213502.629
         7.750           7.750
                      8179.624 7      6373.846 6  20473906.555    20473907.535
        21.000          17.250
                  -2726748.788 6  -2124738.304 6  21074070.164    21074071.082
        18.750          19.750
                  -7249164.065 5  -5648696.166 5  22903475.844    22903477.199
        10.750          11.500
                    326073.678 5    254084.896 5  23490374.570    23490374.789
        11.750          10.250
                   5762889.390 6   4490561.774 6  21658239.109    21658240.070
        18.000          19.000
                  -7270058.985 6  -5664978.167 6  22139534.992    22139536.004
        16.500          15.750
 95  4 28 15 42  0.0000000  0  7G 2G18G19G27G28G29G31
                  -1741638.487 5  -1357120.017 5  24206697.633    24206700.082
         8.250           8.250
                     24829.211 7     19347.546 6  20477074.945    20477075.668
        21.250          17.250
                  -2731078.393 6  -2128112.018 6  21073246.195    21073247.047
        19.000          19.750
                  -7275271.598 5  -5669039.685 5  22898507.555    22898509.129
        10.250          11.500
                    345616.930 5    269313.393 5  23494093.633    23494093.570
        11.750          10.250
                   5801502.658 6   4520650.023 6  21665587.055    21665588.004
        18.000          19.000
                  -7286117.516 6  -5677491.289 6  22136478.875    22136480.191
        16.500          15.750
 95  4 28 15 42 15.0000000  0  7G 2G18G19G27G28G29G31
                  -1777341.765 5  -1384940.731 5  24199903.375    24199905.824
         7.750           8.000
                     41599.705 7     32415.456 6  20480266.398    20480267.129
        21.250          17.250
                  -2735373.547 6  -2131458.893 6  21072429.055    21072429.773
        19.000          19.750
                  -7301370.210 5  -5689376.259 5  22893541.250    22893542.570
        10.500          11.500
                    365287.049 5    284640.747 5  23497836.781    23497836.625
        11.750          10.250
                   5840209.186 6   4550810.941 6  21672952.547    21672953.660
        17.750          18.750
                  -7302055.947 6  -5689910.829 6  22133446.008    22133447.188
        16.500          16.000
 95  4 28 15 42 30.0000000  0  7G 2G18G19G27G28G29G31
                  -1812997.141 5  -1412724.110 5  24193118.305    24193120.832
         7.750           7.750
                     58493.001 7     45579.061 6  20483480.930    20483481.836
        21.250          17.250
                  -2739631.423 6  -2134776.717 6  21071618.695    21071619.484
        19.000          19.750
                  -7327458.855 5  -5709705.064 5  22888576.781    22888577.949
        10.500          11.500
                    385083.808 5    300066.795 5  23501603.781    23501604.027
        11.500          10.250
                   5879008.910 6   4581044.480 6  21680335.992    21680336.867
        17.750          18.500
                  -7317875.381 6  -5702237.645 6  22130435.641    22130437.039
        16.500          16.250
 95  4 28 15 42 45.0000000  0  7G 2G18G19G27G28G29G31
                  -1848612.157 5  -1440476.048 5  24186341.281    24186343.668
         8.250           7.750
                     75500.133 7     58831.363 6  20486717.461    20486718.391
        21.250          17.500
                  -2743860.529 6  -2138072.125 6  21070813.984    21070814.586
        19.500          20.000
                  -7353542.022 5  -5730029.602 5  22883613.297    22883614.488
        10.750          11.250
                    404999.661 5    315585.631 5  23505393.594    23505394.070
        11.750          10.250
                   5917895.302 6   4611345.553 6  21687735.969    21687736.828
        17.750          18.750
                  -7333582.818 6  -5714477.195 6  22127447.000    22127448.426
        16.500          16.750
 95  4 28 15 43  0.0000000  0  7G 2G18G19G27G28G29G31
                  -1884193.152 5  -1468201.488 5  24179570.383    24179572.359
         8.250           7.750
                     92615.922 7     72168.337 6  20489974.477    20489975.344
        21.250          17.250
                  -2748062.924 6  -2141346.718 6  21070014.367    21070015.066
        19.500          20.000
                  -7379625.296 5  -5750354.220 5  22878650.086    22878650.836
        11.000          11.250
                    425030.767 5    331194.281 5  23509205.492    23509205.879
        11.500          10.250
                   5956867.124 6   4641713.194 6  21695151.906    21695152.906
        17.750          18.750
                  -7349179.085 6  -5726630.110 6  22124478.828    22124480.254
        16.250          16.500
 95  4 28 15 43 15.0000000  0  7G 2G18G19G27G28G29G31
                  -1919732.213 5  -1495894.241 5  24172807.211    24172809.984
         7.750           8.000
                    109849.708 7     85597.253 6  20493253.914    20493254.750
        21.250          17.250
                  -2752225.198 6  -2144590.049 6  21069222.305    21069222.984
        19.500          20.000
                  -7405700.684 5  -5770672.694 5  22873688.242    22873689.207
        11.000          11.500
                    445186.565 5    346900.090 5  23513040.914    23513041.738
        11.500          10.750
                   5995934.506 6   4672155.301 6  21702586.156    21702587.086
        17.750          18.500
                  -7364651.994 6  -5738686.908 6  22121534.234    22121535.715
        16.250          16.500
 95  4 28 15 43 30.0000000  0  7G 2G18G19G27G28G29G31
                  -1955226.889 5  -1523552.387 5  24166052.672    24166055.328
         7.750           8.250
                    127201.506 7     99118.130 6  20496555.844    20496556.695
        21.250          17.250
                  -2756346.378 6  -2147801.355 6  21068438.102    21068438.844
        19.500          20.250
                  -7431768.511 5  -5790985.276 5  22868727.672    22868728.883
        11.000          11.750
                    465467.500 5    362703.413 5  23516900.242    23516901.086
        11.500          10.750
                   6035097.399 6   4702671.827 6  21710038.531    21710039.805
        17.500          18.750
                  -7379999.143 6  -5750645.711 6  22118613.867    22118615.391
        16.250          16.500
 95  4 28 15 43 45.0000000  0  7G 2G18G19G27G28G29G31
                  -1990676.157 5  -1551175.169 5  24159307.195    24159309.754
         8.250           8.000
                    144672.929 7    112732.218 6  20499880.563    20499881.293
        21.500          17.250
                  -2760424.592 6  -2150979.182 6  21067662.125    21067662.980
        19.500          20.250
                  -7457827.138 5  -5811290.689 5  22863768.813    22863770.020
        11.250          11.750
                    485875.413 5    378605.685 5  23520783.398    23520784.930
        11.250          11.000
                   6074357.849 6   4733264.368 6  21717509.586    21717510.801
        17.250          18.750
                  -7395219.256 6  -5762505.525 6  22115717.625    22115719.070
        16.500          16.500
 95  4 28 15 44  0.0000000  0  7G 2G18G19G27G28G29G31
                  -2026088.155 5  -1578768.915 5  24152568.102    24152570.703
         8.000           7.750
                    162260.040 7    126436.454 6  20503227.414    20503227.914
        21.750          17.250
                  -2764462.768 6  -2154125.810 6  21066893.727    21066894.648
        19.500          20.250
                  -7483882.679 5  -5831593.700 5  22858810.938    22858811.797
        11.500          11.750
                    506405.484 5    394603.140 5  23524689.984    23524691.461
        11.000          11.250
                   6113708.571 6   4763927.259 6  21724997.680    21724998.855
        17.250          18.500
                  -7410318.681 6  -5774271.303 6  22112844.625    22112845.832
        16.750          16.250
 95  4 28 15 44 15.0000000  0  7G 2G18G19G27G28G29G31
                  -2061460.382 5  -1606331.666 5  24145837.133    24145839.898
         8.000           7.750
                    179962.174 7    140230.315 6  20506596.094    20506596.586
        21.750          17.000
                  -2768461.809 6  -2157241.952 6  21066132.570    21066133.477
        19.500          20.250
                  -7509933.193 5  -5851892.799 6  22853853.523    22853854.629
        11.500          12.000
                    527058.038 5    410696.040 5  23528620.156    23528621.570
        11.250          11.000
                   6153147.851 6   4794659.147 6  21732502.695    21732503.906
        17.000          18.750
                  -7425296.356 6  -5785942.209 6  22109993.906    22109995.527
        16.500          16.500
 95  4 28 15 44 30.0010000  0  7G 2G18G19G27G28G29G31
                  -2096797.951 5  -1633867.408 5  24139112.677    24139115.435
         8.000           7.750
                    197778.837 7    154113.424 6  20509986.442    20509987.001
        21.750          17.000
                  -2772426.205 6  -2160331.087 6  21065378.028    21065379.013
        19.500          20.000
                  -7535980.395 5  -5872189.310 6  22848896.638    22848897.993
        11.500          12.000
                    547834.477 5    426885.463 5  23532573.825    23532575.396
        11.250          11.000
                   6192677.341 6   4825461.334 6  21740024.981    21740026.177
        17.000          18.250
                  -7440152.352 6  -5797518.297 6  22107166.958    22107168.224
        16.250          16.250
 95  4 28 15 44 45.0010000  0  7G 2G18G19G27G28G29G31
                  -2132095.566 5  -1661372.016 5  24132395.958    24132398.751
         8.250           8.000
                    215707.605 7    168083.884 6  20513397.989    20513398.587
        21.750          17.000
                  -2776357.600 6  -2163394.517 6  21064629.903    21064630.856
        19.500          19.750
                  -7562019.486 5  -5892479.494 6  22843941.771    22843942.794
        11.500          12.000
                    568734.701 5    443171.350 5  23536551.153    23536552.380
        11.000          10.750
                   6232294.049 6   4856331.478 6  21747563.872    21747564.767
        17.000          18.000
                  -7454880.110 6  -5808994.462 6  22104364.161    22104365.731
        15.750          16.250
 95  4 28 15 45  0.0010000  0  7G 2G18G19G27G28G29G31
                  -2167353.090 5  -1688845.386 5  24125686.255    24125689.333
         7.750           7.750
                    233749.152 7    182142.224 6  20516831.349    20516832.001
        21.750          17.250
                  -2780259.076 6  -2166434.623 6  21063887.403    21063888.458
        19.250          19.750
                  -7588053.902 5  -5912766.047 6  22838987.638    22838988.493
        11.500          12.000
                    589760.868 5    459555.373 5  23540552.481    23540553.536
        11.500          11.000
                   6271999.400 6   4887270.705 6  21755119.481    21755120.388
        17.250          17.750
                  -7469478.908 6  -5820370.135 6  22101586.083    22101587.806
        15.750          16.500
 95  4 28 15 45 15.0010000  0  7G 2G18G19G27G28G29G31
                  -2202569.273 5  -1716286.531 5  24118985.208    24118987.665
         7.750           7.750
                    251905.008 7    196289.640 6  20520286.466    20520287.063
        21.750          17.250
                  -2784133.647 6  -2169453.767 6  21063150.185    21063151.235
        19.250          19.750
                  -7614086.187 5  -5933050.936 6  22834033.653    22834034.813
        11.750          12.250
                    610911.495 5    476036.375 5  23544577.388    23544578.493
        11.250          11.000
                   6311787.995 6   4918274.792 6  21762691.161    21762692.067
        17.250          17.750
                  -7483951.662 6  -5831647.591 6  22098832.091    22098833.462
        16.000          16.500
 95  4 28 15 45 30.0010000  0  7G 2G18G19G27G28G29G31
                  -2237743.859 5  -1743695.278 5  24112291.810    24112294.126
         8.250           7.750
                    270173.576 7    210524.882 6  20523762.817    20523763.454
        21.750          17.250
                  -2787989.251 6  -2172458.132 6  21062416.466    21062417.411
        19.250          19.750
                  -7640117.926 5  -5953335.402 6  22829080.114    22829081.528
        11.750          12.250
                    632183.595 5    492612.029 5  23548625.263    23548626.345
        11.000          11.000
                   6351651.277 6   4949337.078 6  21770277.005    21770277.517
        17.250          17.250
                  -7498304.168 6  -5842831.348 6  22096101.060    22096102.235
        16.250          16.500
 95  4 28 15 45 45.0010000  0  7G 2G18G19G27G28G29G31
                  -2272876.111 5  -1771071.035 5  24105605.935    24105609.204
         8.250           8.250
                    288556.132 7    224848.944 6  20527260.927    20527261.649
        21.750          17.500
                  -2791827.816 6  -2175449.222 6  21061686.060    21061686.923
        19.250          19.750
                  -7666148.703 5  -5973619.111 6  22824126.481    22824127.853
        11.750          12.500
                    653576.220 5    509281.594 5  23552696.364    23552697.317
        11.500          10.750
                   6391590.117 6   4980458.238 6  21777876.903    21777877.782
        17.250          17.500
                  -7512539.711 6  -5853923.971 6  22093392.419    22093393.396
        16.500          16.500
 95  4 28 15 46  0.0010000  0  7G 2G18G19G27G28G29G31
                  -2307965.334 5  -1798413.248 5  24098928.981    24098931.524
         8.250           8.000
                    307057.274 7    239265.414 6  20530781.638    20530782.427
        21.750          17.250
                  -2795647.301 6  -2178425.441 6  21060959.239    21060960.044
        19.000          19.500
                  -7692174.826 5  -5993899.195 6  22819173.903    22819175.290
        11.750          12.250
                    675091.862 5    526047.020 5  23556791.255    23556791.360
        11.750          10.500
                   6431608.169 6   5011641.121 6  21785492.091    21785493.306
        17.000          17.750
                  -7526659.284 6  -5864926.226 6  22090705.294    22090706.470
        16.250          16.250
 95  4 28 15 46 15.0010000  0  7G 2G18G19G27G28G29G31
                  -2343006.795 5  -1825718.262 5  24092260.599    24092263.259
         8.250           7.750
                    325683.035 7    253778.987 6  20534325.692    20534326.458
        21.500          17.500
                  -2799444.479 6  -2181384.279 6  21060236.763    21060237.333
        19.000          19.750
                  -7718191.885 5  -6014172.224 6  22814222.864    22814224.235
        11.500          12.500
                    696733.876 5    542910.923 5  23560909.388    23560909.610
        11.750          10.250
                   6471710.955 6   5042890.030 6  21793123.372    21793124.411
        17.250          17.750
                  -7540660.151 6  -5875835.987 6  22088041.044    22088042.122
        16.250          16.250
 95  4 28 15 46 30.0010000  0  7G 2G18G19G27G28G29G31
                  -2378002.140 5  -1852987.342 5  24085601.364    24085603.731
         8.250           7.750
                    344432.689 7    268389.103 6  20537893.731    20537894.517
        21.500          17.500
                  -2803221.826 6  -2184327.665 6  21059517.989    21059518.540
        19.000          19.500
                  -7744198.932 5  -6034437.444 6  22809274.153    22809275.313
        11.750          12.500
                    718500.389 5    559871.829 5  23565051.372    23565051.743
        11.750          10.500
                   6511899.916 6   5074206.088 6  21800771.192    21800772.220
        17.250          18.000
                  -7554545.896 6  -5886656.039 6  22085398.739    22085400.106
        16.250          16.250
 95  4 28 15 46 45.0010000  0  7G 2G18G19G27G28G29G31
                  -2412959.960 5  -1880227.189 5  24078948.724    24078951.544
         8.250           8.000
                    363300.400 7    283091.204 6  20541484.200    20541484.856
        21.500          17.500
                  -2806984.171 6  -2187259.364 6  21058801.810    21058802.642
        19.000          19.750
                  -7770203.903 5  -6054701.054 6  22804325.161    22804326.782
        11.500          12.500
                    740384.073 5    576924.042 5  23569215.622    23569215.962
        11.750          10.250
                   6552169.734 6   5105585.151 6  21808434.302    21808435.192
        17.750          18.000
                  -7568323.731 6  -5897392.008 6  22082776.739    22082778.134
        16.250          16.500
 95  4 28 15 47  0.0010000  0  7G 2G18G19G27G28G29G31
                  -2447876.258 5  -1907434.669 5  24072304.599    24072307.524
         8.250           8.250
                    382289.234 7    297887.693 6  20545097.669    20545098.380
        21.750          17.500
                  -2810724.862 6  -2190174.191 6  21058090.146    21058091.001
        19.000          19.750
                  -7796204.700 5  -6074961.411 6  22799377.638    22799379.087
        11.500          12.500
                    762387.849 5    594069.831 5  23573402.560    23573403.091
        11.500          10.250
                   6592523.631 6   5137029.731 6  21816113.427    21816114.333
        17.250          17.750
                  -7581990.557 6  -5908041.477 6  22080175.966    22080177.177
        16.250          16.500
 95  4 28 15 47 15.0010000  0  7G 2G18G19G27G28G29G31
                  -2482761.775 5  -1934618.168 5  24065665.974    24065668.692
         8.500           8.000
                    401388.812 7    312770.475 6  20548732.239    20548733.052
        21.750          17.750
                  -2814449.425 6  -2193076.445 6  21057381.224    21057382.196
        19.000          20.000
                  -7822213.952 5  -6095228.351 6  22794428.028    22794429.731
        11.500          12.500
                    784500.896 5    611300.771 5  23577610.458    23577610.833
        11.500          10.250
                   6632953.224 6   5168533.295 6  21823807.052    21823807.845
        17.500          17.750
                  -7595558.480 6  -5918613.873 6  22077594.317    22077595.626
        16.500          17.000
 95  4 28 15 47 30.0010000  0  7G 2G18G19G27G28G29G31
                  -2517609.326 5  -1961772.082 5  24059034.935    24059037.544
         8.500           8.250
                    420607.433 7    327746.017 6  20552389.427    20552390.106
        21.750          17.500
                  -2818146.290 6  -2195957.115 6  21056677.747    21056678.903
        18.750          20.000
                  -7848221.922 5  -6115494.291 6  22789478.849    22789480.267
        11.500          12.500
                    806733.244 5    628624.673 5  23581840.888    23581841.384
        11.250          10.000
                   6673469.557 6   5200104.451 6  21831516.966    21831517.853
        17.250          17.250
                  -7609019.463 6  -5929102.945 6  22075032.786    22075033.903
        16.500          17.000
 95  4 28 15 47 45.0010000  0  7G 2G18G19G27G28G29G31
                  -2552420.038 5  -1988897.280 5  24052410.005    24052413.321
         8.250           8.500
                    439945.413 7    342814.572 6  20556069.185    20556069.868
        21.500          17.500
                  -2821811.580 6  -2198813.186 6  21055980.231    21055981.321
        19.000          20.250
                  -7874227.738 5  -6135758.559 6  22784530.294    22784531.583
        11.500          12.500
                    829085.734 5    646042.191 5  23586094.364    23586094.759
        11.500           9.750
                   6714077.627 6   5231747.086 6  21839244.481    21839245.294
        17.500          17.500
                  -7622372.052 6  -5939507.551 6  22072491.731    22072492.915
        16.500          17.000
 95  4 28 15 48  0.0010000  0  7G 2G18G19G27G28G29G31
                  -2587189.669 5  -2015990.469 5  24045794.044    24045796.778
         8.250           8.250
                    459406.510 7    357979.056 6  20559772.599    20559773.356
        21.250          17.750
                  -2825438.049 6  -2201639.006 6  21055290.325    21055291.251
        19.000          20.000
                  -7900226.052 5  -6156016.984 6  22779582.997    22779584.274
        11.750          12.250
                    851563.654 5    663557.438 5  23590371.794    23590371.997
        11.250           9.750
                   6754785.424 6   5263467.434 6  21846991.021    21846991.700
        17.750          17.500
                  -7635607.809 6  -5949821.119 6  22069973.122    22069974.552
        16.500          17.000
 95  4 28 15 48 15.0010000  0  7G 2G18G19G27G28G29G31
                  -2621924.138 5  -2043056.267 5  24039184.247    24039186.626
         8.750           8.250
                    478982.512 7    373233.076 6  20563497.794    20563498.606
        21.250          17.750
                  -2829029.966 6  -2204437.901 6  21054606.771    21054607.524
        19.000          20.000
                  -7926222.795 5  -6176274.177 6  22774635.755    22774637.224
        11.500          12.250
                    874160.742 5    681165.552 5  23594671.911    23594671.915
        11.250           9.750
                   6795582.951 6   5295257.705 6  21854754.685    21854755.368
        17.750          17.750
                  -7648730.119 6  -5960046.291 6  22067475.794    22067476.919
        16.250          16.750
 95  4 28 15 48 30.0010000  0  7G 2G18G19G27G28G29G31
                  -2656608.475 5  -2070083.006 5  24032583.903    24032586.540
         8.750           8.250
                    498684.792 7    388585.494 6  20567247.021    20567247.942
        21.250          17.750
                  -2832571.926 6  -2207197.871 6  21053932.716    21053933.603
        19.000          19.750
                  -7952206.078 5  -6196520.887 6  22769691.380    22769692.688
        11.750          12.250
                    896889.931 5    698876.602 5  23598997.067    23598997.282
        11.250           9.750
                   6836480.767 6   5327126.115 6  21862537.271    21862537.993
        17.750          18.000
                  -7661722.483 6  -5970170.206 6  22065003.685    22065004.728
        16.250          16.500
 95  4 28 15 48 45.0010000  0  7G 2G18G19G27G28G29G31
                  -2691254.007 5  -2097079.497 5  24025991.067    24025993.563
         9.000           8.500
                    518501.192 7    404026.836 6  20571018.005    20571018.915
        21.500          17.750
                  -2836074.573 6  -2209927.207 6  21053266.224    21053266.927
        19.000          19.750
                  -7978186.764 5  -6216765.574 6  22764747.481    22764748.942
        11.500          12.500
                    919740.577 5    716682.288 5  23603345.114    23603345.497
        11.000           9.500
                   6877464.857 6   5359061.757 6  21870336.325    21870337.013
        17.750          17.750
                  -7674592.514 6  -5980198.798 6  22062554.513    22062555.712
        16.000          16.500
 95  4 28 15 49  0.0010000  0  7G 2G18G19G27G28G29G31
                  -2725860.391 5  -2124045.491 5  24019405.888    24019408.313
         9.000           8.500
                    538429.872 7    419555.673 6  20574810.216    20574810.946
        21.500          17.750
                  -2839539.748 6  -2212627.343 6  21052606.872    21052607.696
        19.000          19.750
                  -8004166.556 5  -6237009.557 6  22759803.411    22759804.860
        11.500          12.500
                    942712.058 5    734582.143 5  23607716.661    23607717.384
        11.250          10.000
                   6918532.543 6   5391062.539 6  21878151.153    21878151.896
        17.250          18.000
                  -7687338.695 6  -5990130.871 6  22060128.974    22060130.118
        16.250          16.500
 95  4 28 15 49 15.0010000  0  7G 2G18G19G27G28G29G31
                  -2760430.922 5  -2150983.551 5  24012827.044    24012829.798
         9.000           8.500
                    558466.235 7    435168.415 6  20578623.083    20578623.739
        21.500          17.750
                  -2842972.692 6  -2215302.361 6  21051953.661    21051954.341
        19.000          19.750
                  -8030146.180 5  -6257253.420 6  22754859.856    22754861.118
        11.750          12.500
                    965801.628 5    752574.010 5  23612110.872    23612111.310
        11.500          10.250
                   6959681.045 6   5423126.288 6  21885981.466    21885982.399
        17.250          18.000
                  -7699966.162 6  -5999970.454 6  22057726.341    22057727.079
        16.500          16.500
 95  4 28 15 49 30.0010000  0  7G 2G18G19G27G28G29G31
                  -2794945.339 5  -2177877.871 5  24006259.247    24006261.981
         9.000           9.000
                    578630.470 7    450880.798 6  20582460.271    20582460.978
        21.500          17.750
                  -2846355.924 6  -2217938.648 6  21051309.810    21051310.536
        19.000          19.500
                  -8056104.102 5  -6277480.365 6  22749920.185    22749921.786
        11.750          12.500
                    989028.674 5    770672.996 5  23616531.075    23616531.313
        11.500          10.250
                   7000928.011 6   5455266.766 6  21893830.271    21893831.415
        17.000          17.750
                  -7712455.049 6  -6009702.047 6  22055349.685    22055350.849
        16.250          17.000
 95  4 28 15 49 45.0010000  0  7G 2G18G19G27G28G29G31
                  -2829410.174 5  -2204733.565 5  23999700.810    23999703.321
         9.250           9.000
                    598918.888 7    466689.949 6  20586321.083    20586321.763
        21.500          17.750
                  -2849697.763 6  -2220542.682 6  21050673.763    21050674.485
        18.750          19.500
                  -8082043.661 5  -6297693.008 6  22744984.052    22744985.294
        11.750          12.500
                   1012386.645 5    788873.996 5  23620975.958    23620976.251
        11.500          10.500
                   7042264.908 6   5487477.318 6  21901696.489    21901697.446
        17.000          17.750
                  -7724808.551 6  -6019328.146 6  22052998.692    22052999.923
        16.250          17.000
 95  4 28 15 50  0.0010000  0  7G 2G18G19G27G28G29G31
                  -2863839.014 5  -2231561.220 5  23993149.153    23993151.767
         9.000           8.750
                    619318.767 7    482585.951 6  20590202.981    20590203.720
        21.250          17.250
                  -2853011.680 6  -2223124.960 6  21050043.177    21050043.849
        18.750          19.000
                  -8107976.153 5  -6317900.137 6  22740049.091    22740050.864
        11.750          12.500
                   1035861.665 5    807166.212 5  23625443.005    23625443.813
        11.500          10.750
                   7083677.575 6   5519746.916 6  21909577.028    21909577.978
        17.000          17.500
                  -7737037.306 6  -6028857.031 6  22050671.653    22050672.931
        16.000          17.000
 95  4 28 15 50 15.0010000  0  7G 2G18G19G27G28G29G31
                  -2898230.237 5  -2258359.552 5  23986604.903    23986607.396
         9.000           9.000
                    639831.680 7    498570.034 6  20594106.567    20594107.173
        21.500          17.250
                  -2856297.231 6  -2225685.126 6  21049417.802    21049418.438
        18.750          19.000
                  -8133898.288 5  -6338099.199 6  22735116.606    22735117.837
        11.750          12.500
                   1059455.507 5    825551.008 5  23629932.630    23629933.716
        11.000          11.000
                   7125165.800 6   5552075.387 6  21917472.146    21917473.122
        17.000          17.750
                  -7749138.581 6  -6038286.579 6  22048368.724    22048370.126
        15.750          17.000
 95  4 28 15 50 30.0010000  0  7G 2G18G19G27G28G29G31
                  -2932585.173 5  -2285129.619 5  23980067.153    23980069.860
         9.000           9.000
                    660458.592 7    514642.943 6  20598031.810    20598032.267
        21.500          17.250
                  -2859557.734 6  -2228225.779 6  21048797.481    21048798.048
        18.750          19.000
                  -8159811.755 5  -6358291.515 6  22730185.388    22730186.735
        11.750          12.500
                   1083167.015 5    844027.500 5  23634444.856    23634446.067
        11.500          11.250
                   7166728.207 6   5584461.664 6  21925381.271    21925382.130
        17.250          17.500
                  -7761115.666 6  -6047619.366 6  22046089.583    22046090.626
        15.750          16.500
 95  4 28 15 50 45.0010000  0  7G 2G18G19G27G28G29G31
                  -2966905.940 5  -2311873.053 5  23973536.224    23973538.970
         9.000           9.250
                    681198.990 7    530804.290 6  20601978.638    20601979.040
        21.500          17.500
                  -2862797.017 6  -2230749.900 6  21048180.911    21048181.466
        18.750          19.000
                  -8185717.228 6  -6378477.589 6  22725256.075    22725256.931
        12.250          12.750
                   1106995.855 5    862595.418 5  23638979.466    23638980.829
        11.500          11.500
                   7208368.387 6   5616908.549 6  21933305.122    21933305.876
        17.250          17.750
                  -7772968.129 6  -6056855.045 6  22043834.200    22043835.126
        16.250          16.500
 95  4 28 15 51  0.0010000  0  7G 2G18G19G27G28G29G31
                  -3001187.719 5  -2338586.106 5  23967012.833    23967015.653
         9.000           9.500
                    702057.403 7    547057.594 6  20605947.763    20605948.450
        21.250          17.500
                  -2866012.023 6  -2233255.100 6  21047569.294    21047569.946
        18.750          19.000
                  -8211608.658 6  -6398652.723 6  22720328.817    22720329.833
        12.250          12.750
                   1130947.241 5    881258.834 5  23643537.146    23643538.536
        11.000          11.500
                   7250096.483 6   5649423.934 6  21941245.646    21941246.860
        17.000          18.000
                  -7784692.977 6  -6065991.283 6  22041603.036    22041604.095
        16.250          16.500
 95  4 28 15 51 15.0010000  0  7G 2G18G19G27G28G29G31
                  -3035432.173 5  -2365270.068 5  23960496.044    23960498.771
         9.000           9.250
                    723030.931 7    563400.597 6  20609938.724    20609939.634
        21.000          17.500
                  -2869203.947 6  -2235742.317 6  21046961.872    21046962.563
        18.750          19.000
                  -8237488.141 6  -6418818.548 6  22715404.106    22715405.521
        12.000          12.500
                   1155018.709 5    900015.814 5  23648117.685    23648119.177
        11.000          11.500
                   7291910.961 6   5682006.628 6  21949202.591    21949203.763
        16.750          17.750
                  -7796294.295 6  -6075031.261 6  22039395.474    22039396.399
        16.250          16.250
 95  4 28 15 51 30.0010000  0  7G 2G18G19G27G28G29G31
                  -3069640.678 5  -2391926.024 5  23953986.450    23953989.208
         9.000           9.000
                    744116.746 7    579831.097 6  20613951.161    20613952.130
        21.000          17.750
                  -2872371.298 6  -2238210.384 6  21046358.981    21046359.782
        18.750          19.250
                  -8263360.077 6  -6438978.490 6  22710480.825    22710482.122
        12.250          12.750
                   1179207.295 5    918864.051 5  23652720.630    23652722.056
        10.750          11.250
                   7333809.976 6   5714655.203 6  21957175.536    21957176.915
        16.500          17.750
                  -7807773.771 6  -6083976.300 6  22037210.864    22037211.798
        16.250          16.500
 95  4 28 15 51 45.0010000  0  7G 2G18G19G27G28G29G31
                  -3103805.659 5  -2418548.077 5  23947485.224    23947487.888
         9.000           9.000
                    765320.563 7    596353.545 6  20617986.114    20617987.063
        21.000          17.750
                  -2875507.243 6  -2240653.978 6  21045762.349    21045763.149
        18.750          19.250
                  -8289222.281 6  -6459130.852 6  22705559.466    22705560.595
        12.250          12.500
                   1203518.183 5    937807.587 5  23657346.364    23657348.282
        10.750          11.250
                   7375796.469 6   5747371.933 6  21965165.591    21965166.767
        17.000          17.750
                  -7819123.930 6  -6092820.570 6  22035050.974    22035052.185
        16.000          17.000
 95  4 28 15 52  0.0010000  0  7G 2G18G19G27G28G29G31
                  -3137929.674 5  -2445138.205 5  23940991.231    23940994.271
         9.000           9.250
                    786636.107 7    612963.049 6  20622042.458    20622043.200
        21.000          17.750
                  -2878614.706 6  -2243075.377 6  21045171.060    21045172.036
        19.000          19.500
                  -8315079.763 6  -6479279.540 6  22700638.864    22700639.989
        12.250          12.750
                   1227947.404 5    956843.335 5  23661995.247    23661996.950
        10.750          11.250
                   7417868.473 6   5780155.298 6  21973171.653    21973172.896
        17.000          17.750
                  -7830350.868 6  -6101568.822 6  22032914.583    22032915.919
        16.250          17.250
 95  4 28 15 52 15.0010000  0  7G 2G18G19G27G28G29G31
                  -3172010.468 5  -2471694.651 5  23934506.192    23934508.735
         9.000           9.000
                    808061.671 7    629658.288 6  20626119.583    20626120.313
        21.000          17.750
                  -2881693.776 6  -2245474.658 6  21044585.083    21044586.024
        18.750          19.500
                  -8340932.889 6  -6499424.829 6  22695719.169    22695720.259
        12.250          12.750
                   1252494.375 5    975970.832 5  23666666.646    23666668.087
        11.000          11.250
                   7460027.104 6   5813006.163 6  21981194.356    21981195.274
        17.250          17.500
                  -7841457.058 6  -6110222.985 6  22030801.161    22030802.521
        16.250          17.500
 95  4 28 15 52 30.0010000  0  7G 2G18G19G27G28G29G31
                  -3206041.109 5  -2498212.014 5  23928030.208    23928033.208
         9.000           9.250
                    829602.175 7    646443.090 6  20630218.552    20630219.388
        21.000          17.750
                  -2884740.598 6  -2247848.803 6  21044005.177    21044006.286
        18.750          19.500
                  -8366780.196 6  -6519565.581 6  22690800.599    22690801.899
        12.250          12.750
                   1277163.675 5    995193.657 5  23671361.544    23671362.610
        11.500          11.000
                   7502277.497 6   5845928.541 6  21989234.544    21989235.614
        17.250          17.250
                  -7852441.853 6  -6118782.555 6  22028711.005    22028712.192
        16.250          17.250
 95  4 28 15 52 45.0010000  0  7G 2G18G19G27G28G29G31
                  -3240026.026 5  -2524693.748 5  23921563.294    23921565.974
         9.000           9.250
                    851250.137 7    663311.626 6  20634338.255    20634338.950
        21.000          17.750
                  -2887759.052 6  -2250200.844 6  21043430.841    21043431.821
        18.750          19.500
                  -8392630.252 6  -6539708.476 6  22685881.521    22685882.813
        12.250          13.000
                   1301948.131 5   1014506.200 5  23676077.966    23676079.056
        11.500          11.250
                   7544615.371 6   5878919.082 6  21997290.841    21997291.884
        17.250          17.250
                  -7863312.378 6  -6127253.090 6  22026642.302    22026643.216
        16.500          17.250
 95  4 28 15 53  0.0010000  0  7G 2G18G19G27G28G29G31
                  -3273961.937 5  -2551137.303 5  23915105.356    23915108.067
         9.250           9.250
                    873008.720 7    680266.359 6  20638478.583    20638479.415
        20.750          17.750
                  -2890744.699 6  -2252527.326 6  21042862.700    21042863.681
        18.750          19.750
                  -8418478.733 6  -6559850.149 6  22680962.802    22680964.028
        12.250          13.000
                   1326850.294 5   1033910.475 5  23680816.849    23680817.813
        11.500          11.000
                   7587044.547 6   5911980.764 6  22005364.864    22005365.825
        17.250          17.000
                  -7874065.785 6  -6135632.360 6  22024596.021    22024597.024
        16.500          17.000
 95  4 28 15 53 15.0010000  0  7G 2G18G19G27G28G29G31
                  -3307843.781 5  -2577538.724 5  23908658.060    23908660.493
         9.250           9.000
                    894881.272 7    697309.901 6  20642640.755    20642641.692
        20.750          18.000
                  -2893692.898 6  -2254824.619 6  21042301.724    21042302.731
        18.750          19.750
                  -8444322.991 6  -6579988.526 6  22676044.669    22676046.005
        12.250          13.000
                   1351872.866 5   1053408.573 5  23685578.638    23685579.392
        11.750          11.000
                   7629565.719 6   5945114.138 6  22013456.497    22013457.606
        17.000          17.000
                  -7884700.564 6  -6143919.204 6  22022572.278    22022573.177
        16.500          17.000
 95  4 28 15 53 30.0010000  0  7G 2G18G19G27G28G29G31
                  -3341674.082 5  -2603899.992 5  23902220.231    23902223.052
         9.250           9.000
                    916867.572 7    714442.076 6  20646824.810    20646825.646
        20.750          18.000
                  -2896604.613 6  -2257093.489 6  21041747.669    21041748.700
        18.750          19.500
                  -8470166.859 6  -6600126.601 6  22671126.646    22671127.927
        12.250          13.000
                   1377013.764 5   1072998.866 5  23690362.786    23690363.478
        11.750          10.750
                   7672173.312 6   5978314.849 6  22021564.325    22021565.497
        16.500          17.000
                  -7895215.213 6  -6152112.430 6  22020571.364    22020572.450
        16.500          17.000
 95  4 28 15 53 45.0010000  0  7G 2G18G19G27G28G29G31
                  -3375455.044 5  -2630222.812 5  23895791.903    23895794.470
         9.250           9.000
                    938968.382 7    731663.480 6  20651030.435    20651031.239
        21.000          18.250
                  -2899484.721 6  -2259337.731 6  21041199.575    21041200.591
        18.750          19.500
                  -8496011.832 6  -6620265.540 6  22666208.614    22666209.735
        12.500          13.000
                   1402271.394 5   1092680.129 5  23695168.903    23695169.735
        11.500          10.750
                   7714866.251 6   6011582.055 6  22029688.591    22029689.669
        16.500          17.250
                  -7905609.488 6  -6160211.861 6  22018593.450    22018594.540
        16.500          17.250
 95  4 28 15 54  0.0010000  0  7G 2G18G19G27G28G29G31
                  -3409187.562 5  -2656507.878 5  23889372.825    23889375.591
         9.750           9.000
                    961189.342 7    748978.506 6  20655259.028    20655259.938
        21.000          18.250
                  -2902333.707 6  -2261557.719 6  21040657.396    21040658.364
        18.750          19.250
                  -8521852.689 6  -6640401.269 6  22661291.661    22661292.478
        12.500          13.000
                   1427648.087 5   1112454.162 5  23699998.192    23699998.935
        11.500          10.500
                   7757647.627 6   6044918.177 6  22037829.458    22037830.696
        16.500          17.000
                  -7915881.231 6  -6168215.808 6  22016638.841    22016639.860
        16.500          17.250
 95  4 28 15 54 15.0010000  0  7G 2G18G19G27G28G29G31
                  -3442866.501 5  -2682751.195 5  23882964.216    23882966.688
         9.750           9.000
                    983540.451 7    766394.952 6  20659512.200    20659513.130
        21.000          18.250
                  -2905144.133 6  -2263747.661 6  21040122.677    21040123.505
        18.750          19.500
                  -8547679.062 6  -6660525.708 6  22656376.896    22656377.821
        12.500          13.000
                   1453151.202 5   1132326.708 5  23704851.286    23704851.954
        11.500          10.500
                   7800527.248 6   6078330.859 6  22045989.466    22045990.575
        17.000          17.000
                  -7926023.946 6  -6176119.221 6  22014709.028    22014710.044
        16.750          17.750
 95  4 28 15 54 30.0010000  0  7G 2G18G19G27G28G29G31
                  -3476502.562 5  -2708961.108 5  23876563.388    23876565.716
         9.750           9.000
                   1006014.025 7    783906.822 6  20663788.708    20663789.618
        21.000          18.250
                  -2907925.009 6  -2265914.580 6  21039593.458    21039594.454
        18.750          19.250
                  -8573499.743 6  -6680645.713 6  22651463.341    22651464.606
        12.250          13.000
                   1478772.231 5   1152291.130 5  23709726.778    23709727.587
        11.250          10.750
                   7843494.374 6   6111811.722 6  22054165.841    22054166.864
        17.000          17.000
                  -7936042.734 6  -6183926.060 6  22012802.177    22012803.505
        17.000          17.750
 95  4 28 15 54 45.0010000  0  7G 2G18G19G27G28G29G31
                  -3510099.243 5  -2735140.325 5  23870169.935    23870172.485
         9.500           9.000
                   1028606.379 7    801511.243 6  20668087.856    20668088.860
        20.750          18.500
                  -2910675.645 6  -2268057.929 6  21039070.005    21039070.880
        18.750          19.250
                  -8599315.304 6  -6700761.732 6  22646550.528    22646552.028
        12.250          13.000
                   1504510.436 5   1172346.864 5  23714624.521    23714625.685
        11.500          10.750
                   7886545.992 6   6145358.424 6  22062358.294    22062359.228
        17.000          16.500
                  -7945935.219 6  -6191634.486 6  22010919.942    22010920.786
        17.000          17.500
 95  4 28 15 55  0.0010000  0  7G 2G18G19G27G28G29G31
                  -3543660.290 5  -2761291.778 5  23863783.466    23863785.735
         9.500           8.500
                   1051318.805 7    819209.233 6  20672409.810    20672410.962
        20.500          18.750
                  -2913397.319 6  -2270178.710 6  21038552.169    21038552.966
        18.750          19.000
                  -8625125.175 6  -6720873.309 6  22641639.231    22641640.438
        12.250          13.250
                   1530365.669 5   1192493.785 5  23719544.599    23719545.790
        11.250          11.000
                   7929679.468 6   6178968.920 6  22070566.278    22070567.235
        17.000          16.250
                  -7955695.980 6  -6199240.267 6  22009062.286    22009063.329
        17.000          17.250
 95  4 28 15 55 15.0010000  0  7G 2G18G19G27G28G29G31
                  -3577184.467 5  -2787414.507 5  23857403.810    23857406.306
         9.750           8.750
                   1074153.471 7    837002.472 6  20676755.169    20676756.423
        20.500          18.750
                  -2916086.861 6  -2272274.458 6  21038040.474    21038041.114
        18.750          19.000
                  -8650925.498 6  -6740977.453 6  22636729.513    22636730.802
        12.250          13.250
                   1556340.398 5   1212733.817 5  23724487.247    23724488.349
        11.250          10.750
                   7972892.544 6   6212641.430 6  22078789.380    22078790.450
        16.500          16.250
                  -7965320.945 6  -6206740.238 6  22007230.677    22007231.673
        16.750          17.000
 95  4 28 15 55 30.0010000  0  7G 2G18G19G27G28G29G31
                  -3610672.531 5  -2813509.098 5  23851031.466    23851033.884
        10.000           9.000
                   1097111.768 7    854892.047 6  20681124.138    20681125.399
        20.500          19.000
                  -2918742.588 6  -2274343.857 6  21037535.060    21037535.817
        18.750          18.750
                  -8676717.624 6  -6761075.205 6  22631821.216    22631822.806
        12.250          13.250
                   1582435.573 5   1233067.707 5  23729452.856    23729454.181
        11.000          10.750
                   8016182.281 6   6246373.680 6  22087027.161    22087028.181
        16.250          16.250
                  -7974807.268 6  -6214132.175 6  22005425.388    22005426.364
        16.500          17.000
 95  4 28 15 55 45.0010000  0  7G 2G18G19G27G28G29G31
                  -3644124.097 5  -2839575.241 5  23844665.724    23844668.384
         9.750           9.000
                   1120194.086 7    872878.260 6  20685516.481    20685517.704
        20.750          19.000
                  -2921364.212 6  -2276386.682 6  21037036.146    21037036.696
        19.000          18.750
                  -8702500.944 6  -6781166.097 6  22626915.114    22626916.368
        12.250          13.250
                   1608651.164 5   1253495.425 5  23734441.317    23734442.626
        11.000          10.500
                   8059550.603 6   6280167.166 6  22095279.653    22095280.896
        16.250          16.250
                  -7984154.546 6  -6221415.768 6  22003646.731    22003647.696
        16.750          17.000
 95  4 28 15 56  0.0010000  0  7G 2G18G19G27G28G29G31
                  -3677538.544 5  -2865612.455 5  23838307.396    23838309.946
         9.750           9.250
                   1143396.950 7    890958.409 6  20689931.896    20689933.048
        20.750          19.000
                  -2923952.376 6  -2278403.435 6  21036543.880    21036544.286
        19.000          18.750
                  -8728277.358 6  -6801251.606 6  22622009.911    22622011.099
        12.250          13.250
                   1634985.384 5   1274015.588 5  23739452.856    23739453.935
        11.000          10.250
                   8102996.997 6   6314021.483 6  22103547.521    22103548.712
        16.500          16.500
                  -7993367.308 6  -6228594.536 6  22001893.794    22001894.833
        17.000          17.500
 95  4 28 15 56 15.0010000  0  7G 2G18G19G27G28G29G31
                  -3710918.956 5  -2891623.155 5  23831955.396    23831957.962
        10.000           9.500
                   1166712.724 7    909126.536 6  20694368.669    20694369.794
        20.500          19.000
                  -2926511.554 6  -2280397.601 6  21036056.771    21036057.349
        19.000          18.750
                  -8754053.963 6  -6821337.266 6  22617104.747    22617106.149
        12.250          13.250
                   1661432.679 5   1294623.851 5  23744485.489    23744486.509
        11.000          10.250
                   8146515.709 6   6347932.151 6  22111828.856    22111830.313
        16.500          16.500
                  -8002451.406 6  -6235673.049 6  22000165.091    22000166.134
        17.000          17.500
 95  4 28 15 56 30.0010000  0  7G 2G18G19G27G28G29G31
                  -3744256.852 5  -2917600.722 5  23825611.403    23825613.587
        10.000           9.250
                   1190142.069 7    927383.165 6  20698826.997    20698828.349
        20.500          19.000
                  -2929036.631 6  -2282365.190 6  21035576.372    21035576.942
        18.750          18.750
                  -8779827.418 6  -6841420.469 6  22612200.153    22612201.579
        12.250          13.250
                   1687998.015 5   1315324.108 5  23749540.333    23749541.692
        10.750          10.250
                   8190108.093 6   6381900.232 6  22120124.333    22120125.524
        16.500          16.500
                  -8011400.271 6  -6242646.182 6  21998462.169    21998463.337
        17.000          17.500
 95  4 28 15 56 45.0010000  0  7G 2G18G19G27G28G29G31
                  -3777553.798 5  -2943546.384 5  23819274.864    23819277.603
        10.000           9.250
                   1213681.650 7    945725.684 6  20703306.317    20703307.599
        20.500          19.000
                  -2931530.213 6  -2284308.246 6  21035101.700    21035102.235
        19.000          18.750
                  -8805601.358 6  -6861504.053 6  22607295.481    22607296.806
        12.500          13.250
                   1714679.186 5   1336114.614 5  23754617.583    23754619.024
        10.750          10.250
                   8233772.813 6   6415924.669 6  22128433.403    22128434.638
        16.500          16.500
                  -8020214.398 6  -6249514.328 6  21996784.942    21996786.165
        17.000          17.750
 95  4 28 15 57  0.0010000  0  7G 2G18G19G27G28G29G31
                  -3810805.245 5  -2969456.591 5  23812947.333    23812950.044
         9.750           9.250
                   1237335.781 7    964157.467 6  20707807.810    20707809.075
        20.500          19.000
                  -2933990.393 6  -2286225.268 6  21034633.653    21034634.333
        18.750          19.000
                  -8831374.976 6  -6881587.388 6  22602390.872    22602392.259
        12.250          13.250
                   1741478.213 5   1356996.964 5  23759717.294    23759718.517
        11.000          10.000
                   8277514.997 6   6450009.477 6  22136757.317    22136758.649
        16.500          16.500
                  -8028893.623 6  -6256277.354 6  21995133.310    21995134.481
        16.750          17.500
 95  4 28 15 57 15.0010000  0  7G 2G18G19G27G28G29G31
                  -3844010.799 5  -2995331.034 5  23806628.552    23806631.114
         9.750           9.250
                   1261104.262 7    982678.356 6  20712330.755    20712331.993
        20.500          19.250
                  -2936421.233 6  -2288119.431 6  21034171.130    21034171.712
        19.000          19.000
                  -8857151.177 6  -6901672.735 6  22597485.974    22597487.356
        12.500          13.250
                   1768392.422 5   1377969.069 5  23764838.630    23764840.071
        10.500           9.750
                   8321334.375 6   6484154.427 6  22145095.677    22145096.946
        16.250          16.250
                  -8037444.281 6  -6262940.197 6  21993506.021    21993507.169
        17.000          17.500
 95  4 28 15 57 30.0010000  0  7G 2G18G19G27G28G29G31
                  -3877168.881 5  -3021168.488 5  23800318.856    23800321.587
        10.000           9.750
                   1284984.303 7   1001286.167 6  20716874.896    20716876.243
        20.500          19.250
                  -2938824.116 6  -2289991.805 6  21033713.841    21033714.419
        18.750          18.750
                  -8882929.761 6  -6921759.935 6  22592580.208    22592581.774
        12.500          13.250
                   1795420.894 5   1399030.211 5  23769981.646    23769983.228
        10.250           9.750
                   8365232.436 6   6518360.693 6  22153449.302    22153450.481
        15.750          15.750
                  -8045870.945 6  -6269506.424 6  21991902.653    21991903.505
        17.000          17.250
 95  4 28 15 57 45.0010000  0  7G 2G18G19G27G28G29G31
                  -3910276.652 5  -3046966.732 5  23794018.536    23794021.114
         9.750           9.500
                   1308975.557 7   1019980.647 6  20721440.364    20721441.712
        20.250          19.000
                  -2941202.833 6  -2291845.353 6  21033261.169    21033261.735
        18.750          19.000
                  -8908709.756 6  -6941848.236 6  22587674.763    22587676.017
        12.500          13.250
                   1822563.036 5   1420179.922 5  23775146.817    23775148.208
        10.250           9.500
                   8409213.418 6   6552631.571 6  22161818.599    22161819.778
        15.500          15.750
                  -8054174.084 6  -6275976.404 6  21990322.817    21990323.450
        17.250          17.000
 95  4 28 15 58  0.0010000  0  7G 2G18G19G27G28G29G31
                  -3943329.797 5  -3072722.417 5  23787728.567    23787731.282
         9.750           9.750
                   1333078.906 7   1038762.466 6  20726026.958    20726028.294
        20.250          19.250
                  -2943557.739 6  -2293680.349 6  21032812.864    21032813.634
        18.750          19.000
                  -8934484.879 6  -6961932.747 6  22582769.778    22582771.282
        12.500          13.500
                   1849821.463 5   1441420.244 5  23780333.739    23780334.923
        10.250           9.500
                   8453281.735 6   6586970.504 6  22170204.442    22170205.657
        15.750          15.750
                  -8062351.235 6  -6282348.204 6  21988766.817    21988767.646
        17.250          17.250
 95  4 28 15 58 15.0010000  0  7G 2G18G19G27G28G29G31
                  -3976328.810 5  -3098435.916 5  23781449.372    23781451.661
        10.000           9.750
                   1357294.676 7   1057631.889 6  20730634.919    20730636.364
        20.500          19.000
                  -2945889.091 6  -2295496.985 6  21032369.216    21032370.032
        18.750          19.250
                  -8960252.119 6  -6982011.109 6  22577866.474    22577868.126
        12.750          13.500
                   1877197.299 5   1462752.050 5  23785543.388    23785544.278
        10.250           9.250
                   8497434.599 6   6621375.315 6  22178606.669    22178607.735
        16.000          15.750
                  -8070400.731 6  -6288620.532 6  21987234.755    21987235.755
        17.250          17.500
 95  4 28 15 58 30.0010000  0  7G 2G18G19G27G28G29G31
                  -4009273.008 5  -3124106.706 5  23775180.091    23775182.673
        10.000           9.750
                   1381625.477 7   1076590.947 6  20735265.146    20735266.485
        20.250          19.000
                  -2948194.896 6  -2297293.716 6  21031930.528    21031931.532
        18.750          19.250
                  -8986005.455 6  -7002078.636 6  22572965.841    22572967.149
        12.750          13.500
                   1904692.789 5   1484177.098 5  23790775.341    23790776.485
        10.250           9.500
                   8541674.705 6   6655848.110 6  22187025.224    22187026.368
        16.250          16.000
                  -8078319.552 6  -6294791.042 6  21985727.927    21985729.099
        17.000          17.750
 95  4 28 15 58 45.0010000  0  7G 2G18G19G27G28G29G31
                  -4042170.281 5  -3149740.939 5  23768919.942    23768922.372
         9.750           9.750
                   1406064.062 7   1095633.987 6  20739915.575    20739916.876
        20.250          19.000
                  -2950479.001 6  -2299073.543 6  21031495.763    21031496.778
        18.750          19.500
                  -9011747.861 6  -7022137.654 6  22568067.239    22568068.536
        13.000          13.500
                   1932302.334 5   1505691.012 5  23796029.380    23796030.493
        10.000           9.750
                   8585996.178 6   6690384.307 6  22195459.536    22195460.724
        16.250          16.250
                  -8086113.650 6  -6300864.361 6  21984244.669    21984245.989
        17.000          18.000
 95  4 28 15 59  0.0010000  0  7G 2G18G19G27G28G29G31
                  -4075016.777 5  -3175335.589 5  23762669.388    23762672.341
         9.750          10.000
                   1430615.406 7   1114764.897 6  20744587.677    20744588.931
        20.500          19.000
                  -2952737.168 6  -2300833.147 6  21031066.161    21031067.091
        18.750          19.500
                  -9037474.938 6  -7042184.720 6  22563171.435    22563172.806
        12.750          13.500
                   1960029.875 5   1527296.882 5  23801305.708    23801306.790
        10.000           9.500
                   8630404.755 6   6724988.380 6  22203909.872    22203911.333
        15.750          16.000
                  -8093781.162 6  -6306839.034 6  21982785.372    21982786.630
        17.000          18.000
 95  4 28 15 59 15.0010000  0  7G 2G18G19G27G28G29G31
                  -4107812.823 5  -3200890.927 5  23756428.505    23756431.470
        10.000          10.000
                   1455280.951 7   1133984.791 6  20749281.403    20749282.642
        20.500          19.250
                  -2954968.042 6  -2302571.490 6  21030641.599    21030642.450
        18.750          19.500
                  -9063185.034 6  -7062218.557 6  22558279.067    22558280.267
        13.000          13.750
                   1987875.058 5   1548994.410 5  23806604.583    23806605.649
        10.250           9.750
                   8674896.002 6   6759656.863 6  22212376.341    22212377.567
        15.500          16.000
                  -8101322.316 6  -6312715.252 6  21981350.364    21981351.497
        17.000          17.750
 95  4 28 15 59 30.0010000  0  7G 2G18G19G27G28G29G31
                  -4140562.300 5  -3226409.981 5  23750196.825    23750199.403
        10.000          10.000
                   1480054.984 7   1153289.224 6  20753995.841    20753997.017
        20.500          19.250
                  -2957173.579 6  -2304290.091 6  21030221.880    21030222.802
        18.750          19.250
                  -9088878.043 6  -7082239.080 6  22553389.817    22553391.212
        13.000          13.750
                   2015834.601 5   1570781.055 5  23811925.435    23811926.028
        10.500           9.500
                   8719463.127 6   6794384.476 6  22220857.044    22220858.470
        15.250          15.750
                  -8108739.060 6  -6318494.529 6  21979939.067    21979940.192
        17.000          17.750
 95  4 28 15 59 45.0010000  0  7G 2G18G19G27G28G29G31
                  -4173265.423 5  -3251892.922 5  23743973.403    23743976.173
         9.750          10.000
                   1504939.720 7   1172679.916 6  20758731.208    20758732.501
        20.500          19.500
                  -2959349.296 6  -2305985.452 6  21029808.028    21029808.817
        18.750          19.250
                  -9114550.528 6  -7102243.607 6  22548504.435    22548506.122
        13.000          14.000
                   2043911.140 5   1592658.868 5  23817268.614    23817269.056
        10.750           9.500
                   8764106.584 6   6829171.569 6  22229352.575    22229353.786
        15.250          15.750
                  -8116025.998 6  -6324172.662 6  21978552.630    21978553.282
        17.250          17.500
 95  4 28 16  0  0.0010000  0  7G 2G18G19G27G28G29G31
                  -4205907.702 5  -3277328.450 5  23737761.661    23737764.560
         9.750          10.000
                   1529951.949 7   1192169.953 6  20763490.872    20763492.114
        20.500          19.500
                  -2961475.534 6  -2307642.263 6  21029403.255    21029404.181
        18.750          19.000
                  -9140189.597 6  -7122222.094 6  22543625.208    22543626.919
        13.000          14.000
                   2072120.764 5   1614640.383 5  23822636.896    23822637.267
        10.750           9.500
                   8808840.134 6   6864028.858 6  22237865.192    22237866.267
        15.500          15.750
                  -8123165.515 6  -6329735.919 6  21977194.091    21977195.110
        17.250          17.500
 95  4 28 16  0 15.0010000  0  7G 2G18G19G27G28G29G31
                  -4238505.574 5  -3302729.367 5  23731558.614    23731561.247
         9.750          10.000
                   1555077.308 7   1211748.140 6  20768271.942    20768273.009
        20.500          19.250
                  -2963563.136 6  -2309268.966 6  21029005.974    21029006.802
        18.750          19.000
                  -9165811.977 6  -7142187.586 6  22538749.778    22538751.278
        13.000          14.000
                   2100449.480 5   1636714.697 5  23828027.653    23828028.114
        10.750           9.750
                   8853646.463 6   6898942.862 6  22246391.677    22246392.747
        15.500          15.500
                  -8130173.444 6  -6335196.642 6  21975860.442    21975861.481
        17.000          17.500
 95  4 28 16  0 30.0010000  0  7G 2G18G19G27G28G29G31
                  -4271064.088 5  -3328099.627 5  23725362.903    23725365.142
         9.750          10.000
                   1580314.019 7   1231413.106 6  20773074.505    20773075.517
        20.500          19.000
                  -2965611.381 6  -2310865.001 6  21028616.192    21028616.974
        18.750          19.000
                  -9191425.986 6  -7162146.544 6  22533875.935    22533877.079
        13.000          14.000
                   2128892.014 5   1658877.703 5  23833440.052    23833440.583
        10.500           9.750
                   8898522.414 6   6933911.121 6  22254931.231    22254932.333
        15.500          15.500
                  -8137053.486 6  -6340557.703 6  21974551.021    21974552.173
        16.750          17.750
 95  4 28 16  0 45.0010000  0  7G 2G18G19G27G28G29G31
                  -4303585.901 5  -3353441.290 5  23719174.458    23719176.892
        10.000          10.000
                   1605659.662 7   1251162.944 6  20777897.685    20777898.606
        20.750          19.000
                  -2967620.288 6  -2312430.384 6  21028234.044    21028234.829
        18.750          19.000
                  -9217038.030 6  -7182103.977 6  22529001.880    22529003.212
        13.000          14.000
                   2157444.882 5   1681126.674 5  23838873.341    23838874.411
        10.250          10.000
                   8943466.331 6   6968932.336 6  22263483.747    22263485.091
        15.500          15.500
                  -8143808.097 6  -6345821.032 6  21973265.747    21973267.138
        17.000          18.000
 95  4 28 16  1  0.0010000  0  7G 2G18G19G27G28G29G31
                  -4336065.854 5  -3378750.329 5  23712993.450    23712995.931
        10.000          10.000
                   1631121.038 7   1271002.966 6  20782742.950    20782743.903
        20.500          19.000
                  -2969585.792 6  -2313961.949 6  21027859.958    21027860.810
        18.750          19.000
                  -9242646.562 6  -7202058.674 6  22524128.731    22524129.829
        13.250          13.750
                   2186111.688 5   1703464.435 5  23844328.896    23844329.665
        10.250          10.250
                   8988479.704 6   7004007.673 6  22272049.685    22272050.993
        15.750          15.500
                  -8150431.225 6  -6350981.902 6  21972005.513    21972006.771
        17.250          18.000
 95  4 28 16  1 15.0010000  0  7G 2G18G19G27G28G29G31
                  -4368501.719 5  -3404025.013 5  23706821.028    23706823.837
        10.000          10.250
                   1656702.668 7   1290936.695 6  20787610.817    20787611.806
        20.500          19.000
                  -2971506.465 6  -2315458.572 6  21027494.513    21027495.384
        19.000          19.000
                  -9268250.840 6  -7222010.055 6  22519256.177    22519257.399
        13.000          13.750
                   2214894.600 5   1725892.660 5  23849806.263    23849807.075
        10.500          10.250
                   9033565.096 6   7039139.135 6  22280628.841    22280630.146
        15.500          15.250
                  -8156919.910 6  -6356038.017 6  21970770.685    21970771.860
        17.250          18.000
 95  4 28 16  1 30.0010000  0  7G 2G18G19G27G28G29G31
                  -4400898.134 5  -3429268.959 5  23700656.411    23700659.040
        10.000          10.250
                   1682397.663 7   1310958.763 6  20792500.372    20792501.431
        20.250          19.000
                  -2973388.977 6  -2316925.470 6  21027136.192    21027136.962
        19.000          19.000
                  -9293857.895 6  -7241963.599 6  22514383.200    22514384.595
        13.000          13.750
                   2243787.842 5   1748406.865 5  23855304.474    23855305.403
        10.500          10.500
                   9078716.796 6   7074322.252 6  22289221.036    22289222.560
        15.000          15.250
                  -8163280.115 6  -6360994.015 6  21969560.325    21969561.599
        17.250          17.750
 95  4 28 16  1 45.0010000  0  7G 2G18G19G27G28G29G31
                  -4433249.091 5  -3454477.480 5  23694500.044    23694502.724
        10.000          10.000
                   1708209.640 7   1331071.976 6  20797412.200    20797413.169
        20.250          19.000
                  -2975229.446 6  -2318359.604 6  21026786.091    21026786.864
        18.750          18.750
                  -9319463.375 6  -7261915.916 6  22509510.481    22509511.849
        12.750          13.750
                   2272797.393 5   1771011.695 5  23860824.896    23860825.739
        10.250          10.250
                   9123944.623 6   7109564.698 6  22297827.677    22297828.813
        15.000          15.000
                  -8169504.582 6  -6365844.249 6  21968375.833    21968376.833
        17.000          17.250
 95  4 28 16  2  0.0010000  0  7G 2G18G19G27G28G29G31
                  -4465554.375 5  -3479650.421 5  23688352.513    23688355.099
        10.000          10.250
                   1734138.281 7   1351276.101 6  20802346.450    20802347.442
        20.250          19.250
                  -2977030.313 6  -2319762.879 6  21026443.302    21026444.087
        19.000          18.750
                  -9345072.103 6  -7281870.767 6  22504637.294    22504638.665
        13.000          13.750
                   2301921.203 5   1793705.555 5  23866366.708    23866367.575
        10.250          10.250
                   9169250.127 6   7144867.667 6  22306448.950    22306450.384
        15.000          15.250
                  -8175593.493 6  -6370588.854 6  21967217.013    21967218.247
        16.750          17.250
 95  4 28 16  2 15.0010000  0  7G 2G18G19G27G28G29G31
                  -4497811.622 5  -3504785.923 5  23682213.942    23682216.786
        10.000          10.250
                   1760185.097 7   1371572.312 6  20807303.075    20807303.946
        20.250          19.000
                  -2978793.817 6  -2321137.039 6  21026107.786    21026108.571
        18.750          19.000
                  -9370684.329 6  -7301828.339 6  22499763.677    22499764.923
        13.000          13.750
                   2331159.534 5   1816488.662 5  23871930.685    23871931.521
        10.250          10.250
                   9214636.102 6   7180233.344 6  22315085.591    22315087.013
        15.000          15.000
                  -8181547.073 6  -6375227.999 6  21966083.950    21966085.200
        16.750          17.500
 95  4 28 16  2 30.0010000  0  7G 2G18G19G27G28G29G31
                  -4530021.439 5  -3529884.464 5  23676084.778    23676087.435
        10.000          10.250
                   1786349.999 7   1391960.542 6  20812282.060    20812282.942
        20.250          19.000
                  -2980523.476 6  -2322484.824 6  21025778.606    21025779.474
        18.750          18.750
                  -9396297.262 6  -7321786.462 6  22494889.935    22494890.985
        13.250          13.750
                   2360510.985 5   1839359.915 5  23877515.864    23877517.063
        10.250          10.250
                   9260102.700 6   7215661.844 6  22323737.856    22323739.001
        15.500          14.750
                  -8187364.534 6  -6379761.080 6  21964976.997    21964978.177
        16.750          17.500
 95  4 28 16  2 45.0010000  0  7G 2G18G19G27G28G29G31
                  -4562180.769 5  -3554943.671 5  23669965.099    23669967.888
        10.250          10.500
                   1812633.640 7   1412441.290 6  20817283.599    20817284.521
        20.250          19.000
                  -2982219.184 6  -2323806.157 6  21025455.864    21025456.649
        18.750          19.000
                  -9421906.581 6  -7341741.775 6  22490016.513    22490017.669
        13.250          13.750
                   2389977.730 5   1862320.999 5  23883123.427    23883124.419
        10.250          10.250
                   9305652.400 6   7251155.099 6  22332405.755    22332406.946
        15.500          14.750
                  -8193041.719 6  -6384184.851 6  21963896.763    21963898.099
        17.000          18.000
 95  4 28 16  3  0.0010000  0  7G 2G18G19G27G28G29G31
                  -4594285.805 5  -3579960.570 5  23663855.731    23663858.396
        10.250          10.250
                   1839034.628 7   1433013.476 6  20822307.544    20822308.360
        20.000          18.750
                  -2983883.297 6  -2325102.871 6  21025139.294    21025140.134
        18.500          18.750
                  -9447505.158 6  -7361688.708 6  22485145.317    22485146.603
        13.250          13.750
                   2419562.474 5   1885374.036 5  23888753.091    23888753.849
        10.250           9.750
                   9351285.272 6   7286713.159 6  22341089.106    22341090.556
        15.250          14.250
                  -8198577.511 6  -6388498.451 6  21962843.411    21962844.669
        17.000          17.750
 95  4 28 16  3 15.0010000  0  7G 2G18G19G27G28G29G31
                  -4626342.028 5  -3604939.443 5  23657755.575    23657758.161
        10.250          10.250
                   1865547.256 6   1453672.656 6  20827352.614    20827353.587
        19.750          18.750
                  -2985522.450 6  -2326380.135 6  21024827.153    21024828.099
        18.750          19.000
                  -9473093.637 6  -7381627.779 6  22480275.888    22480277.298
        13.250          14.000
                   2449261.320 5   1908515.986 5  23894404.903    23894405.192
        10.500           9.750
                   9396999.905 6   7322334.934 6  22349788.583    22349789.767
        15.500          14.250
                  -8203976.974 6  -6392705.821 6  21961815.856    21961817.161
        17.000          18.000
 95  4 28 16  3 30.0010000  0  7G 2G18G19G27G28G29G31
                  -4658351.693 5  -3629882.024 5  23651664.310    23651666.896
        10.250          10.250
                   1892168.978 6   1474416.845 6  20832418.653    20832419.677
        19.750          19.000
                  -2987137.905 6  -2327638.932 6  21024519.849    21024520.696
        18.500          19.000
                  -9498673.957 6  -7401560.494 6  22475408.271    22475409.341
        13.250          14.000
                   2479073.019 5   1931745.870 5  23900077.880    23900078.356
        10.500          10.000
                   9442797.472 6   7358021.334 6  22358503.521    22358504.419
        15.000          14.000
                  -8209242.470 6  -6396808.796 6  21960813.802    21960815.181
        17.000          18.000
 95  4 28 16  3 45.0010000  0  7G 2G18G19G27G28G29G31
                  -4690317.354 5  -3654790.318 5  23645581.294    23645584.188
        10.250          10.250
                   1918897.054 6   1495243.907 6  20837504.731    20837505.735
        19.750          19.000
                  -2988729.445 6  -2328879.096 6  21024217.114    21024217.899
        18.750          19.000
                  -9524244.227 6  -7421485.370 6  22470542.497    22470543.571
        13.250          14.000
                   2508995.509 5   1955062.086 5  23905771.966    23905772.587
        10.250          10.000
                   9488678.614 6   7393772.854 6  22367234.411    22367235.696
        15.000          14.250
                  -8214372.604 6  -6400806.291 6  21959837.591    21959838.810
        17.000          17.750
 95  4 28 16  4  0.0010000  0  7G 2G18G19G27G28G29G31
                  -4722242.301 5  -3679666.884 5  23639506.380    23639509.216
        10.500          10.500
                   1945730.477 6   1516153.054 6  20842611.130    20842612.114
        19.750          19.000
                  -2990297.294 6  -2330100.799 6  21023918.778    21023919.458
        18.750          18.750
                  -9549804.255 6  -7441402.273 6  22465678.341    22465679.505
        13.500          14.000
                   2539026.024 5   1978462.481 5  23911486.489    23911487.083
        10.250          10.000
                   9534641.323 6   7429587.931 6  22375980.903    22375981.927
        15.000          14.000
                  -8219368.292 6  -6404699.032 6  21958886.958    21958888.204
        17.000          17.750
 95  4 28 16  4 15.0010000  0  7G 2G18G19G27G28G29G31
                  -4754111.594 5  -3704500.091 5  23633441.786    23633444.462
        10.250          10.500
                   1972685.281 6   1537156.787 6  20847740.497    20847741.521
        19.750          19.000
                  -2991828.046 6  -2331293.595 6  21023627.450    21023628.122
        18.750          18.750
                  -9575338.500 6  -7461299.079 6  22460819.403    22460820.489
        13.500          14.000
                   2569178.311 5   2001957.759 5  23917224.419    23917224.884
        10.500          10.000
                   9580697.024 6   7465475.471 6  22384744.786    22384746.216
        15.000          14.000
                  -8224216.302 6  -6408476.699 6  21957964.481    21957965.688
        17.000          17.500
 95  4 28 16  4 30.0010000  0  7G 2G18G19G27G28G29G31
                  -4785936.966 5  -3729299.069 5  23627385.638    23627388.544
        10.750          10.750
                   1999751.128 6   1558247.049 6  20852890.896    20852891.880
        19.500          18.750
                  -2993330.959 6  -2332464.699 6  21023341.325    21023342.220
        18.500          18.750
                  -9600853.044 6  -7481180.536 6  22455964.177    22455965.341
        13.500          14.000
                   2599442.935 5   2025540.577 5  23922983.606    23922983.974
        10.750          10.000
                   9626833.622 6   7501426.046 6  22393524.841    22393525.688
        15.000          14.000
                  -8228926.443 6  -6412146.936 6  21957068.294    21957069.181
        17.250          17.500
 95  4 28 16  4 45.0010000  0  7G 2G18G19G27G28G29G31
                  -4817723.010 5  -3754067.409 5  23621336.708    23621339.446
        10.500          10.500
                   2026921.000 6   1579418.364 6  20858061.052    20858062.161
        19.500          18.750
                  -2994808.501 6  -2333616.033 6  21023060.294    21023061.028
        18.750          18.750
                  -9626352.910 6  -7501050.562 6  22451111.481    22451112.755
        13.500          14.000
                   2629814.805 5   2049206.957 5  23928763.122    23928763.419
        10.750          10.000
                   9673043.136 6   7537433.434 6  22402318.192    22402319.013
        15.500          14.250
                  -8233502.681 6  -6415712.836 6  21956197.513    21956198.708
        17.250          17.750
 95  4 28 16  5  0.0010000  0  7G 2G18G19G27G28G29G31
                  -4849464.340 5  -3778800.894 5  23615296.794    23615299.450
        10.750          10.750
                   2054197.351 6   1600672.653 6  20863251.591    20863252.708
        19.500          18.750
                  -2996254.908 6  -2334743.108 6  21022785.208    21022785.853
        18.750          18.750
                  -9651836.720 6  -7520908.073 6  22446262.239    22446263.595
        13.500          14.000
                   2660297.723 5   2072959.881 5  23934563.653    23934563.950
        10.500           9.750
                   9719332.171 6   7573502.794 6  22411126.474    22411127.544
        15.500          14.250
                  -8237943.073 6  -6419172.880 6  21955352.263    21955353.442
        17.000          17.750
 95  4 28 16  5 15.0010000  0  7G 2G18G19G27G28G29G31
                  -4881163.143 5  -3803501.251 5  23609264.935    23609267.446
        10.750          10.750
                   2081582.111 6   1622011.417 6  20868462.505    20868463.548
        19.500          18.750
                  -2997671.469 6  -2335846.922 6  21022515.489    21022516.188
        18.750          18.750
                  -9677307.982 6  -7540755.806 6  22441415.083    22441416.376
        13.500          14.250
                   2690889.964 5   2096797.982 5  23940385.286    23940385.583
        10.500          10.000
                   9765699.523 6   7609633.179 6  22419949.864    22419950.919
        15.000          14.250
                  -8242249.364 6  -6422528.424 6  21954532.724    21954534.036
        17.000          18.000
 95  4 28 16  5 30.0010000  0  7G 2G18G19G27G28G29G31
                  -4912813.605 5  -3828163.939 5  23603242.114    23603244.720
        11.000          10.750
                   2109082.675 6   1643440.416 6  20873695.872    20873697.001
        19.500          18.750
                  -2999050.435 6  -2336921.449 6  21022253.138    21022253.981
        18.750          18.750
                  -9702764.980 6  -7560592.425 6  22436570.880    22436572.169
        13.750          14.250
                   2721595.909 5   2120724.680 5  23946228.216    23946228.505
        10.250          10.000
                   9812148.108 6   7645826.857 6  22428789.013    22428789.935
        15.000          14.250
                  -8246415.434 6  -6425774.705 6  21953739.942    21953741.419
        16.750          18.000
 95  4 28 16  5 45.0010000  0  7G 2G18G19G27G28G29G31
                  -4944408.398 5  -3852783.235 5  23597229.427    23597232.306
        10.500          10.750
                   2136702.656 6   1664962.471 6  20878951.966    20878952.896
        19.500          18.750
                  -3000389.027 6  -2337964.506 6  21021998.317    21021999.017
        18.750          18.500
                  -9728205.357 6  -7580416.088 6  22431729.825    22431731.126
        13.750          14.250
                   2752418.691 5   2144742.430 5  23952093.950    23952093.806
        10.500           9.750
                   9858676.326 6   7682082.591 6  22437642.692    22437643.813
        14.750          14.000
                  -8250438.442 6  -6428909.509 6  21952974.396    21952975.630
        16.750          17.750
 95  4 28 16  6  0.0010000  0  7G 2G18G19G27G28G29G31
                  -4975951.987 5  -3877362.640 5  23591226.778    23591229.560
        10.500          10.750
                   2164434.612 6   1686571.777 6  20884229.021    20884230.021
        19.750          19.000
                  -3001694.374 6  -2338981.659 6  21021750.028    21021750.634
        18.750          18.750
                  -9753634.800 6  -7600231.233 6  22426890.669    22426892.310
        13.750          14.500
                   2783351.772 5   2168846.119 5  23957980.083    23957980.396
        10.250           9.750
                   9905272.933 6   7718391.607 6  22446509.567    22446511.161
        14.250          14.250
                  -8254324.768 6  -6431937.809 6  21952234.825    21952236.079
        17.000          17.750
 95  4 28 16  6 15.0010000  0  7G 2G18G19G27G28G29G31
                  -5007435.003 5  -3901894.846 5  23585235.942    23585238.532
        10.750          10.750
                   2192286.604 6   1708274.622 6  20889529.310    20889530.364
        19.500          19.000
                  -3002962.961 6  -2339970.171 6  21021508.599    21021509.321
        18.750          18.750
                  -9779052.428 6  -7620037.169 6  22422053.888    22422055.470
        13.500          14.750
                   2814400.882 5   2193040.225 5  23963888.356    23963888.907
        10.250          10.000
                   9951939.257 6   7754754.962 6  22455390.380    22455391.200
        14.750          14.000
                  -8258072.986 6  -6434858.497 6  21951521.630    21951522.845
        17.000          17.750
 95  4 28 16  6 30.0010000  0  7G 2G18G19G27G28G29G31
                  -5038863.623 5  -3926384.670 5  23579255.200    23579257.817
        10.500          10.500
                   2220253.232 6   1730066.787 6  20894851.013    20894852.169
        19.500          19.000
                  -3004199.621 6  -2340933.804 6  21021273.192    21021273.825
        18.500          18.750
                  -9804464.025 6  -7639838.410 6  22417218.224    22417219.810
        13.750          14.750
                   2845561.591 5   2217321.297 5  23969817.911    23969818.813
        10.000          10.000
                   9998669.970 6   7791168.478 6  22464282.833    22464283.966
        14.750          14.250
                  -8261690.885 6  -6437677.636 6  21950833.083    21950834.255
        17.000          17.750
 95  4 28 16  6 45.0010000  0  7G 2G18G19G27G28G29G31
                  -5070238.446 5  -3950832.567 5  23573284.755    23573287.470
        10.750          10.750
                   2248333.524 6   1751947.527 6  20900194.474    20900195.649
        19.250          19.000
                  -3005399.188 6  -2341868.533 6  21021044.989    21021045.802
        18.750          18.750
                  -9829869.371 6  -7659634.779 6  22412383.466    22412385.138
        13.500          14.750
                   2876834.337 5   2241689.667 5  23975769.075    23975770.052
        10.000          10.250
                  10045465.681 6   7827632.645 6  22473187.716    22473189.200
        14.750          14.250
                  -8265178.030 6  -6440394.889 6  21950169.466    21950170.837
        17.000          17.750
 95  4 28 16  7  0.0010000  0  7G 2G18G19G27G28G29G31
                  -5101556.505 5  -3975236.237 5  23567324.942    23567327.665
        10.250          10.750
                   2276527.664 6   1773916.975 6  20905559.583    20905560.810
        19.000          18.750
                  -3006561.731 6  -2342774.412 6  21020823.794    21020824.571
        18.500          18.750
                  -9855270.219 6  -7679427.641 6  22407550.161    22407551.587
        13.250          14.750
                   2908219.164 5   2266145.372 5  23981741.403    23981742.458
        10.000          10.250
                  10092327.801 6   7864148.560 6  22482105.466    22482106.208
        15.000          14.000
                  -8268536.141 6  -6443011.593 6  21949530.458    21949532.106
        17.000          18.000
 95  4 28 16  7 15.0010000  0  7G 2G18G19G27G28G29G31
                  -5132815.677 5  -3999594.021 5  23561376.810    23561379.231
        10.750          10.750
                   2304842.940 6   1795980.817 6  20910947.669    20910948.696
        19.250          18.750
                  -3007686.488 6  -2343650.845 6  21020609.638    21020610.396
        18.750          18.750
                  -9880662.289 6  -7699213.669 6  22402718.036    22402719.532
        13.500          14.750
                   2939718.649 5   2290690.412 5  23987735.536    23987736.856
         9.750          10.250
                  10139257.774 6   7900717.352 6  22491036.075    22491037.228
        15.250          14.250
                  -8271762.273 6  -6445525.457 6  21948916.606    21948918.060
        17.000          18.000
 95  4 28 16  7 30.0010000  0  7G 2G18G19G27G28G29G31
                  -5164020.061 5  -4023909.116 5  23555438.528    23555441.005
        10.750          10.750
                   2333277.396 6   1818137.531 6  20916358.669    20916359.837
        19.500          19.000
                  -3008778.219 6  -2344501.547 6  21020401.966    21020402.638
        18.750          18.750
                  -9906046.510 6  -7718993.573 6  22397887.583    22397889.095
        13.250          14.750
                   2971329.389 5   2315322.140 5  23993750.763    23993752.231
         9.750          10.000
                  10186249.261 6   7937334.072 6  22499977.989    22499979.118
        15.000          14.250
                  -8274858.029 6  -6447937.727 6  21948327.560    21948328.978
        17.000          18.000
 95  4 28 16  7 45.0010000  0  7G 2G18G19G27G28G29G31
                  -5195175.629 5  -4048186.170 5  23549510.044    23549512.563
        10.750          10.750
                   2361824.801 6   1840382.249 6  20921791.185    20921792.321
        19.500          19.000
                  -3009840.996 6  -2345329.689 6  21020199.739    21020200.571
        18.500          18.750
                  -9931428.675 6  -7738771.883 6  22393057.474    22393059.060
        13.500          14.750
                   3003045.345 5   2340035.860 5  23999786.356    23999787.524
        10.000          10.000
                  10233297.340 6   7973994.890 6  22508931.075    22508932.638
        15.000          14.750
                  -8277827.418 6  -6450251.532 6  21947762.505    21947763.989
        17.250          18.000
 95  4 28 16  8  0.0010000  0  7G 2G18G19G27G28G29G31
                  -5226281.854 5  -4072424.775 5  23543590.646    23543593.333
        10.750          11.000
                   2390488.341 6   1862717.468 6  20927245.630    20927246.704
        19.500          19.000
                  -3010871.363 6  -2346132.570 6  21020003.716    21020004.567
        18.750          18.750
                  -9956806.207 6  -7758546.576 6  22388228.263    22388229.798
        13.500          14.750
                   3034869.333 5   2364833.766 5  24005842.130    24005843.571
         9.750          10.000
                  10280409.196 6   8010705.407 6  22517896.294    22517897.403
        15.000          14.250
                  -8280666.653 6  -6452463.925 6  21947222.310    21947223.419
        17.250          17.750
 95  4 28 16  8 15.0010000  0  7G 2G18G19G27G28G29G31
                  -5257338.668 5  -4096624.872 5  23537680.419    23537683.364
        10.500          10.750
                   2419272.448 6   1885146.633 6  20932723.122    20932724.310
        19.500          19.000
                  -3011866.661 6  -2346908.132 6  21019814.372    21019814.962
        18.750          18.750
                  -9982178.704 6  -7778317.346 6  22383399.911    22383401.481
        13.250          14.500
                   3066803.814 5   2389717.771 5  24011918.872    24011920.419
         9.500           9.750
                  10327592.661 6   8047471.718 6  22526874.763    22526876.306
        14.500          14.000
                  -8283370.882 6  -6454571.115 6  21946707.630    21946708.860
        17.250          17.750
 95  4 28 16  8 30.0010000  0  7G 2G18G19G27G28G29G31
                  -5288349.273 5  -4120788.964 5  23531779.403    23531782.017
        10.750          11.000
                   2448178.787 6   1907671.045 6  20938224.013    20938225.118
        19.500          19.250
                  -3012824.313 6  -2347654.354 6  21019632.138    21019632.833
        18.750          18.750
                 -10007545.420 6  -7798083.617 6  22378572.841    22378574.294
        13.500          14.500
                   3098849.956 5   2414688.783 5  24018016.966    24018018.735
         9.250          10.000
                  10374852.539 6   8084297.574 6  22535867.935    22535869.403
        14.500          14.000
                  -8285937.407 6  -6456571.008 6  21946219.036    21946220.317
        17.250          17.500
 95  4 28 16  8 45.0010000  0  7G 2G18G19G27G28G29G31
                  -5319312.476 5  -4144916.129 5  23525887.388    23525889.954
        11.000          11.000
                   2477209.062 6   1930292.032 6  20943748.169    20943749.294
        19.500          19.500
                  -3013738.077 6  -2348366.381 6  21019458.067    21019459.063
        18.500          19.000
                 -10032898.843 6  -7817839.527 6  22373748.310    22373749.521
        13.750          14.250
                   3131011.514 5   2439749.722 5  24024137.489    24024138.856
         9.500           9.750
                  10422194.137 6   8121187.108 6  22544877.028    22544878.450
        14.750          14.250
                  -8288356.751 6  -6458456.212 6  21945758.700    21945760.056
        17.250          17.750
 95  4 28 16  9  0.0010000  0  7G 2G18G19G27G28G29G31
                  -5350233.296 5  -4169010.261 5  23520003.435    23520006.017
        11.000          11.000
                   2506354.532 6   1953002.778 6  20949294.435    20949295.548
        19.500          19.500
                  -3014619.599 6  -2349053.279 6  21019290.302    21019291.349
        18.500          19.000
                 -10058248.626 6  -7837592.602 6  22368924.575    22368925.614
        13.750          14.500
                   3163279.809 5   2464893.841 5  24030277.841    24030279.274
         9.500           9.750
                  10469609.409 6   8158134.049 6  22553899.646    22553901.356
        14.250          14.000
                  -8290633.848 6  -6460230.570 6  21945325.200    21945326.845
        17.000          18.000
 95  4 28 16  9 15.0010000  0  7G 2G18G19G27G28G29G31
                  -5381105.986 5  -4193066.894 5  23514128.606    23514131.067
        11.000          10.750
                   2535622.796 6   1975809.211 6  20954863.919    20954865.118
        19.750          19.500
                  -3015464.873 6  -2349711.932 6  21019129.614    21019130.677
        18.750          19.000
                 -10083589.016 6  -7857338.354 6  22364102.364    22364103.474
        14.000          14.250
                   3195661.638 5   2490126.429 5  24036439.700    24036441.372
         9.250           9.750
                  10517106.330 6   8195144.610 6  22562938.231    22562939.454
        14.750          13.750
                  -8292759.861 6  -6461887.197 6  21944920.794    21944922.306
        17.000          18.000
 95  4 28 16  9 30.0010000  0  7G 2G18G19G27G28G29G31
                  -5411934.352 5  -4217088.978 5  23508262.192    23508265.071
        11.000          11.000
                   2565012.474 6   1998710.249 6  20960456.724    20960457.825
        19.500          19.250
                  -3016272.394 6  -2350341.172 6  21018975.981    21018977.028
        18.250          19.000
                 -10108919.539 6  -7877076.419 6  22359282.349    22359283.478
        14.000          14.500
                   3228157.324 5   2515447.738 5  24042623.083    24042625.192
         9.000           9.750
                  10564686.310 6   8232219.903 6  22571992.349    22571993.997
        14.750          13.750
                  -8294733.552 6  -6463425.137 6  21944545.114    21944546.915
        17.000          18.000
 95  4 28 16  9 45.0010000  0  7G 2G18G19G27G28G29G31
                  -5442721.869 5  -4241079.241 5  23502403.755    23502405.864
        11.500          11.000
                   2594516.144 6   2021700.115 6  20966070.989    20966072.220
        19.500          19.500
                  -3017042.384 6  -2350941.166 6  21018829.450    21018830.423
        18.750          19.000
                 -10134243.086 6  -7896809.046 6  22354463.231    22354464.544
        14.000          14.750
                   3260765.140 5   2540856.412 5  24048828.114    24048830.024
         9.000           9.750
                  10612348.935 6   8269359.591 6  22581062.489    22581063.560
        14.750          13.500
                  -8296557.855 6  -6464846.670 6  21944198.114    21944199.606
        17.000          18.000
 95  4 28 16 10  0.0010000  0  7G 2G18G19G27G28G29G31
                  -5473466.967 5  -4265036.444 5  23496553.044    23496555.450
        11.500          11.000
                   2624133.124 6   2044778.274 6  20971706.911    20971708.134
        19.500          19.500
                  -3017773.738 6  -2351511.052 6  21018690.372    21018691.278
        18.750          19.000
                 -10159557.152 6  -7916534.291 6  22349646.036    22349647.353
        14.000          14.750
                   3293486.241 5   2566353.366 5  24055054.856    24055056.630
         9.250           9.750
                  10660096.363 6   8306565.356 6  22590148.185    22590150.169
        14.500          13.750
                  -8298234.999 6  -6466153.534 6  21943879.021    21943880.474
        17.250          17.750
 95  4 28 16 10 15.0010000  0  7G 2G18G19G27G28G29G31
                  -5504170.406 5  -4288961.197 5  23490710.239    23490712.313
        11.500          11.000
                   2653861.771 6   2067943.443 6  20977364.044    20977365.239
        19.500          19.500
                  -3018467.925 6  -2352051.977 6  21018558.067    21018558.950
        18.750          19.000
                 -10184858.640 6  -7936249.727 6  22344831.653    22344832.622
        14.000          14.750
                   3326320.222 5   2591938.281 5  24061303.192    24061304.860
         9.500           9.500
                  10707927.603 6   8343836.435 6  22599250.364    22599251.263
        14.500          13.250
                  -8299768.037 6  -6467348.104 6  21943587.333    21943588.708
        17.250          17.750
 95  4 28 16 10 30.0010000  0  7G 2G18G19G27G28G29G31
                  -5534834.172 5  -4312855.035 5  23484875.466    23484877.767
        11.750          11.250
                   2683699.366 6   2091193.504 6  20983041.911    20983043.075
        19.500          19.500
                  -3019125.718 6  -2352564.545 6  21018433.021    21018433.696
        18.750          19.000
                 -10210145.065 6  -7955953.432 6  22340019.700    22340020.872
        14.000          14.750
                   3359265.471 5   2617609.893 5  24067572.646    24067574.118
         9.500           9.750
                  10755839.483 6   8381170.345 6  22608367.794    22608369.165
        14.250          13.750
                  -8301159.597 6  -6468432.439 6  21943322.380    21943323.739
        17.250          17.500
 95  4 28 16 10 45.0010000  0  7G 2G18G19G27G28G29G31
                  -5565454.701 5  -4336715.175 5  23479048.333    23479050.583
        11.750          11.000
                   2713642.147 6   2114525.529 6  20988740.224    20988741.263
        19.750          19.500
                  -3019744.030 6  -2353046.348 6  21018315.286    21018316.294
        18.750          19.000
                 -10235412.073 6  -7975642.000 6  22335211.786    22335212.556
        14.000          14.750
                   3392321.697 5   2643367.981 5  24073862.731    24073864.435
         9.250           9.750
                  10803827.667 6   8418563.711 6  22617498.997    22617500.661
        13.750          13.500
                  -8302411.547 6  -6469407.986 6  21943084.380    21943085.630
        17.250          17.750
 95  4 28 16 11  0.0010000  0  7G 2G18G19G27G28G29G31
                  -5596032.054 5  -4360541.672 5  23473229.591    23473232.028
        11.750          11.500
                   2743687.064 6   2137937.143 6  20994457.544    20994458.595
        19.750          19.500
                  -3020327.625 6  -2353501.102 6  21018204.021    21018205.079
        18.500          18.750
                 -10260662.014 6  -7995317.273 6  22330406.591    22330407.610
        14.000          14.750
                   3425485.212 5   2669209.676 5  24080173.403    24080175.317
         9.250           9.500
                  10851886.965 6   8456012.489 6  22626644.856    22626646.767
        14.000          13.750
                  -8303527.723 6  -6470277.734 6  21942871.958    21942873.235
        17.750          17.750
 95  4 28 16 11 15.0010000  0  7G 2G18G19G27G28G29G31
                  -5626560.106 5  -4384329.744 5  23467420.356    23467422.571
        11.750          11.250
                   2773840.243 6   2161433.117 6  21000195.575    21000196.532
        19.750          19.500
                  -3020872.284 6  -2353925.512 6  21018100.435    21018101.368
        18.500          18.750
                 -10285891.407 6  -8014976.538 6  22325605.763    22325606.513
        14.000          14.750
                   3458760.510 5   2695138.474 5  24086505.638    24086507.556
         9.000           9.750
                  10900021.097 6   8493519.585 6  22635804.856    22635805.704
        14.000          13.500
                  -8304507.290 6  -6471041.031 6  21942685.724    21942686.821
        17.750          17.750
 95  4 28 16 11 30.0010000  0  7G 2G18G19G27G28G29G31
                  -5657036.956 5  -4408077.932 5  23461620.685    23461623.200
        11.750          11.250
                   2804106.033 6   2185016.843 6  21005954.833    21005955.829
        19.750          19.250
                  -3021373.954 6  -2354316.428 6  21018004.950    21018005.938
        18.750          18.750
                 -10311095.148 6  -8034615.806 6  22320809.388    22320810.649
        14.000          14.750
                   3492149.796 5   2721156.092 5  24092859.669    24092861.149
         9.500           9.750
                  10948230.494 6   8531085.327 6  22644978.263    22644980.048
        13.750          13.500
                  -8305350.487 6  -6471698.071 6  21942525.099    21942526.442
        17.750          18.000
 95  4 28 16 11 45.0010000  0  7G 2G18G19G27G28G29G31
                  -5687462.180 5  -4431785.886 5  23455831.192    23455833.446
        11.750          11.000
                   2834482.555 6   2208686.854 6  21011735.169    21011736.165
        19.500          19.000
                  -3021835.841 6  -2354676.338 6  21017917.161    21017918.067
        18.750          18.750
                 -10336274.389 6  -8054235.991 6  22316017.903    22316019.146
        13.750          14.750
                   3525649.000 5   2747259.364 5  24099233.888    24099235.688
         9.250           9.750
                  10996508.806 6   8568704.773 6  22654165.552    22654167.235
        14.000          13.500
                  -8306060.679 6  -6472251.463 6  21942389.841    21942391.360
        17.250          17.750
 95  4 28 16 12  0.0010000  0  7G 2G18G19G27G28G29G31
                  -5717831.608 5  -4455450.366 5  23450052.013    23450054.360
        11.750          11.250
                   2864971.919 6   2232444.787 6  21017537.130    21017538.192
        19.500          19.000
                  -3022257.567 6  -2355004.957 6  21017836.927    21017837.724
        18.750          18.750
                 -10361428.713 6  -8073836.756 6  22311231.138    22311232.470
        14.000          15.000
                   3559257.056 5   2773447.451 5  24105628.966    24105631.372
         9.000           9.750
                  11044852.739 6   8606375.344 6  22663365.669    22663366.540
        14.250          13.250
                  -8306637.092 6  -6472700.613 6  21942280.099    21942281.595
        17.250          18.000
 95  4 28 16 12 15.0010000  0  7G 2G18G19G27G28G29G31
                  -5748132.394 5  -4479061.361 5  23444285.552    23444288.161
        11.500          11.000
                   2895585.130 6   2256299.230 6  21023362.747    21023363.567
        19.500          19.000
                  -3022629.816 6  -2355295.022 6  21017766.224    21017766.927
        18.750          18.500
                 -10386548.833 6  -8093410.872 6  22306450.989    22306452.149
        13.750          14.750
                   3592982.758 5   2799727.205 5  24112046.763    24112049.368
         8.750           9.750
                  11093272.685 6   8644105.160 6  22672579.200    22672580.552
        14.000          13.250
                  -8307068.854 6  -6473037.048 6  21942198.052    21942199.384
        17.250          17.750
